[[{"header":{"parameterUnit":"m.s-1","parameterCategory":1,"la1":31.0,"la2":29.5877,"lo1":-88.7671,"lo2":-86.6584,"dy":0.0162,"dx":0.0185,"nx":115,"ny":88,"refTime":"2024-10-06T18:00:00:Z","depth":0,"parameterNumber":2,"parameterNumberName":"U-component_of_WINDS"},"data":[0.0,0.0,0.0,0.0,0.0,0.0,0.0,0.0,0.0,0.0,0.0,0.0,0.0,0.0,0.0,0.0,0.0,0.0,0.0,0.0,0.0,0.0,0.0,0.0,0.0,0.0,0.0,0.0,0.0,0.0,0.0,0.0,0.0,0.0,0.0,0.0,0.0,0.0,0.0,0.0,0.0,0.0,0.0,0.0,0.0,0.0,0.0,0.0,0.0,0.0,0.0,0.0,0.0,0.0,0.0,0.0,0.0,0.0,0.0,0.0,0.0,0.0,0.0,0.0,0.0,0.0,0.0,0.0,0.0,0.0,0.0,0.0,0.0,0.0,0.0,0.0,0.0,0.0,0.0,0.0,0.0,0.0,0.0,0.0,0.0,0.0,0.0,0.0,0.0,0.0,0.0,0.0,0.0,0.0,0.0,0.0,0.0,0.0,0.0,0.0,0.0,0.0,0.0,0.0,0.0,0.0,0.0,0.0,0.0,0.0,0.0,0.0,0.0,0.0,0.0,0.0,0.0,0.0,0.0,0.0,0.0,0.0,0.0,0.0,0.0,0.0,0.0,0.0,0.0,0.0,0.0,0.0,0.0,0.0,0.0,0.0,0.0,0.0,0.0,0.0,0.0,0.0,0.0,0.0,0.0,0.0,0.0,0.0,0.0,0.0,0.0,0.0,0.0,0.0,0.0,0.0,0.0,0.0,0.0,0.0,0.0,0.0,0.0,0.0,0.0,0.0,0.0,0.0,0.0,0.0,0.0,0.0,0.0,0.0,0.0,0.0,0.0,0.0,0.0,0.0,0.0,0.0,0.0,0.0,0.0,0.0,0.0,0.0,0.0,0.0,0.0,0.0,0.0,0.0,0.0,0.0,0.0,0.0,0.0,0.0,0.0,0.0,0.0,0.0,0.0,0.0,0.0,0.0,0.0,0.0,0.0,0.0,0.0,0.0,0.0,0.0,0.0,0.0,0.0,0.0,0.0,0.0,0.0,0.0,0.0,0.0,0.0,0.0,0.0,0.0,0.0,0.0,0.0,0.0,0.0,0.0,0.0,0.0,0.0,0.0,0.0,0.0,0.0,0.0,0.0,0.0,0.0,0.0,0.0,0.0,0.0,0.0,0.0,0.0,0.0,0.0,0.0,0.0,0.0,0.0,0.0,0.0,0.0,0.0,0.0,0.0,0.0,0.0,0.0,0.0,0.0,0.0,0.0,0.0,0.0,0.0,0.0,0.0,0.0,0.0,0.0,0.0,0.0,0.0,0.0,0.0,0.0,0.0,0.0,0.0,0.0,0.0,0.0,0.0,0.0,0.0,0.0,0.0,0.0,0.0,0.0,0.0,0.0,0.0,0.0,0.0,0.0,0.0,0.0,0.0,0.0,0.0,0.0,0.0,0.0,0.0,0.0,0.0,0.0,0.0,0.0,0.0,0.0,0.0,0.0,0.0,0.0,0.0,0.0,0.0,0.0,0.0,0.0,0.0,0.0,0.0,0.0,0.0,0.0,0.0,0.0,0.0,0.0,0.0,0.0,0.0,0.0,0.0,0.0,0.0,0.0,0.0,0.0,0.0,0.0,0.0,0.0,0.0,0.0,0.0,0.0,0.0,0.0,0.0,0.0,0.0,0.0,0.0,0.0,0.0,0.0,0.0,0.0,0.0,0.0,0.0,0.0,0.0,0.0,0.0,0.0,0.0,0.0,0.0,0.0,0.0,0.0,0.0,0.0,0.0,0.0,0.0,0.0,0.0,0.0,0.0,0.0,0.0,0.0,0.0,0.0,0.0,0.0,0.0,0.0,0.0,0.0,0.0,0.0,0.0,0.0,0.0,0.0,0.0,0.0,0.0,0.0,0.0,0.0,0.0,0.0,0.0,0.0,0.0,0.0,0.0,0.0,0.0,0.0,0.0,0.0,0.0,0.0,0.0,0.0,0.0,0.0,0.0,0.0,0.0,0.0,0.0,0.0,0.0,0.0,0.0,0.0,0.0,0.0,0.0,0.0,0.0,0.0,0.0,0.0,0.0,0.0,0.0,0.0,0.0,0.0,0.0,0.0,0.0,0.0,0.0,0.0,0.0,0.0,0.0,0.0,0.0,0.0,0.0,0.0,0.0,0.0,0.0,0.0,0.0,0.0,0.0,0.0,0.0,0.0,0.0,0.0,0.0,0.0,0.0,0.0,0.0,0.0,0.0,0.0,0.0,0.0,0.0,0.0,0.0,0.0,0.0,0.0,0.0,0.0,0.0,0.0,0.0,0.0,0.0,0.0,0.0,0.0,0.0,0.0,0.0,0.0,0.0,0.0,0.0,0.0,0.0,0.0,0.0,0.0,0.0,0.0,0.0,0.0,0.0,0.0,0.0,0.0,0.0,0.0,0.0,0.0,0.0,0.0,0.0,0.0,0.0,0.0,0.0,0.0,0.0,0.0,0.0,0.0,0.0,0.0,0.0,0.0,0.0,0.0,0.0,0.0,0.0,0.0,0.0,0.0,0.0,0.0,0.0,0.0,0.0,0.0,0.0,0.0,0.0,0.0,0.0,0.0,0.0,0.0,0.0,0.0,0.0,0.0,0.0,0.0,0.0,0.0,0.0,0.0,0.0,0.0,0.0,0.0,0.0,0.0,0.0,0.0,0.0,0.0,0.0,0.0,0.0,0.0,0.0,0.0,0.0,0.0,0.0,0.0,0.0,0.0,0.0,0.0,0.0,0.0,0.0,0.0,0.0,0.0,0.0,0.0,0.0,0.0,0.0,0.0,0.0,0.0,0.0,0.0,0.0,0.0,0.0,0.0,0.0,0.0,0.0,0.0,0.0,0.0,0.0,0.0,0.0,0.0,0.0,0.0,0.0,0.0,0.0,0.0,0.0,0.0,0.0,0.0,0.0,0.0,0.0,0.0,0.0,0.0,0.0,0.0,0.0,0.0,0.0,0.0,0.0,0.0,0.0,0.0,0.0,0.0,0.0,0.0,0.0,0.0,0.0,0.0,0.0,0.0,0.0,0.0,0.0,0.0,0.0,0.0,0.0,0.0,0.0,0.0,0.0,0.0,0.0,0.0,0.0,0.0,0.0,0.0,0.0,0.0,0.0,0.0,0.0,0.0,0.0,0.0,0.0,0.0,0.0,0.0,0.0,0.0,0.0,0.0,0.0,0.0,0.0,0.0,0.0,0.0,0.0,0.0,0.0,0.0,0.0,0.0,0.0,0.0,0.0,0.0,0.0,0.0,0.0,0.0,0.0,0.0,0.0,0.0,0.0,0.0,0.0,0.0,0.0,0.0,0.0,0.0,0.0,0.0,0.0,0.0,0.0,0.0,0.0,0.0,0.0,0.0,0.0,0.0,0.0,0.0,0.0,0.0,0.0,0.0,0.0,0.0,0.0,0.0,0.0,0.0,0.0,0.0,0.0,0.0,0.0,0.0,0.0,0.0,0.0,0.0,0.0,0.0,0.0,0.0,0.0,0.0,0.0,0.0,0.0,0.0,0.0,0.0,0.0,0.0,0.0,0.0,0.0,0.0,0.0,0.0,0.0,0.0,0.0,0.0,0.0,0.0,0.0,0.0,0.0,0.0,0.0,0.0,0.0,0.0,0.0,0.0,0.0,0.0,0.0,0.0,0.0,0.0,0.0,0.0,0.0,0.0,0.0,0.0,0.0,0.0,0.0,0.0,0.0,0.0,0.0,0.0,0.0,0.0,0.0,0.0,0.0,0.0,0.0,0.0,0.0,0.0,0.0,0.0,0.0,0.0,0.0,0.0,0.0,0.0,0.0,0.0,0.0,0.0,0.0,0.0,0.0,0.0,0.0,0.0,0.0,0.0,0.0,0.0,0.0,0.0,0.0,0.0,0.0,0.0,0.0,0.0,0.0,0.0,0.0,0.0,0.0,0.0,0.0,0.0,0.0,0.0,0.0,0.0,0.0,0.0,0.0,0.0,0.0,0.0,0.0,0.0,0.0,0.0,0.0,0.0,0.0,0.0,0.0,0.0,0.0,0.0,0.0,0.0,0.0,0.0,0.0,0.0,0.0,0.0,0.0,0.0,0.0,0.0,0.0,0.0,0.0,0.0,0.0,0.0,0.0,0.0,0.0,0.0,0.0,0.0,0.0,0.0,0.0,0.0,0.0,0.0,0.0,0.0,0.0,0.0,0.0,0.0,0.0,0.0,0.0,0.0,0.0,0.0,0.0,0.0,0.0,0.0,0.0,0.0,0.0,0.0,0.0,0.0,0.0,0.0,0.0,0.0,0.0,0.0,0.0,0.0,0.0,0.0,0.0,0.0,0.0,2.2813,0.0,0.0,0.0,0.0,0.0,0.0,0.0,0.0,0.0,0.0,0.0,0.0,0.0,0.0,0.0,0.0,0.0,0.0,0.0,0.0,0.0,0.0,0.0,0.0,0.0,0.0,0.0,0.0,0.0,0.0,0.0,0.0,0.0,0.0,0.0,0.0,0.0,0.0,0.0,0.0,0.0,0.0,0.0,0.0,0.0,0.0,0.0,0.0,0.0,0.0,0.0,0.0,0.0,0.0,0.0,0.0,0.0,0.0,0.0,0.0,0.0,0.0,0.0,0.0,0.0,0.0,0.0,0.0,0.0,0.0,0.0,0.0,0.0,0.0,0.0,0.0,0.0,0.0,0.0,0.0,0.0,0.0,0.0,0.0,0.0,0.0,0.0,0.0,0.0,0.0,0.0,0.0,0.0,0.0,0.0,0.0,0.0,0.0,0.0,0.0,0.0,0.0,0.0,0.0,0.0,0.0,0.0,0.0,0.0,0.0,2.4874,2.3946,2.4408,2.4042,2.2751,0.0,0.0,0.0,0.0,0.0,0.0,0.0,0.0,0.0,0.0,0.0,0.0,0.0,0.0,0.0,0.0,0.0,0.0,0.0,0.0,0.0,0.0,0.0,0.0,0.0,0.0,0.0,0.0,0.0,0.0,0.0,0.0,0.0,0.0,0.0,0.0,0.0,0.0,0.0,0.0,0.0,0.0,0.0,0.0,0.0,0.0,0.0,0.0,0.0,0.0,0.0,0.0,0.0,0.0,0.0,0.0,0.0,0.0,0.0,0.0,0.0,0.0,0.0,0.0,0.0,0.0,0.0,0.0,0.0,0.0,0.0,0.0,0.0,0.0,0.0,0.0,0.0,0.0,0.0,0.0,0.0,0.0,0.0,0.0,0.0,0.0,0.0,0.0,0.0,0.0,0.0,0.0,0.0,0.0,0.0,0.0,0.0,0.0,0.0,0.0,0.0,0.0,0.0,0.0,0.0,0.0,0.0,0.0,0.0,0.0,0.0,0.0,2.5326,2.4904,2.3375,0.0,0.0,0.0,0.0,0.0,0.0,0.0,0.0,0.0,0.0,0.0,0.0,0.0,0.0,0.0,0.0,0.0,0.0,0.0,0.0,0.0,0.0,0.0,0.0,0.0,0.0,0.0,0.0,0.0,0.0,0.0,0.0,0.0,0.0,0.0,0.0,0.0,0.0,0.0,0.0,0.0,0.0,0.0,0.0,0.0,0.0,0.0,0.0,0.0,0.0,0.0,0.0,0.0,0.0,0.0,0.0,0.0,0.0,0.0,0.0,0.0,0.0,0.0,0.0,0.0,0.0,0.0,0.0,0.0,0.0,0.0,0.0,0.0,0.0,0.0,0.0,0.0,0.0,0.0,0.0,0.0,0.0,0.0,0.0,0.0,0.0,0.0,0.0,0.0,0.0,0.0,0.0,0.0,0.0,0.0,0.0,0.0,0.0,0.0,0.0,0.0,0.0,0.0,0.0,0.0,0.0,0.0,0.0,0.0,0.0,2.4808,2.7364,2.747,0.0,2.5241,0.0,0.0,0.0,0.0,0.0,0.0,0.0,0.0,0.0,0.0,0.0,0.0,0.0,0.0,0.0,0.0,0.0,0.0,0.0,0.0,0.0,0.0,0.0,0.0,0.0,0.0,0.0,0.0,0.0,0.0,0.0,0.0,0.0,0.0,0.0,0.0,0.0,0.0,0.0,0.0,0.0,0.0,0.0,0.0,0.0,0.0,0.0,0.0,0.0,0.0,0.0,0.0,0.0,0.0,0.0,0.0,0.0,0.0,0.0,0.0,0.0,0.0,0.0,0.0,0.0,0.0,0.0,0.0,0.0,0.0,0.0,0.0,0.0,0.0,0.0,0.0,0.0,0.0,0.0,0.0,0.0,0.0,0.0,0.0,0.0,0.0,0.0,0.0,0.0,0.0,0.0,0.0,0.0,0.0,0.0,0.0,0.0,0.0,0.0,0.0,0.0,0.0,0.0,0.0,0.0,0.0,0.0,0.0,0.0,0.0,2.6374,2.7131,2.6902,2.6339,0.0,0.0,0.0,0.0,0.0,0.0,0.0,0.0,0.0,0.0,0.0,0.0,0.0,0.0,0.0,0.0,0.0,0.0,0.0,0.0,0.0,0.0,0.0,0.0,0.0,0.0,0.0,0.0,0.0,0.0,0.0,0.0,0.0,0.0,0.0,0.0,0.0,0.0,0.0,0.0,0.0,0.0,0.0,0.0,0.0,0.0,0.0,0.0,0.0,0.0,0.0,0.0,0.0,0.0,0.0,0.0,0.0,0.0,0.0,0.0,0.0,0.0,0.0,0.0,0.0,0.0,0.0,0.0,0.0,0.0,0.0,0.0,0.0,0.0,0.0,0.0,0.0,0.0,0.0,0.0,0.0,0.0,0.0,0.0,0.0,0.0,0.0,0.0,0.0,0.0,0.0,0.0,0.0,0.0,0.0,0.0,0.0,0.0,0.0,0.0,0.0,0.0,0.0,0.0,0.0,0.0,0.0,0.0,0.0,0.0,2.6856,2.7634,2.7887,2.7222,2.6425,2.5443,0.0,0.0,0.0,0.0,0.0,0.0,0.0,0.0,0.0,0.0,0.0,0.0,0.0,0.0,0.0,0.0,0.0,0.0,0.0,0.0,0.0,0.0,0.0,0.0,0.0,0.0,0.0,0.0,0.0,0.0,0.0,0.0,0.0,0.0,0.0,0.0,0.0,0.0,0.0,0.0,0.0,0.0,0.0,0.0,0.0,0.0,0.0,0.0,0.0,0.0,0.0,0.0,0.0,0.0,0.0,0.0,0.0,0.0,0.0,0.0,0.0,0.0,0.0,0.0,0.0,0.0,0.0,0.0,0.0,0.0,0.0,0.0,0.0,0.0,0.0,0.0,0.0,0.0,0.0,0.0,0.0,0.0,0.0,0.0,0.0,0.0,0.0,0.0,0.0,0.0,0.0,0.0,0.0,0.0,0.0,0.0,0.0,0.0,0.0,0.0,0.0,0.0,0.0,0.0,0.0,0.0,0.0,0.0,3.0349,2.8121,2.8116,3.0852,2.9561,2.774,0.0,0.0,0.0,0.0,0.0,0.0,0.0,0.0,0.0,0.0,0.0,0.0,0.0,0.0,0.0,0.0,0.0,0.0,0.0,0.0,0.0,0.0,0.0,0.0,0.0,0.0,0.0,0.0,0.0,0.0,0.0,0.0,0.0,0.0,0.0,0.0,0.0,0.0,0.0,0.0,0.0,0.0,0.0,0.0,0.0,0.0,0.0,0.0,0.0,0.0,0.0,0.0,0.0,0.0,0.0,0.0,0.0,0.0,0.0,0.0,0.0,0.0,0.0,0.0,0.0,0.0,0.0,0.0,0.0,0.0,0.0,0.0,0.0,0.0,0.0,0.0,0.0,0.0,0.0,0.0,0.0,0.0,0.0,0.0,0.0,0.0,0.0,0.0,0.0,0.0,0.0,0.0,0.0,0.0,0.0,0.0,0.0,0.0,0.0,0.0,0.0,0.0,0.0,0.0,0.0,0.0,0.0,0.0,0.0,2.5398,2.6255,2.8822,3.2945,2.9005,2.6914,0.0,0.0,0.0,0.0,0.0,0.0,0.0,0.0,0.0,0.0,0.0,0.0,0.0,0.0,0.0,0.0,0.0,0.0,0.0,0.0,0.0,0.0,0.0,0.0,0.0,0.0,0.0,0.0,0.0,0.0,0.0,0.0,0.0,0.0,0.0,0.0,0.0,0.0,0.0,0.0,0.0,0.0,0.0,0.0,0.0,0.0,0.0,0.0,0.0,0.0,0.0,0.0,0.0,0.0,0.0,0.0,0.0,0.0,0.0,0.0,0.0,0.0,0.0,0.0,0.0,0.0,0.0,0.0,0.0,0.0,0.0,0.0,0.0,0.0,0.0,0.0,0.0,0.0,0.0,0.0,0.0,0.0,0.0,0.0,0.0,0.0,0.0,0.0,0.0,0.0,0.0,0.0,0.0,0.0,0.0,0.0,0.0,0.0,0.0,0.0,0.0,0.0,0.0,0.0,0.0,0.0,0.0,0.0,0.0,2.5165,0.0,3.0783,3.2875,2.8982,2.6457,0.0,0.0,0.0,0.0,0.0,0.0,0.0,0.0,0.0,0.0,0.0,0.0,0.0,0.0,0.0,0.0,0.0,0.0,0.0,0.0,0.0,0.0,0.0,0.0,0.0,0.0,0.0,0.0,0.0,0.0,0.0,0.0,0.0,0.0,0.0,0.0,0.0,0.0,0.0,0.0,0.0,0.0,0.0,0.0,0.0,0.0,0.0,0.0,0.0,0.0,0.0,0.0,0.0,0.0,0.0,0.0,0.0,0.0,0.0,0.0,0.0,0.0,0.0,0.0,0.0,0.0,0.0,0.0,0.0,0.0,0.0,0.0,0.0,0.0,0.0,0.0,0.0,0.0,0.0,0.0,0.0,0.0,0.0,0.0,0.0,0.0,0.0,0.0,0.0,0.0,0.0,0.0,0.0,0.0,0.0,0.0,0.0,0.0,0.0,0.0,0.0,0.0,0.0,0.0,0.0,0.0,0.0,0.0,2.5238,3.0804,3.3731,3.3616,3.0712,2.968,2.6508,0.0,0.0,0.0,0.0,0.0,0.0,0.0,0.0,0.0,0.0,0.0,0.0,0.0,0.0,0.0,0.0,0.0,0.0,0.0,0.0,0.0,0.0,0.0,0.0,0.0,0.0,0.0,0.0,0.0,0.0,0.0,0.0,0.0,0.0,0.0,0.0,0.0,0.0,0.0,0.0,0.0,0.0,0.0,0.0,0.0,0.0,0.0,0.0,0.0,0.0,0.0,0.0,0.0,0.0,0.0,0.0,0.0,0.0,0.0,0.0,0.0,0.0,0.0,0.0,0.0,0.0,0.0,0.0,0.0,0.0,0.0,0.0,0.0,0.0,0.0,0.0,0.0,0.0,0.0,0.0,0.0,0.0,0.0,0.0,0.0,0.0,0.0,0.0,0.0,0.0,0.0,0.0,0.0,0.0,0.0,0.0,0.0,0.0,0.0,0.0,0.0,0.0,0.0,0.0,0.0,0.0,0.0,0.0,0.0,2.8141,3.0444,3.2103,3.2803,2.8816,2.6446,0.0,0.0,0.0,0.0,0.0,0.0,0.0,0.0,0.0,0.0,0.0,0.0,0.0,0.0,0.0,0.0,0.0,0.0,0.0,0.0,0.0,0.0,0.0,0.0,0.0,0.0,0.0,0.0,0.0,0.0,0.0,0.0,0.0,0.0,0.0,0.0,0.0,0.0,0.0,0.0,0.0,0.0,0.0,0.0,0.0,0.0,0.0,0.0,0.0,0.0,0.0,0.0,0.0,0.0,0.0,0.0,0.0,0.0,0.0,0.0,0.0,0.0,0.0,0.0,0.0,0.0,0.0,0.0,0.0,0.0,0.0,0.0,0.0,0.0,0.0,0.0,0.0,0.0,0.0,0.0,0.0,0.0,0.0,0.0,0.0,0.0,0.0,0.0,0.0,0.0,0.0,0.0,0.0,0.0,0.0,0.0,0.0,0.0,0.0,0.0,0.0,0.0,0.0,0.0,0.0,0.0,0.0,0.0,0.0,2.9738,3.2413,3.405,3.4316,2.9993,2.7398,2.6827,0.0,0.0,0.0,0.0,0.0,0.0,0.0,0.0,0.0,0.0,0.0,0.0,0.0,0.0,0.0,0.0,0.0,0.0,0.0,0.0,0.0,0.0,0.0,0.0,0.0,0.0,0.0,0.0,0.0,0.0,0.0,0.0,0.0,0.0,0.0,0.0,0.0,0.0,0.0,0.0,0.0,0.0,0.0,0.0,0.0,0.0,0.0,0.0,0.0,0.0,0.0,0.0,0.0,0.0,0.0,0.0,0.0,0.0,0.0,0.0,0.0,0.0,0.0,0.0,0.0,0.0,0.0,0.0,0.0,0.0,0.0,0.0,0.0,0.0,0.0,0.0,0.0,0.0,0.0,0.0,0.0,0.0,0.0,0.0,0.0,0.0,0.0,0.0,0.0,0.0,0.0,0.0,0.0,0.0,0.0,0.0,0.0,0.0,0.0,0.0,0.0,0.0,0.0,0.0,0.0,0.0,0.0,0.0,3.4451,3.8549,3.8748,3.5014,3.2713,2.9192,0.0,0.0,0.0,0.0,0.0,0.0,0.0,0.0,0.0,0.0,0.0,0.0,0.0,0.0,0.0,0.0,0.0,0.0,0.0,0.0,0.0,0.0,0.0,0.0,0.0,0.0,0.0,0.0,0.0,0.0,0.0,0.0,0.0,0.0,0.0,0.0,0.0,0.0,0.0,0.0,0.0,0.0,0.0,0.0,0.0,0.0,0.0,0.0,0.0,0.0,0.0,0.0,0.0,0.0,0.0,0.0,0.0,0.0,0.0,0.0,0.0,0.0,0.0,0.0,0.0,0.0,0.0,0.0,0.0,0.0,0.0,0.0,0.0,0.0,0.0,0.0,0.0,0.0,0.0,0.0,0.0,0.0,0.0,0.0,0.0,0.0,0.0,0.0,0.0,0.0,0.0,0.0,0.0,0.0,0.0,0.0,0.0,0.0,0.0,0.0,0.0,0.0,0.0,0.0,0.0,0.0,0.0,0.0,0.0,3.6647,3.9227,3.9438,3.7081,3.3387,3.0014,0.0,0.0,0.0,0.0,0.0,0.0,0.0,0.0,0.0,0.0,0.0,0.0,0.0,0.0,0.0,0.0,0.0,0.0,0.0,0.0,0.0,0.0,0.0,0.0,0.0,0.0,0.0,0.0,0.0,0.0,0.0,0.0,0.0,0.0,0.0,0.0,0.0,0.0,0.0,0.0,0.0,0.0,0.0,0.0,0.0,0.0,0.0,0.0,0.0,0.0,0.0,0.0,0.0,0.0,0.0,0.0,0.0,0.0,0.0,0.0,0.0,0.0,0.0,0.0,0.0,0.0,0.0,0.0,0.0,0.0,0.0,0.0,0.0,0.0,0.0,0.0,0.0,0.0,0.0,0.0,0.0,0.0,0.0,0.0,0.0,0.0,0.0,0.0,0.0,0.0,0.0,0.0,0.0,0.0,0.0,0.0,0.0,0.0,0.0,0.0,0.0,0.0,0.0,0.0,0.0,0.0,0.0,0.0,3.5633,3.7617,3.9547,3.9708,3.7982,3.5085,3.1862,0.0,0.0,0.0,0.0,0.0,0.0,0.0,0.0,0.0,0.0,0.0,0.0,0.0,0.0,0.0,0.0,0.0,0.0,0.0,0.0,0.0,0.0,0.0,0.0,0.0,0.0,0.0,0.0,0.0,0.0,0.0,0.0,0.0,0.0,0.0,0.0,0.0,0.0,0.0,0.0,0.0,0.0,0.0,0.0,0.0,0.0,0.0,0.0,0.0,0.0,0.0,0.0,0.0,0.0,0.0,0.0,0.0,0.0,0.0,0.0,0.0,0.0,0.0,0.0,0.0,0.0,0.0,0.0,0.0,0.0,0.0,0.0,0.0,0.0,0.0,0.0,0.0,0.0,0.0,0.0,0.0,0.0,0.0,0.0,0.0,0.0,0.0,0.0,0.0,0.0,0.0,0.0,0.0,0.0,0.0,0.0,0.0,0.0,0.0,0.0,0.0,0.0,0.0,0.0,0.0,0.0,0.0,0.0,3.6839,3.7887,3.9621,3.9747,3.8126,3.6936,3.3962,0.0,0.0,0.0,0.0,0.0,0.0,0.0,0.0,0.0,0.0,0.0,0.0,0.0,0.0,0.0,0.0,0.0,0.0,0.0,0.0,0.0,0.0,0.0,0.0,0.0,0.0,0.0,0.0,0.0,0.0,0.0,0.0,0.0,0.0,0.0,0.0,0.0,0.0,0.0,0.0,0.0,0.0,0.0,0.0,0.0,0.0,0.0,0.0,0.0,0.0,0.0,0.0,0.0,0.0,0.0,0.0,0.0,0.0,0.0,0.0,0.0,0.0,0.0,0.0,0.0,0.0,0.0,0.0,0.0,0.0,0.0,0.0,0.0,0.0,0.0,0.0,0.0,0.0,0.0,0.0,0.0,0.0,0.0,0.0,0.0,0.0,0.0,0.0,0.0,0.0,0.0,0.0,0.0,0.0,0.0,0.0,0.0,0.0,0.0,0.0,0.0,0.0,0.0,0.0,0.0,0.0,0.0,0.0,3.6339,3.837,3.9402,3.9525,3.8718,3.6364,3.3356,0.0,0.0,0.0,0.0,0.0,0.0,0.0,0.0,0.0,0.0,0.0,0.0,0.0,0.0,0.0,0.0,0.0,0.0,0.0,0.0,0.0,0.0,0.0,0.0,0.0,0.0,0.0,0.0,0.0,0.0,0.0,0.0,0.0,0.0,0.0,0.0,0.0,0.0,0.0,0.0,0.0,0.0,0.0,0.0,0.0,0.0,0.0,0.0,2.5064,0.0,0.0,0.0,0.0,0.0,0.0,0.0,0.0,0.0,0.0,0.0,0.0,0.0,0.0,0.0,0.0,0.0,0.0,0.0,0.0,0.0,0.0,0.0,0.0,0.0,0.0,0.0,0.0,0.0,0.0,0.0,0.0,0.0,0.0,0.0,0.0,0.0,0.0,0.0,0.0,0.0,0.0,0.0,0.0,0.0,0.0,0.0,0.0,0.0,0.0,0.0,0.0,0.0,0.0,0.0,0.0,0.0,0.0,0.0,3.7096,3.8696,3.9361,3.9546,3.9208,3.7061,3.4198,0.0,0.0,0.0,0.0,0.0,0.0,0.0,0.0,0.0,0.0,0.0,0.0,0.0,0.0,0.0,0.0,0.0,0.0,0.0,0.0,0.0,0.0,0.0,0.0,0.0,0.0,0.0,0.0,0.0,0.0,0.0,0.0,0.0,0.0,0.0,0.0,0.0,0.0,0.0,0.0,0.0,0.0,0.0,0.0,0.0,0.0,0.0,0.0,0.0,0.0,0.0,0.0,0.0,0.0,0.0,0.0,0.0,0.0,0.0,0.0,0.0,0.0,0.0,0.0,0.0,0.0,0.0,0.0,0.0,0.0,0.0,0.0,0.0,0.0,0.0,0.0,0.0,0.0,0.0,0.0,0.0,0.0,0.0,0.0,0.0,0.0,0.0,0.0,0.0,0.0,0.0,0.0,0.0,0.0,0.0,0.0,0.0,0.0,0.0,0.0,0.0,0.0,0.0,0.0,0.0,0.0,0.0,3.5728,3.797,3.8982,3.9559,3.9772,3.9672,3.8153,3.5552,3.1788,0.0,0.0,0.0,0.0,0.0,0.0,0.0,0.0,0.0,0.0,0.0,0.0,0.0,0.0,0.0,0.0,0.0,0.0,0.0,0.0,0.0,0.0,0.0,0.0,0.0,0.0,0.0,0.0,0.0,0.0,0.0,0.0,0.0,0.0,0.0,0.0,0.0,0.0,2.5637,2.7428,0.0,0.0,0.0,0.0,0.0,0.0,0.0,0.0,2.7088,0.0,0.0,0.0,0.0,0.0,0.0,0.0,0.0,0.0,0.0,0.0,0.0,0.0,0.0,0.0,0.0,0.0,0.0,0.0,0.0,0.0,0.0,0.0,0.0,0.0,0.0,0.0,0.0,0.0,0.0,0.0,0.0,0.0,0.0,0.0,0.0,0.0,0.0,0.0,0.0,0.0,0.0,0.0,0.0,0.0,0.0,0.0,0.0,0.0,0.0,0.0,0.0,0.0,0.0,0.0,0.0,3.6243,3.6043,3.7054,3.9509,4.0086,4.0161,3.9685,3.8517,3.6294,3.2903,0.0,0.0,0.0,0.0,0.0,0.0,0.0,0.0,0.0,0.0,0.0,0.0,0.0,0.0,0.0,0.0,0.0,0.0,0.0,0.0,0.0,0.0,0.0,0.0,0.0,0.0,0.0,0.0,0.0,0.0,0.0,0.0,0.0,0.0,0.0,0.0,0.0,0.0,0.0,2.975,3.0612,0.0,0.0,0.0,0.0,0.0,0.0,0.0,0.0,2.6143,0.0,0.0,0.0,0.0,0.0,0.0,0.0,0.0,0.0,0.0,0.0,0.0,0.0,0.0,0.0,0.0,0.0,0.0,0.0,0.0,0.0,0.0,0.0,0.0,0.0,0.0,0.0,0.0,0.0,0.0,0.0,0.0,0.0,0.0,0.0,0.0,0.0,0.0,0.0,0.0,0.0,0.0,0.0,0.0,0.0,0.0,0.0,0.0,0.0,0.0,0.0,0.0,0.0,0.0,0.0,3.5285,3.6931,3.8467,4.0061,4.0349,4.0236,3.9685,3.7475,3.5152,0.0,0.0,0.0,0.0,0.0,0.0,0.0,0.0,0.0,0.0,0.0,0.0,0.0,0.0,0.0,0.0,0.0,0.0,0.0,0.0,0.0,0.0,0.0,0.0,0.0,0.0,0.0,0.0,0.0,0.0,0.0,0.0,0.0,0.0,0.0,0.0,0.0,0.0,0.0,0.0,3.0216,3.1198,3.0543,0.0,0.0,0.0,0.0,0.0,0.0,2.831,2.6561,0.0,0.0,0.0,0.0,0.0,0.0,0.0,0.0,0.0,0.0,0.0,0.0,0.0,0.0,0.0,0.0,0.0,0.0,0.0,0.0,0.0,0.0,0.0,0.0,0.0,0.0,0.0,0.0,0.0,0.0,0.0,0.0,0.0,0.0,0.0,0.0,0.0,0.0,0.0,0.0,0.0,0.0,0.0,0.0,0.0,0.0,0.0,0.0,0.0,0.0,0.0,0.0,0.0,0.0,0.0,3.4034,3.7563,3.9785,4.0613,4.065,4.0425,3.9823,3.6936,3.4377,0.0,0.0,0.0,0.0,0.0,0.0,0.0,0.0,0.0,0.0,0.0,0.0,0.0,0.0,0.0,0.0,0.0,0.0,0.0,0.0,0.0,0.0,0.0,0.0,0.0,0.0,0.0,0.0,0.0,0.0,0.0,0.0,0.0,0.0,0.0,0.0,0.0,0.0,0.0,0.0,0.0,3.1869,3.1119,3.0292,0.0,0.0,0.0,0.0,3.1133,2.9909,0.0,0.0,0.0,0.0,0.0,0.0,0.0,0.0,0.0,0.0,0.0,0.0,0.0,0.0,0.0,0.0,0.0,0.0,0.0,0.0,0.0,0.0,0.0,0.0,0.0,0.0,0.0,0.0,0.0,0.0,0.0,0.0,0.0,0.0,0.0,0.0,0.0,0.0,0.0,0.0,0.0,0.0,0.0,0.0,0.0,0.0,0.0,0.0,0.0,0.0,0.0,0.0,0.0,0.0,0.0,0.0,3.4486,3.6985,3.9182,4.1088,4.1214,4.0951,4.0399,3.858,3.5919,0.0,0.0,0.0,0.0,0.0,0.0,0.0,0.0,0.0,0.0,0.0,0.0,0.0,0.0,0.0,0.0,0.0,0.0,0.0,0.0,0.0,0.0,0.0,0.0,0.0,0.0,0.0,0.0,0.0,0.0,0.0,0.0,0.0,0.0,0.0,0.0,0.0,0.0,0.0,0.0,0.0,3.4119,3.1691,3.179,3.2368,0.0,0.0,3.1951,3.3618,3.3075,0.0,0.0,0.0,0.0,0.0,0.0,0.0,0.0,0.0,0.0,0.0,0.0,0.0,0.0,0.0,0.0,0.0,0.0,0.0,0.0,0.0,0.0,0.0,0.0,0.0,0.0,0.0,0.0,0.0,0.0,0.0,0.0,0.0,0.0,0.0,0.0,0.0,0.0,0.0,0.0,0.0,0.0,0.0,0.0,0.0,0.0,0.0,0.0,0.0,0.0,0.0,0.0,0.0,0.0,0.0,3.086,3.5079,3.8254,4.0512,4.1731,4.1491,4.1038,4.0512,3.7375,3.4288,0.0,0.0,0.0,0.0,0.0,0.0,0.0,0.0,0.0,0.0,0.0,0.0,0.0,0.0,0.0,0.0,0.0,0.0,0.0,0.0,0.0,0.0,0.0,0.0,0.0,0.0,0.0,0.0,0.0,0.0,0.0,0.0,0.0,0.0,0.0,0.0,0.0,0.0,0.0,0.0,0.0,0.0,3.3777,3.3741,0.0,0.0,0.0,3.3845,3.5128,0.0,0.0,0.0,0.0,0.0,0.0,0.0,0.0,0.0,0.0,0.0,0.0,0.0,0.0,0.0,0.0,0.0,0.0,0.0,0.0,0.0,0.0,0.0,0.0,0.0,0.0,0.0,0.0,0.0,0.0,0.0,0.0,0.0,0.0,0.0,0.0,0.0,0.0,0.0,0.0,0.0,0.0,0.0,0.0,0.0,0.0,0.0,0.0,0.0,0.0,0.0,0.0,0.0,0.0,0.0,0.0,0.0,3.5695,3.9408,4.1667,4.2336,4.1692,4.1127,4.0663,3.681,0.0,0.0,0.0,0.0,0.0,0.0,0.0,0.0,0.0,0.0,0.0,0.0,0.0,0.0,0.0,0.0,0.0,0.0,0.0,0.0,0.0,0.0,0.0,0.0,0.0,0.0,0.0,2.0565,0.0,0.0,0.0,0.0,0.0,0.0,0.0,0.0,0.0,0.0,0.0,0.0,0.0,0.0,3.442,3.5573,3.5743,3.6199,0.0,0.0,3.5985,3.6678,3.6433,3.484,0.0,0.0,0.0,0.0,0.0,0.0,0.0,0.0,0.0,0.0,0.0,0.0,0.0,0.0,0.0,0.0,0.0,0.0,0.0,0.0,0.0,0.0,0.0,0.0,0.0,0.0,0.0,0.0,0.0,0.0,0.0,0.0,0.0,0.0,0.0,0.0,0.0,0.0,0.0,0.0,0.0,0.0,0.0,0.0,0.0,0.0,0.0,0.0,0.0,0.0,0.0,0.0,0.0,0.0,3.1974,3.627,3.9621,4.1843,4.285,4.1868,4.1289,4.1188,3.8479,3.5189,0.0,0.0,0.0,0.0,0.0,0.0,0.0,0.0,0.0,0.0,0.0,0.0,0.0,0.0,0.0,0.0,0.0,0.0,0.0,0.0,0.0,0.0,0.0,0.0,0.0,0.0,0.0,0.0,0.0,0.0,0.0,0.0,0.0,0.0,0.0,0.0,0.0,0.0,0.0,0.0,0.0,3.56,3.6267,3.765,3.8844,0.0,3.9007,3.8642,3.8692,3.9472,3.8266,3.2907,0.0,0.0,0.0,0.0,0.0,0.0,0.0,0.0,0.0,0.0,0.0,0.0,0.0,0.0,0.0,0.0,0.0,0.0,0.0,0.0,0.0,0.0,0.0,0.0,0.0,0.0,0.0,0.0,0.0,0.0,0.0,0.0,0.0,0.0,0.0,0.0,0.0,0.0,0.0,0.0,0.0,0.0,0.0,0.0,0.0,0.0,0.0,0.0,0.0,0.0,0.0,0.0,0.0,3.1974,3.6356,3.9634,4.1854,4.2914,4.1879,4.1289,4.1289,3.8642,3.5541,0.0,0.0,0.0,0.0,0.0,0.0,0.0,0.0,0.0,0.0,0.0,0.0,0.0,0.0,0.0,0.0,0.0,0.0,0.0,0.0,0.0,0.0,0.0,0.0,0.0,0.0,0.0,0.0,2.4738,2.5072,2.4801,0.0,0.0,0.0,0.0,0.0,0.0,0.0,0.0,0.0,0.0,3.7614,3.9182,3.996,0.0,0.0,4.0463,3.9998,4.0337,3.9295,3.7387,3.4262,3.2606,0.0,0.0,0.0,0.0,0.0,0.0,0.0,0.0,0.0,0.0,0.0,0.0,0.0,0.0,0.0,0.0,0.0,0.0,0.0,0.0,0.0,0.0,0.0,0.0,0.0,0.0,0.0,0.0,0.0,0.0,0.0,0.0,0.0,0.0,0.0,0.0,0.0,0.0,0.0,0.0,0.0,0.0,0.0,0.0,0.0,0.0,0.0,0.0,0.0,0.0,0.0,0.0,3.216,3.6343,3.9634,4.1843,4.2975,4.2057,4.1478,4.1239,3.8969,3.6207,0.0,0.0,0.0,0.0,0.0,0.0,0.0,0.0,0.0,0.0,0.0,0.0,0.0,0.0,0.0,0.0,0.0,0.0,0.0,0.0,0.0,0.0,0.0,0.0,0.0,0.0,0.0,0.0,2.6044,2.5957,2.5712,0.0,0.0,0.0,0.0,0.0,0.0,0.0,0.0,0.0,0.0,3.9671,4.1528,4.1818,4.1957,4.2361,4.1455,4.0826,4.1013,3.9722,3.7914,3.5579,0.0,0.0,0.0,0.0,0.0,0.0,0.0,0.0,0.0,0.0,0.0,0.0,0.0,0.0,0.0,0.0,0.0,0.0,0.0,0.0,0.0,0.0,0.0,0.0,0.0,0.0,0.0,2.1655,0.0,0.0,1.974,0.0,0.0,0.0,0.0,0.0,0.0,0.0,0.0,0.0,0.0,0.0,0.0,0.0,0.0,0.0,0.0,0.0,0.0,0.0,0.0,0.0,0.0,3.2516,3.6356,3.9659,4.1868,4.295,4.2462,4.187,4.1289,3.9697,3.7525,3.4653,0.0,0.0,0.0,0.0,0.0,0.0,0.0,0.0,0.0,0.0,0.0,0.0,0.0,0.0,0.0,0.0,0.0,0.0,0.0,0.0,0.0,0.0,0.0,0.0,0.0,0.0,2.5446,2.4667,2.4299,0.0,0.0,0.0,0.0,0.0,0.0,0.0,0.0,0.0,3.7658,3.9956,4.1667,4.2799,4.2975,4.2975,4.3,4.2044,4.1138,4.0713,4.1343,4.0791,0.0,0.0,0.0,0.0,0.0,0.0,0.0,0.0,0.0,0.0,0.0,0.0,0.0,0.0,0.0,0.0,0.0,0.0,0.0,0.0,0.0,0.0,0.0,0.0,0.0,0.0,0.0,2.6684,2.483,0.0,0.0,0.0,0.0,0.0,0.0,0.0,0.0,0.0,0.0,0.0,3.2509,3.3891,0.0,0.0,0.0,0.0,0.0,0.0,0.0,0.0,0.0,0.0,0.0,0.0,3.323,3.7374,4.0388,4.2423,4.3478,4.2663,4.1934,4.1314,4.0086,3.76,3.3757,0.0,0.0,0.0,0.0,0.0,0.0,0.0,0.0,0.0,0.0,0.0,0.0,0.0,0.0,0.0,0.0,0.0,0.0,0.0,0.0,0.0,0.0,0.0,0.0,0.0,2.6179,0.0,0.0,0.0,0.0,0.0,0.0,0.0,0.0,0.0,0.0,3.4313,3.7163,3.9448,4.1616,4.3223,4.3951,4.4066,4.4217,0.0,0.0,0.0,0.0,0.0,0.0,0.0,0.0,0.0,0.0,0.0,0.0,0.0,0.0,4.182,3.5568,3.3685,3.3273,3.4,0.0,0.0,0.0,0.0,0.0,0.0,0.0,0.0,0.0,0.0,0.0,0.0,0.0,0.0,3.036,2.905,2.8066,0.0,0.0,0.0,0.0,0.0,0.0,0.0,0.0,3.5112,3.647,3.6698,3.7856,3.7462,3.574,3.5912,3.3457,0.0,0.0,0.0,0.0,0.0,0.0,0.0,0.0,3.4349,3.8492,4.1142,4.2914,4.3714,4.3115,4.2397,4.163,4.0375,3.8153,3.4913,3.3043,3.121,0.0,0.0,0.0,0.0,0.0,0.0,0.0,0.0,0.0,0.0,0.0,0.0,0.0,0.0,0.0,0.0,0.0,0.0,0.0,0.0,0.0,0.0,0.0,2.7089,0.0,0.0,0.0,0.0,0.0,0.0,0.0,0.0,0.0,3.4772,3.7594,4.044,4.2539,4.389,4.4855,4.5407,0.0,0.0,0.0,0.0,0.0,0.0,0.0,4.1882,4.314,4.1884,4.0979,4.1793,4.4378,4.6035,4.5081,0.0,0.0,4.0752,3.8994,3.868,3.9382,4.0007,4.0607,4.1326,4.2385,4.3292,0.0,0.0,0.0,0.0,3.2251,0.0,0.0,0.0,3.4192,3.4033,0.0,3.2433,0.0,0.0,0.0,0.0,2.8835,3.3247,0.0,0.0,4.0146,4.1895,4.1391,4.1934,4.1669,4.0663,4.1026,3.9333,3.5575,3.1491,0.0,0.0,0.0,0.0,0.0,0.0,3.5931,3.971,4.1945,4.3327,4.384,4.3815,4.3277,4.2199,4.0614,3.9207,3.809,3.6985,3.4951,3.1748,2.992,0.0,0.0,0.0,0.0,0.0,0.0,0.0,0.0,0.0,0.0,0.0,0.0,0.0,0.0,0.0,0.0,0.0,0.0,0.0,0.0,2.8407,0.0,0.0,0.0,0.0,0.0,0.0,0.0,0.0,0.0,4.0284,3.9573,4.1176,4.3542,4.6662,0.0,0.0,0.0,0.0,4.5813,4.6361,4.5989,4.5839,4.6336,4.7179,4.7255,4.5874,0.0,0.0,4.5307,4.7516,4.8837,4.6291,4.8074,4.954,4.8878,4.6768,4.5748,4.6647,4.5301,4.4683,4.6035,4.6773,4.7336,4.0326,0.0,0.0,0.0,0.0,3.8436,3.9883,4.2862,4.1067,3.9433,3.8018,3.6706,0.0,0.0,0.0,0.0,0.0,0.0,3.8042,4.0151,4.1582,4.2498,4.3112,4.365,4.3525,4.2872,4.3011,4.2133,4.025,3.8575,3.4455,2.8088,0.0,0.0,0.0,0.0,3.8379,4.1381,4.3251,4.4418,4.4995,4.4217,4.3302,4.2224,4.1329,4.0512,3.9797,3.8743,3.7362,3.5591,3.2817,0.0,0.0,0.0,0.0,0.0,0.0,0.0,0.0,0.0,0.0,0.0,0.0,0.0,0.0,0.0,0.0,0.0,0.0,0.0,2.8525,2.8912,2.9275,0.0,0.0,0.0,0.0,0.0,0.0,0.0,0.0,0.0,4.5796,4.6149,4.6602,0.0,0.0,4.7958,4.7716,4.7757,4.8049,4.856,4.851,0.0,4.8636,4.7917,4.7701,4.8796,5.0193,5.087,5.0076,5.1055,5.1707,5.0854,5.1389,5.1908,5.1657,4.9941,4.8636,4.8786,4.8636,4.8786,4.964,5.0293,5.0804,4.5948,4.2744,4.108,4.1711,4.3704,4.2924,4.412,4.6593,4.5002,4.379,4.2861,4.1555,3.9842,3.7921,3.7156,0.0,0.0,0.0,4.1711,4.3657,4.3987,4.4608,4.5422,4.5773,4.5633,4.5131,4.5106,4.4669,4.3804,4.3263,4.0111,3.4639,0.0,3.4586,3.5066,3.7889,4.0563,4.309,4.4342,4.5146,4.5487,4.4593,4.3689,4.2864,4.2283,4.1717,4.1178,4.0325,3.9333,3.8228,3.583,3.3032,0.0,0.0,0.0,0.0,0.0,0.0,0.0,0.0,0.0,0.0,0.0,2.5842,2.1601,0.0,0.0,0.0,2.7405,2.983,3.1484,3.2177,0.0,0.0,0.0,0.0,0.0,0.0,0.0,4.399,4.6058,4.7807,4.9254,4.9715,4.98,4.9599,4.933,4.9154,4.9238,0.0,4.9615,5.0193,5.0444,5.067,5.087,5.0076,4.9859,5.1139,5.195,5.2485,5.2729,5.3013,5.3289,5.3507,5.3582,5.3575,5.3569,5.247,5.1481,5.1297,5.149,5.1883,5.2495,5.2871,5.3223,5.0302,4.9606,4.6537,4.5522,4.5939,4.6426,4.6954,4.7375,4.6863,4.7139,4.7892,4.6426,4.5621,4.5276,4.4279,0.0,4.2668,4.4672,4.5868,4.6451,4.6938,4.744,4.7892,4.7908,4.7641,4.7149,4.7174,4.6913,4.6386,4.5899,4.4909,4.3352,4.0879,3.9986,4.0675,4.1327,4.2643,4.469,4.5296,4.5562,4.5487,4.497,4.4403,4.379,4.3327,4.2788,4.2224,4.1617,4.0826,3.9798,3.8693,3.6383,3.2706,0.0,0.0,0.0,0.0,0.0,0.0,0.0,0.0,0.0,0.0,0.0,0.0,0.0,0.0,2.9738,3.1632,0.0,3.6442,3.7148,0.0,0.0,0.0,4.0461,4.1454,4.4128,4.5939,4.605,0.0,0.0,5.0804,5.2084,5.2862,5.2352,5.0879,5.0218,5.1197,5.0904,5.0795,5.1364,5.1825,5.231,5.2611,5.2669,5.2711,5.2837,5.3013,5.3256,5.3632,5.3758,5.3984,5.4429,5.4597,5.4575,5.4575,5.4426,5.4461,5.3833,5.3728,5.3884,5.4321,5.4446,5.4446,5.2234,5.2042,5.1256,5.0277,4.9248,4.9373,4.9766,5.0243,4.9674,4.9339,4.9138,4.835,4.7494,4.6621,4.637,4.6146,4.5989,4.6889,4.7389,4.7531,4.7641,4.7767,4.7908,4.7908,4.7832,4.7716,4.7716,4.7641,4.7531,4.7405,4.7129,4.6728,4.6075,4.4658,4.2548,4.379,4.497,4.5884,4.6035,4.5924,4.5512,4.5347,4.4805,4.3815,4.3664,4.3176,4.2249,4.1603,4.1001,4.0312,3.9283,3.7688,3.5504,3.2296,0.0,0.0,0.0,0.0,0.0,0.0,0.0,0.0,0.0,3.2205,2.5311,0.0,3.4766,0.0,3.5336,3.7807,3.8806,3.9396,0.0,0.0,4.3652,4.4676,4.7768,4.8781,4.9724,5.1005,5.2327,5.3256,5.3549,5.3951,5.4152,5.3994,5.2904,5.2059,5.1975,5.2159,5.236,5.2511,5.2636,5.2744,5.2937,5.3264,5.349,5.3532,5.3858,5.4253,5.4353,5.4378,5.4429,5.4572,5.4597,5.459,5.4572,5.459,5.4706,5.4891,5.4684,5.4403,5.4572,5.4587,5.4587,5.2895,5.2895,5.2895,5.2343,5.1507,5.1507,5.1707,5.1975,5.1406,5.0996,5.067,5.0159,4.9581,4.8971,4.8987,4.8971,4.8997,4.9289,4.9414,4.9414,4.9414,4.9264,4.9022,4.9022,4.8997,4.9012,4.8997,4.9163,4.9389,4.9138,4.9163,4.9389,4.8912,4.7857,4.6376,4.6476,4.6728,4.6988,4.6788,4.6512,4.621,4.5748,4.4945,4.384,4.3564,4.2824,4.1493,4.1115,4.0436,3.9446,3.8818,3.7864,3.6445,3.3969,3.2092,0.0,0.0,0.0,0.0,0.0,0.0,0.0,0.0,0.0,0.0,0.0,3.7984,3.6867,3.9597,4.2057,4.3603,4.4679,4.625,4.856,4.8946,4.9816,5.1699,5.2101,5.2628,5.3557,5.3909,5.4245,5.4572,5.4597,5.4597,5.4597,5.4034,5.3557,5.3323,5.3499,5.3658,5.3658,5.3658,5.3658,5.3658,5.3884,5.4084,5.4127,5.4378,5.4672,5.4924,5.4956,5.5031,5.5257,5.5308,5.5036,5.4384,5.4047,5.3863,5.3285,5.2867,5.2927,5.3747,5.393,5.3747,5.3113,5.3138,5.3113,5.3063,5.2995,5.2995,5.2962,5.287,5.241,5.2201,5.2176,5.1624,5.1389,5.1414,5.1414,5.1364,5.1289,5.1389,5.1364,5.1289,5.1289,5.1021,5.0544,5.0544,5.0503,5.0528,5.0503,5.0795,5.1264,5.077,5.0795,5.1239,5.0293,5.0042,5.0427,4.9012,4.8118,4.7892,4.739,4.7083,4.7083,4.605,4.4945,4.384,4.3226,4.2121,4.0487,4.0462,3.9797,3.8341,3.8366,3.7965,3.6959,3.534,3.4184,0.0,3.2953,0.0,0.0,0.0,0.0,0.0,0.0,0.0,0.0,4.0565,4.1983,4.2151,4.4288,4.6677,4.9088,5.0695,5.2,5.3013,5.4152,5.4604,5.411,5.4604,5.5006,5.5024,5.5024,5.5024,5.4981,5.4881,5.4906,5.4881,5.483,5.4798,5.4773,5.4629,5.4522,5.4597,5.4597,5.4471,5.4522,5.4622,5.4573,5.437,5.428,5.4466,5.4442,5.4534,5.4737,5.5114,5.5023,5.4711,5.3524,5.2988,5.2349,5.1217,5.0739,5.0986,5.2298,5.2731,5.2164,5.4278,5.4295,5.4278,5.4002,5.3557,5.3557,5.3289,5.2895,5.2787,5.2762,5.2711,5.2201,5.195,5.195,5.195,5.1699,5.1339,5.1749,5.1699,5.1289,5.1289,5.1239,5.1138,5.1138,5.1122,5.1138,5.1138,5.1188,5.1289,5.1188,5.1188,5.1289,5.1088,5.1021,5.1088,0.0,0.0,0.0,4.7375,4.7083,4.7058,4.605,4.4959,4.384,4.2864,0.0,3.9973,4.0275,4.0174,3.9446,4.0198,0.0,0.0,0.0,0.0,0.0,0.0,0.0,0.0,0.0,0.0,0.0,4.2774,4.1605,4.0898,4.5124,4.7597,4.6818,4.9499,5.1557,5.2084,5.2804,5.3524,5.4228,5.5257,5.5842,5.5749,5.662,5.7292,5.7292,5.7248,5.7054,5.6577,5.6552,5.6296,5.584,5.5874,5.5892,5.582,5.5074,5.4612,5.4579,5.4352,5.4516,5.4597,5.4795,5.4305,5.3314,5.3112,5.2777,5.1561,5.1183,5.1087,5.1344,5.1148,5.1336,5.1191,5.1126,5.1046,5.1114,5.1002,5.1062,5.1072,5.106,5.0942,5.4597,5.4597,5.4597,5.4421,0.0,5.4152,5.4002,5.3708,5.3138,5.2895,5.287,5.2611,5.2485,5.2485,5.2485,5.2335,5.2084,5.2385,5.2352,5.2084,5.2101,5.195,5.1691,5.1691,5.1716,5.1674,5.1699,5.1841,5.2076,5.1825,5.1825,5.2059,5.1565,5.144,5.1666,5.1122,5.0142,4.8736,4.8209,4.7917,4.7908,4.6602,4.5497,4.4644,4.3302,0.0,0.0,0.0,0.0,0.0,0.0,0.0,0.0,0.0,0.0,4.163,4.1404,4.1717,4.2797,4.3413,4.4945,4.7682,4.8385,4.7757,4.5583,4.8971,5.1105,5.0845,5.2603,5.3959,5.4468,5.477,5.529,5.6136,5.6739,5.6651,5.5809,5.6899,5.7436,5.6437,5.6265,5.651,5.7331,5.5363,5.4693,5.5175,5.4419,5.4205,5.5086,5.4524,5.3583,5.2557,5.2315,5.2334,5.2334,5.2524,5.2608,5.1677,5.1682,5.1433,5.0482,5.0286,5.0258,5.0076,5.0168,5.0179,4.9477,4.9372,4.9191,4.8651,4.8359,4.8253,4.8189,4.88,4.9015,5.5082,5.5157,5.4974,5.4898,5.4856,5.478,5.4697,5.4547,5.3607,0.0,0.0,5.3088,5.3038,5.302,5.2945,5.2895,5.2895,5.2895,5.2895,5.2895,5.2895,5.2661,5.2251,5.2234,5.2234,5.2234,5.2251,5.246,5.287,5.246,5.246,5.277,5.2,5.1749,5.2051,5.1649,5.0937,4.9916,4.9254,4.8878,4.8752,4.7255,4.6185,4.5663,4.4105,4.2811,4.1779,4.1403,4.0814,3.9999,4.0601,4.1366,4.2155,4.3237,4.4683,4.6436,4.749,4.8184,4.8485,4.9464,5.0368,5.1096,5.2922,5.3005,5.0661,5.2251,5.3565,5.4084,5.468,5.5289,5.5873,5.5899,5.6141,5.6687,5.6802,5.608,5.4535,5.5786,5.6197,5.4657,5.4351,5.4888,5.6316,5.379,5.1993,5.3355,5.2612,5.1625,5.3062,5.3424,5.2848,5.1054,5.0763,5.0446,5.0311,5.0459,5.024,5.0193,5.014,5.0043,4.9725,4.9603,4.947,4.8869,4.9362,4.893,4.7962,4.7693,4.725,4.605,4.5508,4.5351,4.5795,4.686,4.7251,5.6928,5.7349,5.6394,5.5968,5.5942,5.5483,5.5031,5.4597,5.4429,5.4371,5.4346,5.3808,5.3582,5.3582,5.3113,5.2895,5.2895,5.2895,5.2895,5.2895,5.2895,5.2845,5.277,5.277,5.277,5.2812,5.2787,5.2837,5.287,5.282,5.282,5.287,5.2762,5.2485,5.2126,5.2026,5.1674,5.1063,5.0017,4.928,4.8777,4.7616,4.6737,4.6175,4.5031,4.4102,4.3489,4.3826,4.3976,4.3851,4.5257,4.5919,4.5658,4.6587,4.7355,4.7682,4.8325,4.9296,5.0736,5.1398,5.2402,5.3868,5.473,5.478,5.4002,5.4604,5.529,5.5817,5.6301,5.6116,5.5058,5.4876,5.4266,5.2703,5.2733,5.276,5.2497,5.3222,5.3612,5.3143,5.3129,5.2987,5.313,5.2335,5.1571,5.176,5.1441,5.0805,5.0077,5.215,5.3225,5.1691,5.11,5.1111,5.0579,5.1037,5.0109,4.8681,4.8455,4.7961,4.6548,4.6317,4.6277,4.586,4.6173,4.612,4.6049,4.6039,4.6175,4.6074,4.6055,4.6094,4.6152,4.6487,4.6392,5.7631,5.7826,5.7349,5.7123,5.7097,5.6846,5.6639,5.6363,5.6043,5.5408,5.4597,5.4303,5.4177,5.4152,5.3582,5.3339,5.3314,5.302,5.2895,5.2895,5.2895,5.2895,5.2895,5.2895,5.2895,5.2895,5.2895,5.2895,5.2895,5.2895,5.2895,5.2895,5.2895,5.277,5.2536,5.2536,5.2277,5.1741,5.0937,5.041,5.015,4.9323,4.8771,4.8504,4.7456,4.6768,4.6532,4.6426,4.6386,4.6386,4.7415,4.8033,4.8109,4.9138,5.0017,5.0578,5.1147,5.1942,5.2997,5.3858,5.4662,5.5415,5.6269,5.6646,5.6413,5.6319,5.6376,5.6627,5.7154,5.6808,5.5222,5.5039,5.4263,5.2369,5.2412,5.2031,5.1143,5.2084,5.2405,5.1365,5.1114,5.1487,5.2445,5.0477,4.947,5.0051,5.0382,4.9509,4.7551,4.9759,5.0947,4.848,4.7875,4.7852,4.7962,4.788,4.7543,4.6846,4.6782,4.64,4.5478,4.5371,4.5252,4.5076,4.5174,4.543,4.5686,4.59,4.6074,4.6211,4.6308,4.6308,4.6308,4.6308,4.623,5.8177,5.8252,5.8001,5.7612,5.7171,5.7152,5.69,5.6369,5.5852,5.4959,5.3868,5.4452,5.4541,5.4056,5.3474,5.319,5.3116,5.2751,5.2804,5.3271,5.3264,5.3289,5.3289,5.3306,5.3213,5.3088,5.3088,5.3038,5.2895,5.2895,5.2895,5.2895,5.2895,5.2895,5.2895,5.2895,5.2686,5.2285,5.1875,5.1565,5.1289,5.0845,5.0594,5.0544,4.9807,4.9371,4.933,4.8928,4.8661,4.867,4.9229,4.9732,5.0184,5.1239,5.2201,5.3013,5.3607,5.4228,5.4906,5.5717,5.6301,5.6577,5.6925,5.7152,5.7108,5.6382,5.6147,5.6599,5.7088,5.6513,5.4374,5.4058,5.3513,5.1851,5.1559,5.0761,4.9611,5.0698,5.1078,4.9334,4.9054,4.9803,5.0507,4.8686,4.7489,4.8647,4.891,4.8095,4.6858,4.7858,4.7621,4.6174,4.5284,4.5562,4.5293,4.5471,4.5668,4.5801,4.5928,4.5952,4.5842,4.5842,4.5744,4.5447,4.5605,4.5801,4.5881,4.6055,4.625,4.6308,4.6308,4.6308,4.6308,4.6308,4.6308,5.8911,5.9156,5.8258,5.6728,5.5032,5.4931,5.3873,5.2207,5.19,5.1498,5.1451,5.404,5.4216,5.2604,5.1991,5.1842,5.18,5.1589,5.2621,5.4272,5.4446,5.4446,5.4396,5.4403,5.4152,5.3683,5.3632,5.3389,5.2945,5.2895,5.2895,5.2895,5.2895,5.2895,5.2895,5.2895,5.287,5.282,5.277,5.2277,5.1364,5.1239,5.1214,5.1214,5.1138,5.1063,5.1038,5.1013,5.0987,5.1038,5.149,5.18,5.195,5.2879,5.3532,5.3683,5.4228,5.4956,5.5942,5.6143,5.6604,5.7469,5.5905,5.4974,5.4877,5.3528,5.346,5.4961,5.5819,5.4433,5.0756,5.0655,5.0163,4.8298,4.7896,4.7502,4.7909,4.7956,4.782,4.727,4.7729,4.7753,4.7861,4.7551,4.7405,4.739,4.7268,4.6918,4.6464,4.6595,4.688,4.6283,4.6154,4.6115,4.6113,4.615,4.6109,4.6191,4.623,4.6191,4.6172,4.6191,4.6191,4.5996,4.6113,4.6172,4.623,4.6289,4.6308,4.6387,4.6367,4.6328,4.6308,4.6328,4.6348,5.8819,5.7593,5.7713,5.6314,5.4178,5.4011,5.3343,5.2255,5.1901,5.1678,5.157,5.2569,5.2905,5.2823,5.3449,5.3757,5.3733,5.3413,5.3721,5.4561,5.4597,5.4597,5.4597,5.4597,5.4454,5.4228,5.4228,5.3926,5.3414,5.3046,5.2895,5.2895,5.2895,5.2895,5.2895,5.2895,5.2895,5.2895,5.2895,5.2686,5.231,5.2234,5.2251,5.2251,5.2251,5.2234,5.2251,5.2234,5.2234,5.2277,5.2754,5.3055,5.3055,5.3801,5.4511,5.5164,5.6043,5.6739,5.7154,5.6296,5.5915,5.6396,5.4672,5.3595,5.3575,5.2947,5.2507,5.2139,5.3302,5.2859,5.0104,4.9951,4.9335,4.7442,4.7148,4.7405,4.7561,4.762,4.7522,4.7344,4.7483,4.7561,4.7383,4.7461,4.7405,4.7009,4.6736,4.6621,4.6367,4.6308,4.6308,4.6308,4.6308,4.6308,4.6308,4.6308,4.6308,4.6308,4.6308,4.6308,4.6308,4.6308,4.6308,4.6308,4.6308,4.6384,4.6618,4.6638,4.6638,4.6658,4.6638,4.6579,4.6367,4.6482,4.654,5.8048,5.5949,5.6446,5.5249,5.2893,5.2719,5.2118,5.1223,5.0706,5.0447,5.0379,5.0524,5.1016,5.1816,5.2807,5.3726,5.4554,5.3777,5.4011,5.4906,5.5031,5.5031,5.5031,5.5031,5.4956,5.483,5.4823,5.4504,5.3976,5.3582,5.3381,5.3364,5.3364,5.3381,5.3339,5.3239,5.3188,5.3314,5.3088,5.2962,5.3088,5.3113,5.3046,5.292,5.2895,5.2962,5.3113,5.3096,5.3188,5.3364,5.3758,5.3934,5.3959,5.4629,5.5516,5.6497,5.6812,5.705,5.7179,5.5539,5.4547,5.4574,5.3119,5.2167,5.2085,5.1733,5.0762,4.9564,5.0507,5.0613,4.9269,4.9231,4.8751,4.7466,4.7578,4.7796,4.7952,4.7952,4.7933,4.7815,4.7933,4.7952,4.7933,4.7874,4.7656,4.738,4.7185,4.6931,4.656,4.6462,4.6462,4.6465,4.6365,4.6308,4.6308,4.6308,4.6308,4.6308,4.6308,4.6308,4.6308,4.6308,4.6308,4.6308,4.6308,4.6445,4.6716,4.6853,4.7009,4.7067,4.7067,4.695,4.6601,4.6755,4.6736,5.6452,5.4439,5.4335,5.3014,5.1005,5.0583,4.9183,4.7608,4.6993,4.6489,4.6648,4.8293,4.8775,4.8701,4.8801,4.9957,5.2726,5.1462,5.2679,5.5899,5.6118,5.61,5.6125,5.6125,5.5892,5.5534,5.5458,5.5132,5.4597,5.4479,5.4522,5.4479,5.4446,5.4471,5.4353,5.3926,5.3951,5.4253,5.3507,5.3188,5.3607,5.3658,5.3457,5.3046,5.292,5.3213,5.3607,5.3683,5.3909,5.4496,5.4547,5.4597,5.4672,5.5512,5.6523,5.7249,5.5838,5.5033,5.5225,5.3569,5.2557,5.2712,5.1377,5.0331,5.0245,4.914,4.8235,4.7772,4.8097,4.7914,4.7497,4.7865,4.808,4.8121,4.8125,4.8382,4.8734,4.8695,4.8617,4.834,4.8499,4.8656,4.8776,4.846,4.8183,4.8008,4.7796,4.7402,4.7009,4.6872,4.6872,4.6814,4.6599,4.6328,4.6328,4.6308,4.6308,4.6367,4.6387,4.6308,4.6308,4.6308,4.6308,4.6328,4.6387,4.6543,4.6794,4.7028,4.7246,4.7383,4.7519,4.7363,4.6992,4.6911,4.6931,5.4834,5.288,5.1083,4.9888,4.9194,4.8989,4.8298,4.7366,4.721,4.6875,4.6899,4.8733,5.0039,5.0652,5.0601,5.1837,5.3848,5.2855,5.4171,5.7012,5.6903,5.6903,5.7273,5.7298,5.7198,5.6972,5.662,5.5968,5.5132,5.4798,5.4597,5.4597,5.4597,5.4597,5.4572,5.4396,5.4378,5.4529,5.4152,5.4059,5.4253,5.4278,5.4177,5.4002,5.3976,5.4077,5.4278,5.4295,5.4378,5.4597,5.5214,5.5616,5.5615,5.5679,5.5172,5.4299,5.4021,5.4054,5.3991,5.2433,5.1423,5.1424,4.9708,4.8597,4.844,4.7975,4.76,4.762,4.762,4.76,4.7773,4.7891,4.8027,4.8183,4.8457,4.8695,4.8832,4.8894,4.8812,4.8714,4.8812,4.8871,4.8874,4.8757,4.8538,4.8242,4.8066,4.7812,4.748,4.7344,4.7344,4.7324,4.7249,4.7151,4.7109,4.6582,4.6348,4.6504,4.6562,4.6406,4.6348,4.6406,4.6426,4.6501,4.6562,4.6855,4.7226,4.7617,4.7754,4.7851,4.8011,4.7812,4.7422,4.7441,4.7461,5.2339,5.1041,4.9224,4.8418,4.8398,4.8262,4.8047,4.7776,4.75,4.7185,4.7244,4.8386,4.9806,5.1118,5.1404,5.288,5.4862,5.4378,5.5417,5.7713,5.7481,5.7506,5.7851,5.7901,5.7901,5.7801,5.7261,5.6677,5.6168,5.5458,5.5232,5.539,5.5207,5.5107,5.5107,5.4974,5.4924,5.5031,5.478,5.4672,5.4823,5.4856,5.4856,5.4906,5.5182,5.5182,5.4898,5.5006,5.5207,5.5458,5.6244,5.6563,5.613,5.5117,5.4029,5.2983,5.2731,5.2725,5.2492,5.0921,4.9837,4.9814,4.8685,4.7773,4.7796,4.7933,4.8011,4.8011,4.8011,4.8148,4.8343,4.8418,4.8418,4.846,4.8695,4.8894,4.8894,4.8894,4.8894,4.8874,4.8871,4.8894,4.8894,4.8894,4.8734,4.846,4.8418,4.8265,4.7891,4.7793,4.7815,4.7776,4.764,4.7737,4.7757,4.7363,4.6933,4.7012,4.6992,4.678,4.6621,4.6641,4.666,4.6716,4.6953,4.7305,4.7718,4.8125,4.8301,4.8402,4.8421,4.8304,4.8109,4.7988,4.793,4.9032,4.9055,4.8894,4.8855,4.8773,4.8441,4.82,4.8086,4.7399,4.7146,4.7115,4.7041,4.8753,4.9743,5.1074,5.2634,5.5671,5.5589,5.622,5.7957,5.7951,5.7951,5.8052,5.8077,5.8027,5.7951,5.7355,5.7355,5.76,5.6721,5.6426,5.6734,5.642,5.6168,5.6175,5.5792,5.5742,5.5961,5.5383,5.5056,5.5358,5.5559,5.5584,5.5634,5.642,5.6451,5.5559,5.5968,5.6426,5.691,5.735,5.7202,5.55,5.3804,5.3035,5.3091,5.1937,5.098,5.0673,4.9053,4.812,4.8137,4.8076,4.8223,4.8262,4.8558,4.8753,4.8737,4.8776,4.8812,4.8812,4.8812,4.8812,4.8894,4.8894,4.8894,4.8894,4.8894,4.8894,4.8894,4.8894,4.8894,4.8894,4.8894,4.8855,4.8835,4.8815,4.8675,4.8301,4.8223,4.8223,4.8144,4.8069,4.8109,4.8206,4.8206,4.7874,4.762,4.7503,4.7346,4.7268,4.7249,4.721,4.7246,4.7383,4.7734,4.8128,4.8499,4.8636,4.8714,4.8757,4.8675,4.8519,4.8363,4.8301,4.8894,4.8894,4.8894,4.8894,4.8894,4.8757,4.8675,4.8656,4.8363,4.8109,4.8356,5.0954,5.2346,5.3176,5.5847,5.7835,5.8472,5.852,5.8752,5.8885,5.861,5.8654,5.893,5.8981,5.8805,5.8478,5.8284,5.8033,5.7876,5.7524,5.728,5.7079,5.7273,5.7148,5.6784,5.6979,5.7248,5.7298,5.7047,5.6972,5.7097,5.7097,5.7097,5.7148,5.7474,5.7424,5.7148,5.7273,5.7449,5.7556,5.6668,5.493,5.2571,5.168,5.0903,4.9793,4.9342,4.9052,4.9047,4.8785,4.8464,4.8522,4.8597,4.8675,4.8675,4.8792,4.8894,4.8894,4.8894,4.8894,4.8894,4.8894,4.8894,4.8894,4.8894,4.8894,4.8894,4.8894,4.8894,4.8894,4.8894,4.8894,4.8894,4.8894,4.8894,4.8894,4.8894,4.8792,4.8695,4.8636,4.8675,4.8656,4.8561,4.8444,4.8519,4.8558,4.8402,4.8128,4.7972,4.7894,4.7815,4.7796,4.7757,4.7796,4.791,4.8125,4.8519,4.8757,4.8855,4.8894,4.8855,4.8753,4.8695,4.8636,4.8578,4.8894,4.8894,4.8894,4.8894,4.8894,4.8894,4.8894,4.8851,4.8695,4.8457,4.9023,5.1903,5.3746,5.4675,5.8197,5.9985,6.0127,6.0487,6.0437,6.001,5.9288,5.9288,5.9759,5.9809,5.9533,5.9012,5.8786,5.8635,5.8478,5.8102,5.7782,5.7713,5.7807,5.7725,5.738,5.7681,5.7901,5.7901,5.7876,5.7901,5.7901,5.7901,5.8001,5.8064,5.7572,5.736,5.7455,5.6925,5.6755,5.6678,5.5024,5.2702,5.0836,5.025,4.9317,4.852,4.8327,4.8503,4.8476,4.8764,4.8894,4.8894,4.8894,4.8894,4.8894,4.8894,4.8894,4.8894,4.8894,4.8894,4.8894,4.8894,4.8894,4.8894,4.8894,4.8894,4.8894,4.8894,4.8894,4.8894,4.8894,4.8894,4.8894,4.8894,4.8894,4.8894,4.8894,4.8894,4.8894,4.8894,4.8894,4.8894,4.8815,4.8776,4.8855,4.8874,4.8874,4.8679,4.8464,4.8343,4.8284,4.8307,4.8288,4.8304,4.8421,4.846,4.8796,4.8835,4.8894,4.8894,4.8894,4.8832,4.8792,4.8812,4.8773,4.8894,4.8894,4.8894,4.8894,4.8894,4.8894,4.8894,4.8812,4.8499,4.8483,4.9071,5.1244,5.3017,5.4933,5.7913,5.9832,6.0926,6.119,6.116,6.0833,6.0161,5.9935,6.0317,6.0362,6.0041,5.9558,5.9112,5.9062,5.9257,5.8554,5.8227,5.851,5.8309,5.8052,5.8127,5.8077,5.8328,5.8403,5.8303,5.8303,5.8303,5.8252,5.8219,5.8527,5.7171,5.648,5.631,5.506,5.4594,5.5108,5.2765,5.1326,5.0839,4.9297,4.8578,4.8757,4.8894,4.8832,4.8851,4.8874,4.8894,4.8894,4.8894,4.8894,4.8894,4.8894,4.8894,4.8894,4.8894,4.8894,4.8894,4.8894,4.8894,4.8894,4.8894,4.8894,4.8894,4.8894,4.8894,4.8894,4.8894,4.8894,4.8894,4.8894,4.8894,4.8894,4.8894,4.8894,4.8894,4.8894,4.8894,4.8894,4.8894,4.8894,4.8894,4.8894,4.8894,4.8835,4.8698,4.8659,4.8617,4.864,4.8659,4.8718,4.8734,4.8835,4.8894,4.8894,4.8894,4.8894,4.8894,4.8894,4.8894,4.8894,4.8894,4.8894,4.8894,4.8894,4.8894,4.8894,4.8894,4.8894,4.8894,4.8822,4.9779,5.1417,5.3667,5.5573,5.7609,6.0173,6.1479,6.1366,6.1617,6.1562,6.121,6.0959,6.0814,6.0939,6.0964,6.0663,6.0136,5.9915,5.9759,5.9508,5.9257,5.9006,5.8736,5.9363,5.9433,5.9212,5.9834,6.0286,6.0331,6.0286,6.0217,6.0133,6.0113,5.9484,5.7996,5.7363,5.6273,5.498,5.3147,5.215,5.2175,5.1804,5.055,4.9362,4.8865,4.8757,4.8855,4.8894,4.8894,4.8894,4.8894,4.8894,4.8894,4.8894,4.8894,4.8894,4.8894,4.8894,4.8894,4.8894,4.8894,4.8894,4.8913,4.8913,4.8894,4.8949,4.8952,4.8894,4.8894,4.8894,4.8894,4.8894,4.8894,4.8894,4.8894,4.8894,4.8894,4.8894,4.8894,4.8894,4.8894,4.8894,4.8894,4.8894,4.8894,4.8894,4.8894,4.8894,4.8894,4.8855,4.8835,4.8792,4.8815,4.8835,4.8874,4.8812,4.8894,4.8894,4.8894,4.8894,4.8894,4.8894,4.8894,4.8894,4.8894,4.8894,4.8894,4.8894,4.8894,4.8894,4.8894,4.8894,4.9426,5.0254,5.0416,5.1667,5.3992,5.6291,5.7869,5.9093,6.1573,6.2435,6.1948,6.2174,6.2149,6.1969,6.1893,6.1617,6.1366,6.1366,6.124,6.0738,6.0688,6.0512,6.0286,6.0231,6.0035,5.996,6.0362,6.0487,6.0261,6.0808,6.119,6.114,6.115,6.0827,5.983,5.9749,5.8563,5.671,5.5709,5.4073,5.2097,5.0928,5.0215,4.9973,5.0087,4.9784,4.8705,4.8734,4.8894,4.8894,4.8894,4.8894,4.8894,4.8894,4.8894,4.8894,4.8894,4.8988,4.9066,4.9007,4.8933,4.9144,4.9007,4.8913,4.8933,4.9046,4.9144,4.9203,4.932,4.9261,4.8972,4.8894,4.8894,4.8894,4.8894,4.8894,4.8894,4.8894,4.8894,4.8894,4.8894,4.8894,4.8894,4.8894,4.8894,4.8894,4.8894,4.8894,4.8894,4.8894,4.8894,4.8894,4.8894,4.8894,4.8894,4.8894,4.8894,4.8894,4.8894,4.8894,4.8894,4.8894,4.8894,4.8894,4.8894,4.8894,4.8894,4.8894,4.8894,4.8972,4.8949,4.8913,4.8894,4.8894,4.8917,4.9865,5.1688,5.205,5.3526,5.5813,5.8226,5.9304,5.9793,6.1948,6.2777,6.2752,6.2701,6.2727,6.2676,6.2601,6.225,6.1642,6.1918,6.1768,6.1341,6.1285,6.1185,6.1034,6.1085,6.1135,6.1014,6.116,6.1285,6.1215,6.1366,6.1221,6.088,6.0789,5.9667,5.8138,5.7641,5.6716,5.4795,5.2597,5.11,4.9757,4.9042,4.8862,4.8372,4.8675,4.895,4.8874,4.8894,4.8894,4.8894,4.8894,4.8894,4.8894,4.8894,4.8929,4.8968,4.8988,4.9144,4.9414,4.9359,4.9281,4.957,4.9242,4.9164,4.9183,4.9394,4.9551,4.9629,4.9922,4.975,4.9261,4.9027,4.9031,4.8972,4.8949,4.8949,4.8913,4.8894,4.8894,4.8894,4.8894,4.8894,4.8894,4.8894,4.8894,4.8894,4.8894,4.8894,4.8894,4.8894,4.8894,4.8894,4.8894,4.8894,4.8894,4.8894,4.8894,4.8894,4.8894,4.8894,4.8894,4.8894,4.8894,4.8894,4.8894,4.8894,4.8894,4.8894,4.8894,4.9394,4.9355,4.9027,4.8894,4.8894,4.8894,4.9285,5.0157,5.1846,5.419,5.614,5.8396,6.032,6.1973,6.2491,6.2802,6.2802,6.2802,6.2802,6.2802,6.2802,6.2727,6.2425,6.2551,6.23,6.1943,6.1818,6.1617,6.1341,6.1316,6.119,6.1311,6.1692,6.1803,6.1747,6.178,6.1417,6.0085,5.9663,5.8462,5.6635,5.6078,5.5086,5.2957,5.0735,4.9491,4.9039,4.8894,4.8855,4.8792,4.8832,4.8929,4.8929,4.891,4.8972,4.9011,4.8972,4.8933,4.8933,4.9011,4.9046,4.9336,4.9394,4.957,4.9984,4.9965,4.9926,5.0039,4.9965,4.9828,4.9828,4.9941,5.0039,5.0102,5.018,5.0199,4.9984,4.9906,4.9687,4.9473,4.9375,4.9258,4.8991,4.8949,4.8929,4.8913,4.8913,4.8894,4.8894,4.8894,4.8894,4.8894,4.8894,4.8894,4.8894,4.8894,4.8894,4.8894,4.8894,4.8894,4.8894,4.8894,4.8894,4.8894,4.8894,4.8894,4.8894,4.8894,4.8894,4.8894,4.8894,4.8894,4.8894,4.8894,4.8894,4.9844,4.9805,4.9594,5.0156,5.1111,5.1229,5.247,5.4419,5.5534,5.7369,5.9345,6.0677,6.1639,6.2761,6.2802,6.2802,6.2802,6.2802,6.2802,6.2802,6.2802,6.2802,6.2802,6.2802,6.2626,6.2375,6.2375,6.2174,6.2019,6.1918,6.2019,6.1969,6.2184,6.1568,6.0887,6.1012,5.979,5.8115,5.7671,5.6594,5.4654,5.4191,5.3104,5.1168,4.9564,4.8894,4.8894,4.8894,4.8894,4.8952,4.9086,4.916,4.9183,4.918,4.9281,4.9476,4.9519,4.9496,4.9515,4.9539,4.9633,4.9805,4.9824,5.0078,5.0273,5.0312,5.0293,5.0395,5.0317,5.0199,5.0219,5.041,5.0473,5.0508,5.0664,5.0762,5.0723,5.0473,5.0141,4.9902,4.9844,4.975,4.9555,4.932,4.918,4.9258,4.8968,4.8952,4.8894,4.8894,4.8894,4.8894,4.8894,4.8894,4.8894,4.8894,4.8894,4.8894,4.8894,4.8894,4.8894,4.8894,4.8894,4.8894,4.8894,4.8894,4.8894,4.8894,4.8894,4.8894,4.8894,4.8894,4.8894,4.8894,4.8894,5.0846,5.0826,5.0767,5.2145,5.4166,5.4376,5.6372,5.9694,6.0405,6.068,6.2845,6.2877,6.2748,6.2827,6.2802,6.2802,6.2802,6.2802,6.2802,6.2802,6.2802,6.2802,6.2802,6.2802,6.2802,6.2802,6.2752,6.2701,6.2701,6.2741,6.2229,6.2256,6.2133,6.0684,5.9198,5.867,5.7647,5.5683,5.5333,5.4235,5.2297,5.1825,5.0805,4.961,4.9055,4.8894,4.891,4.8968,4.9027,4.9031,4.9394,4.9605,4.9683,4.9644,4.9766,5.016,5.0082,5.0043,5.0023,5.0102,5.016,5.0258,5.0297,5.0488,5.0703,5.0683,5.0683,5.0742,5.0742,5.0668,5.0551,5.0976,5.1152,5.1211,5.144,5.1558,5.146,5.0918,5.0629,5.0293,5.0254,5.0176,5.0,4.9785,4.9687,4.9547,4.9281,4.9089,4.905,4.8988,4.9066,4.8968,4.8968,4.8913,4.8894,4.8952,4.8952,4.8929,4.891,4.8913,4.8913,4.8894,4.8894,4.8894,4.8894,4.8894,4.8894,4.8894,4.8894,4.8894,4.8894,4.8894,4.8894,4.8894,4.8894,5.3802,5.3738,5.3364,5.4625,5.6708,5.6888,5.7536,5.8313,6.0439,6.0799,6.119,6.2717,6.3254,6.2952,6.2827,6.2802,6.2827,6.2802,6.2802,6.2802,6.2802,6.2802,6.2802,6.2802,6.2741,6.2802,6.2638,6.247,6.2577,6.2741,6.1474,6.0278,5.9877,5.8672,5.7025,5.6291,5.5289,5.3326,5.2947,5.1802,5.0391,4.9793,4.9679,4.8913,4.8952,4.8949,4.9007,4.9219,4.9391,4.9473,4.9844,5.0215,5.0371,5.0234,5.0195,5.0278,5.0336,5.0356,5.0336,5.0278,5.0414,5.0586,5.0703,5.0898,5.1148,5.1245,5.1226,5.1367,5.1582,5.1699,5.1802,5.1973,5.2285,5.2383,5.2299,5.2377,5.2305,5.1953,5.1391,5.0918,5.0762,5.0605,5.0449,5.0273,5.0117,5.0019,4.9805,4.9691,4.9691,4.9555,4.9433,4.9277,4.9105,4.8988,4.8894,4.8972,4.9011,4.9007,4.8988,4.8972,4.8952,4.8913,4.8894,4.8894,4.8894,4.8894,4.8894,4.8894,4.8894,4.8894,4.8894,4.8894,4.8894,4.8894,4.8894,5.6713,5.6691,5.6475,5.7848,5.9848,6.0071,6.0825,6.1989,6.2859,6.3087,6.314,6.3718,6.3822,6.34,6.3254,6.3103,6.2877,6.2802,6.2802,6.2802,6.2802,6.2802,6.2638,6.2679,6.1932,6.1304,6.0969,6.0969,6.0993,6.0952,5.9712,5.8055,5.7542,5.6356,5.4544,5.4036,5.2791,5.1145,5.0575,5.0139,4.9029,4.8913,4.8913,4.8952,4.9125,4.9199,4.9297,4.9629,4.9844,4.9941,5.0273,5.0566,5.0742,5.0859,5.082,5.0796,5.082,5.082,5.082,5.0796,5.0933,5.1069,5.1109,5.1304,5.1597,5.1777,5.1831,5.2031,5.1953,5.2187,5.2344,5.2617,5.2695,5.2715,5.2734,5.2754,5.2695,5.2519,5.207,5.1543,5.1289,5.1089,5.0913,5.0762,5.0566,5.0453,5.0312,5.0297,5.0297,5.0102,4.9863,4.9707,4.9535,4.9398,4.9301,4.932,4.9324,4.9242,4.9183,4.9144,4.8988,4.8988,4.891,4.8894,4.8894,4.8894,4.8894,4.8894,4.8894,4.8894,4.8894,4.8894,4.8894,4.8894,4.8894,5.9088,5.9545,5.9545,6.0971,6.3025,6.3223,6.4211,6.5775,6.5528,6.5231,6.5254,6.4852,6.4375,6.3948,6.3676,6.3404,6.2891,6.2529,6.1985,6.1898,6.1212,6.1225,6.1329,6.1225,6.0215,5.8823,5.863,5.8609,5.8609,5.863,5.7306,5.5769,5.518,5.4014,5.2185,5.169,5.0279,4.9587,4.8894,4.8913,4.9011,4.9109,4.9167,4.9187,4.9473,4.9648,4.9707,5.0078,5.0273,5.041,5.0664,5.0913,5.0972,5.1304,5.1519,5.1538,5.1538,5.1577,5.1655,5.1655,5.1675,5.1758,5.1675,5.187,5.207,5.2226,5.2324,5.2578,5.2622,5.2544,5.2837,5.2949,5.3008,5.3002,5.3022,5.3008,5.3027,5.293,5.2754,5.2305,5.1889,5.1558,5.1323,5.1148,5.0957,5.0918,5.0801,5.0762,5.0723,5.0469,5.0273,5.016,5.0023,4.9883,4.9848,4.9867,4.9809,4.9691,4.9633,4.9555,4.932,4.9086,4.9066,4.9105,4.8894,4.8894,4.8894,4.8894,4.8894,4.8894,4.8894,4.8894,4.8894,4.8894,4.8894,6.009,6.2069,6.2045,6.3466,6.5418,6.5548,6.5721,6.6022,6.6011,6.5735,6.538,6.5233,6.4881,6.417,6.3669,6.3552,6.2609,6.0907,5.9993,5.9971,5.8413,5.7501,5.7028,5.666,5.7048,5.6378,5.6292,5.6247,5.6009,5.6009,5.5071,5.3281,5.2634,5.1735,5.0025,4.9842,4.9193,4.8917,4.8913,4.9086,4.9414,4.9769,4.9926,4.9984,5.0063,5.0098,5.0156,5.0488,5.0723,5.0781,5.1089,5.1304,5.1401,5.1777,5.1953,5.2012,5.2051,5.2168,5.2402,5.2397,5.2377,5.2383,5.2417,5.2534,5.2617,5.2637,5.2676,5.267,5.293,5.3189,5.3345,5.3607,5.3764,5.3803,5.3764,5.3764,5.3769,5.358,5.3365,5.2994,5.2539,5.2031,5.1636,5.1479,5.1323,5.1304,5.1284,5.1226,5.1191,5.0996,5.0586,5.0453,5.0469,5.0371,5.0293,5.0332,5.0273,5.0137,5.0058,4.9961,4.9691,4.9457,4.9453,4.9414,4.9203,4.8995,4.9025,4.9002,4.8936,4.8968,4.9043,4.8988,4.8894,4.8913,4.907,6.0523,6.2602,6.3973,6.5112,6.6047,6.6112,6.6112,6.6112,6.6112,6.5986,6.5785,6.576,6.4747,6.3081,6.2291,6.1066,5.9665,5.8287,5.7671,5.7672,5.6405,5.577,5.6009,5.577,5.5465,5.4014,5.3726,5.2858,5.2813,5.3082,5.2724,5.0848,5.0439,5.0117,4.894,4.8894,4.8917,4.8949,4.9125,4.9316,4.9566,4.9922,5.0219,5.0219,5.0453,5.0508,5.0625,5.0918,5.1128,5.1167,5.1343,5.1538,5.1758,5.2012,5.2251,5.2837,5.2837,5.2773,5.2715,5.2754,5.2773,5.2754,5.2773,5.2793,5.2969,5.313,5.3223,5.3432,5.3379,5.3521,5.3769,5.4141,5.4141,5.4219,5.4369,5.4271,5.4238,5.4238,5.4029,5.3619,5.3189,5.2656,5.2187,5.1992,5.1797,5.1538,5.1558,5.1558,5.1641,5.1704,5.1191,5.0644,5.0762,5.0855,5.0777,5.0781,5.0742,5.0644,5.0527,5.0371,5.0082,4.9926,4.9902,4.9902,4.9809,4.9586,4.933,4.9146,4.9089,4.916,4.9254,4.9258,4.9281,4.9555,4.9691,6.0251,6.1868,6.4975,6.6262,6.6112,6.6112,6.6112,6.6112,6.6112,6.5742,6.509,6.4386,6.2711,6.1089,6.0183,5.9131,5.711,5.6154,5.5644,5.5291,5.463,5.4011,5.3613,5.3681,5.2992,5.1575,5.153,5.0782,5.0279,5.037,5.0621,4.894,4.9262,4.9009,4.894,4.8913,4.891,4.9121,4.9492,4.9746,4.9957,5.0332,5.0488,5.0605,5.0762,5.0976,5.0991,5.1187,5.1358,5.1577,5.1621,5.1836,5.2168,5.2466,5.274,5.3209,5.3365,5.3457,5.334,5.3281,5.3125,5.3183,5.3281,5.3613,5.3502,5.3619,5.3795,5.4121,5.3971,5.3965,5.418,5.459,5.457,5.4629,5.4785,5.4648,5.4531,5.4531,5.4498,5.4147,5.3736,5.332,5.2891,5.2622,5.2285,5.187,5.1792,5.187,5.2031,5.2212,5.1836,5.1269,5.1289,5.1343,5.1167,5.1128,5.1133,5.1094,5.0976,5.0781,5.0449,5.0356,5.0332,5.0332,5.0317,5.0187,4.9914,4.9566,4.9281,4.9371,4.948,4.9625,4.9785,5.0082,5.0199,5.8928,5.9476,6.4663,6.639,6.594,6.6112,6.5961,6.5415,6.5742,6.45,6.2558,6.0655,5.9476,5.8413,5.821,5.7872,5.7421,5.4982,5.4037,5.293,5.1498,5.0716,5.0581,5.048,4.9962,4.9637,4.9855,4.9604,4.9048,4.94,4.9367,4.8913,4.9027,4.8929,4.8968,4.9086,4.916,4.9453,4.9863,5.0293,5.0605,5.0976,5.1187,5.1245,5.1304,5.1338,5.1382,5.1499,5.1694,5.2012,5.2031,5.2246,5.2642,5.2935,5.3273,5.358,5.3873,5.4043,5.418,5.4043,5.4141,5.4473,5.4668,5.4505,5.418,5.4394,5.457,5.4576,5.4401,5.4479,5.4668,5.4922,5.5019,5.498,5.5117,5.5195,5.5039,5.4883,5.4785,5.4596,5.4219,5.3808,5.3516,5.3203,5.2759,5.2319,5.2402,5.25,5.2461,5.2539,5.2383,5.207,5.1973,5.1855,5.1499,5.144,5.1484,5.1406,5.1284,5.1069,5.084,5.0781,5.0762,5.0703,5.0683,5.0594,5.0541,5.0276,4.9996,4.973,4.9749,5.0031,5.0176,5.0332,5.0391,5.7717,5.9042,6.1481,6.301,6.3751,6.2269,6.1621,6.1598,6.1599,6.1218,6.0158,5.918,5.783,5.6614,5.6061,5.5142,5.3667,5.2583,5.196,5.141,5.0369,4.9871,4.9691,4.9633,4.9781,4.9676,4.9672,4.9691,4.9734,4.9418,4.9515,4.9555,4.9394,4.9297,4.9316,4.9453,4.9609,4.9683,5.0176,5.0664,5.0796,5.1167,5.1397,5.1397,5.1758,5.1816,5.1875,5.2109,5.2285,5.2422,5.2461,5.2759,5.3052,5.3326,5.3683,5.4049,5.4297,5.4609,5.4902,5.4726,5.4648,5.4961,5.5176,5.513,5.472,5.4785,5.4707,5.4668,5.4726,5.4785,5.4791,5.5234,5.554,5.539,5.543,5.5625,5.5566,5.5351,5.5117,5.4922,5.4609,5.4258,5.4004,5.3769,5.3281,5.2832,5.2969,5.3066,5.3008,5.2949,5.2812,5.2637,5.25,5.2402,5.209,5.1953,5.1836,5.1694,5.1577,5.1343,5.1128,5.1187,5.1148,5.1089,5.1016,5.0919,5.0895,5.0904,5.0709,5.0302,5.0349,5.062,5.0703,5.0664,5.0683,5.6451,5.7707,5.8086,5.9473,6.1016,5.9545,5.8814,5.8814,5.8951,5.8263,5.7686,5.6991,5.5727,5.4331,5.3907,5.3181,5.178,5.1178,5.0823,5.0579,5.049,5.0317,5.0238,5.016,5.0082,5.0199,5.0199,5.016,5.0082,4.9844,4.9883,5.0004,5.0019,4.9879,4.9785,4.998,5.0078,5.0113,5.0386,5.0918,5.0991,5.1245,5.1377,5.1479,5.1816,5.2012,5.2129,5.2363,5.2695,5.2832,5.2974,5.3144,5.3424,5.3697,5.401,5.442,5.4746,5.4941,5.5254,5.5312,5.5137,5.5254,5.5644,5.5566,5.5332,5.5137,5.5195,5.5137,5.5098,5.5039,5.5084,5.5703,5.5872,5.5723,5.6061,5.6211,5.5996,5.5781,5.5508,5.5273,5.4961,5.4707,5.4336,5.4082,5.3744,5.3373,5.3432,5.3516,5.3432,5.3398,5.3301,5.3105,5.291,5.2812,5.2695,5.2456,5.2221,5.1933,5.1797,5.1577,5.144,5.1455,5.1416,5.1284,5.1226,5.1226,5.1206,5.1187,5.1031,5.0813,5.091,5.103,5.1094,5.1074,5.1089,5.5089,5.5165,5.5186,5.6593,5.8516,5.8745,5.847,5.7986,5.8079,5.7037,5.5021,5.3132,5.2181,5.1818,5.2085,5.1711,5.1517,5.1304,5.1128,5.0859,5.0781,5.0566,5.0434,5.0375,5.0473,5.0234,5.0332,5.0434,5.0317,5.0238,5.0258,5.0414,5.0547,5.0508,5.0238,5.0219,5.0391,5.0703,5.0781,5.1074,5.1323,5.144,5.1421,5.1714,5.1992,5.2207,5.2447,5.2754,5.3086,5.3326,5.3384,5.3555,5.3822,5.3984,5.4277,5.4713,5.4765,5.5156,5.5774,5.5833,5.5716,5.5605,5.6015,5.6074,5.5618,5.556,5.5716,5.5579,5.5677,5.5755,5.597,5.6191,5.6106,5.6191,5.6484,5.657,5.6308,5.6172,5.5898,5.5605,5.539,5.5137,5.4707,5.4355,5.4134,5.3959,5.3978,5.392,5.3803,5.3744,5.3652,5.3555,5.334,5.3262,5.3119,5.286,5.2587,5.2305,5.2056,5.1855,5.1694,5.1655,5.1577,5.1455,5.1499,5.1543,5.1479,5.1421,5.1426,5.1475,5.1265,5.1304,5.1382,5.1382,5.1343,5.2648,5.2648,5.2648,5.3108,5.3852,5.3876,5.39,5.39,5.3828,5.3419,5.2672,5.1576,5.1377,5.1397,5.1397,5.1397,5.1397,5.1377,5.1245,5.1206,5.1167,5.1128,5.0991,5.0918,5.0957,5.0972,5.0991,5.0913,5.1011,5.0742,5.082,5.0972,5.0991,5.0933,5.0781,5.0781,5.0991,5.0874,5.105,5.1406,5.1758,5.1621,5.1636,5.2148,5.2363,5.2578,5.2876,5.3242,5.3529,5.3711,5.375,5.3822,5.4056,5.4173,5.4629,5.5058,5.5273,5.5735,5.6184,5.6348,5.6308,5.6289,5.6335,5.6452,5.6211,5.593,5.593,5.593,5.5989,5.597,5.597,5.6328,5.6387,5.6426,5.6582,5.6609,5.6491,5.6426,5.6269,5.593,5.5677,5.5462,5.5137,5.4746,5.4466,5.4271,5.4213,5.4056,5.392,5.392,5.3861,5.3861,5.3789,5.3705,5.3568,5.3284,5.3094,5.2876,5.2505,5.2192,5.2031,5.1909,5.1914,5.1914,5.1875,5.1855,5.1836,5.1855,5.2129,5.2143,5.185,5.1558,5.1499,5.146,5.1377,5.1397,5.1397,5.1397,5.1397,5.1397,5.1397,5.1397,5.1397,5.1397,5.1397,5.1426,5.1401,5.1397,5.1397,5.1397,5.1397,5.1397,5.1397,5.1397,5.1397,5.1377,5.1319,5.1338,5.1397,5.1304,5.1397,5.1397,5.1358,5.1323,5.1128,5.1148,5.1284,5.1377,5.1226,5.1128,5.1206,5.1245,5.1128,5.1304,5.146,5.1616,5.1636,5.1777,5.2266,5.2617,5.2871,5.3365,5.373,5.3972,5.3972,5.3972,5.3972,5.4134,5.4453,5.4863,5.5293,5.5859,5.623,5.6484,5.6562,5.653,5.655,5.6609,5.6609,5.6589,5.6301,5.634,5.6321,5.6223,5.6406,5.6562,5.6875,5.6777,5.6816,5.6777,5.6797,5.6628,5.6562,5.6504,5.6211,5.6094,5.5859,5.556,5.5195,5.4844,5.4629,5.4453,5.4258,5.4056,5.4017,5.3972,5.3998,5.3978,5.39,5.3836,5.372,5.3537,5.3404,5.3038,5.2603,5.2422,5.2319,5.2324,5.229,5.2173,5.2114,5.2173,5.2285,5.2519,5.2519,5.226,5.1968,5.1694,5.1636,5.1636,5.1397,5.1397,5.1397,5.1397,5.1397,5.1397,5.1397,5.1397,5.1397,5.1397,5.144,5.1416,5.1436,5.146,5.144,5.1397,5.1397,5.1397,5.1397,5.1397,5.1397,5.1397,5.1397,5.1397,5.1397,5.1397,5.1397,5.1377,5.1401,5.1323,5.1343,5.1401,5.1377,5.1343,5.1343,5.144,5.1421,5.1382,5.1479,5.1655,5.1792,5.1694,5.2051,5.248,5.2793,5.3066,5.3457,5.3828,5.3959,5.3972,5.3972,5.3972,5.4134,5.4453,5.4883,5.5449,5.6191,5.6472,5.6589,5.6609,5.6706,5.6699,5.668,5.6648,5.6687,5.6719,5.6894,5.6953,5.6933,5.7293,5.7605,5.7402,5.7226,5.7207,5.7121,5.6992,5.6738,5.6667,5.6609,5.6511,5.6511,5.6289,5.5976,5.5605,5.5234,5.5019,5.4785,5.4453,5.4232,5.4017,5.4017,5.3972,5.3998,5.3998,5.3947,5.3876,5.383,5.3658,5.3424,5.3072,5.291,5.2793,5.2754,5.2681,5.2407,5.2368,5.2564,5.2695,5.2851,5.2768,5.2807,5.2363,5.2065,5.209,5.207,5.1397,5.1397,5.1397,5.1397,5.1397,5.1397,5.1397,5.1397,5.1397,5.1558,5.1875,5.1538,5.1577,5.188,5.1558,5.144,5.1397,5.1397,5.1397,5.1397,5.1397,5.1397,5.1397,5.1397,5.1397,5.1421,5.144,5.1479,5.146,5.144,5.1416,5.1377,5.1397,5.1397,5.1538,5.1738,5.166,5.1636,5.1753,5.1953,5.2168,5.2207,5.2637,5.3061,5.3086,5.3398,5.373,5.3881,5.3972,5.3972,5.3972,5.3998,5.4037,5.4707,5.5371,5.6133,5.6511,5.6609,5.6609,5.6609,5.6726,5.6953,5.7031,5.7031,5.7109,5.7265,5.7507,5.7519,5.748,5.7722,5.7918,5.7832,5.7715,5.7656,5.7519,5.7207,5.6933,5.6726,5.6667,5.6609,5.6609,5.655,5.625,5.5989,5.5638,5.5449,5.5156,5.4805,5.4433,5.4193,5.4017,5.3998,5.3972,5.3972,5.3972,5.3947,5.3914,5.3867,5.3633,5.3541,5.3496,5.3398,5.3267,5.3111,5.2935,5.2955,5.3116,5.3228,5.3315,5.3549,5.3549,5.2963,5.2519,5.2519,5.2461,5.1397,5.1397,5.1397,5.1397,5.1397,5.1397,5.1397,5.144,5.1601,5.1777,5.1797,5.1738,5.1738,5.1719,5.1519,5.1397,5.1397,5.1397,5.1397,5.1397,5.1397,5.1397,5.1397,5.144,5.1538,5.1577,5.1719,5.1836,5.1792,5.1694,5.1655,5.1397,5.1397,5.1538,5.1694,5.1914,5.2031,5.207,5.2187,5.2363,5.25,5.2676,5.3183,5.3594,5.3482,5.3672,5.3939,5.3998,5.3998,5.3972,5.3972,5.4115,5.433,5.5098,5.5781,5.6426,5.6589,5.6609,5.6628,5.6797,5.6973,5.7226,5.7492,5.7707,5.7715,5.7793,5.7949,5.8027,5.7976,5.7976,5.8152,5.8289,5.8211,5.8152,5.7773,5.7422,5.7109,5.6816,5.6726,5.6628,5.6609,5.6609,5.6445,5.6269,5.6048,5.5774,5.5547,5.5293,5.4805,5.431,5.4115,5.3972,5.3972,5.3972,5.3972,5.3972,5.3978,5.3939,5.3867,5.3808,5.392,5.3822,5.3594,5.3541,5.3502,5.3482,5.3424,5.3691,5.3861,5.3972,5.3959,5.3471,5.3047,5.2974,5.2876,5.1397,5.1397,5.1397,5.144,5.146,5.1479,5.1519,5.1558,5.2051,5.1973,5.1714,5.1933,5.1894,5.1792,5.1616,5.1479,5.1416,5.1397,5.1397,5.1397,5.1397,5.1397,5.1421,5.1479,5.1738,5.1973,5.2148,5.2226,5.2461,5.2324,5.1953,5.1494,5.1597,5.1811,5.2109,5.2329,5.2422,5.25,5.2676,5.2851,5.2603,5.2656,5.2988,5.3424,5.3541,5.3658,5.39,5.4017,5.4017,5.4037,5.4056,5.4213,5.4824,5.5384,5.6055,5.6406,5.6589,5.6706,5.6784,5.6953,5.7226,5.7578,5.8019,5.8293,5.8359,5.8301,5.8437,5.8496,5.8465,5.8524,5.868,5.8652,5.8594,5.8476,5.8203,5.791,5.7637,5.7226,5.6777,5.6706,5.6609,5.6609,5.6589,5.6387,5.6328,5.6094,5.5813,5.5625,5.5254,5.4622,5.431,5.4115,5.4017,5.4017,5.3972,5.3972,5.3972,5.3978,5.3939,5.3939,5.3959,5.392,5.3861,5.3808,5.373,5.3697,5.3697,5.3881,5.3972,5.3972,5.3939,5.3828,5.3613,5.3443,5.3248,5.1397,5.1397,5.1397,5.1597,5.1914,5.1958,5.2109,5.2441,5.2896,5.2798,5.2422,5.2207,5.2207,5.2285,5.1987,5.1772,5.1499,5.1499,5.1397,5.1397,5.1397,5.146,5.1499,5.1738,5.1973,5.2148,5.2363,5.2631,5.2695,5.2617,5.2519,5.2358,5.2299,5.2383,5.2558,5.2779,5.2955,5.2905,5.3281,5.334,5.315,5.3418,5.3783,5.3822,5.3842,5.3822,5.3972,5.3972,5.4213,5.4414,5.416,5.4473,5.5117,5.5638,5.6087,5.6484,5.6609,5.6745,5.6933,5.7168,5.748,5.7941,5.839,5.8664,5.8848,5.8867,5.8867,5.8906,5.8965,5.9023,5.909,5.9023,5.8965,5.8789,5.8594,5.8359,5.8097,5.7539,5.6933,5.6738,5.6648,5.6609,5.6609,5.6589,5.6523,5.6328,5.6028,5.5774,5.554,5.5091,5.4687,5.4453,5.4095,5.4037,5.4017,5.3972,5.3972,5.3972,5.3978,5.3978,5.3972,5.3959,5.392,5.3939,5.3926,5.3848,5.3828,5.392,5.3972,5.3972,5.3978,5.3881,5.3881,5.3744,5.3594,5.1397,5.1397,5.1397,5.168,5.2031,5.209,5.2324,5.2715,5.2969,5.3072,5.3013,5.2798,5.2695,5.2754,5.2441,5.2129,5.1753,5.1738,5.1577,5.1479,5.1499,5.1577,5.1758,5.2012,5.2407,5.2642,5.3047,5.3236,5.3047,5.2969,5.2969,5.2793,5.2754,5.2832,5.2988,5.3267,5.3384,5.3315,5.3803,5.3828,5.3633,5.3861,5.3972,5.3972,5.3972,5.3972,5.3972,5.4017,5.4297,5.4707,5.4785,5.5052,5.5579,5.5989,5.6328,5.653,5.6648,5.6726,5.6973,5.7363,5.7734,5.8203,5.875,5.9004,5.9043,5.9071,5.9071,5.9082,5.9082,5.9168,5.9168,5.9101,5.9101,5.9004,5.8633,5.8273,5.7863,5.7336,5.6914,5.6687,5.6609,5.6609,5.6609,5.6609,5.657,5.657,5.6269,5.6028,5.5794,5.5481,5.5098,5.4707,5.433,5.4076,5.3992,5.3972,5.3972,5.3972,5.3972,5.3972,5.3972,5.3972,5.3998,5.3998,5.3978,5.3978,5.3978,5.3972,5.3972,5.3972,5.3972,5.3978,5.3972,5.3972,5.3842,5.1397,5.1397,5.1397,5.1694,5.2134,5.2114,5.2402,5.2826,5.2851,5.3091,5.3443,5.3463,5.3183,5.291,5.2773,5.248,5.2266,5.2187,5.1909,5.1655,5.1655,5.1816,5.2012,5.229,5.2818,5.3262,5.3666,5.3633,5.3482,5.3418,5.3281,5.293,5.2949,5.3066,5.3365,5.3521,5.3599,5.3744,5.3978,5.3998,5.3978,5.3972,5.3972,5.3972,5.3972,5.3972,5.3972,5.4076,5.4277,5.4785,5.5312,5.5618,5.5891,5.6204,5.6426,5.6628,5.6745,5.6824,5.7058,5.7644,5.7937,5.8309,5.8895,5.9168,5.9207,5.9227,5.9227,5.9227,5.9227,5.9227,5.9227,5.9227,5.9227,5.9168,5.8711,5.8312,5.7824,5.7336,5.7031,5.6745,5.6648,5.6648,5.6609,5.6609,5.6609,5.6609,5.653,5.6308,5.6074,5.5677,5.5306,5.4883,5.4447,5.4232,5.4037,5.3972,5.3972,5.3972,5.3972,5.3972,5.3972,5.3972,5.3972,5.3972,5.3972,5.3972,5.3972,5.3972,5.3972,5.3972,5.3972,5.3972,5.3972,5.3972,5.3972,5.1397,5.1397,5.1397,5.185,5.2461,5.2226,5.2715,5.3588,5.3359,5.3496,5.3769,5.3822,5.3652,5.3267,5.3292,5.2994,5.2539,5.2519,5.2305,5.2031,5.2143,5.2207,5.2407,5.2837,5.3379,5.375,5.3939,5.39,5.3769,5.3808,5.3822,5.3666,5.3685,5.3744,5.3783,5.3861,5.3861,5.3972,5.3972,5.3972,5.3972,5.3972,5.3972,5.3972,5.3972,5.3972,5.3972,5.3972,5.4297,5.4785,5.5469,5.5833,5.6087,5.6348,5.655,5.6706,5.6797,5.7136,5.7468,5.7898,5.8164,5.8633,5.9062,5.9129,5.9168,5.9227,5.9227,5.9227,5.9227,5.9227,5.9227,5.9227,5.9207,5.916,5.8906,5.8613,5.8215,5.7793,5.7383,5.7058,5.6745,5.6687,5.6609,5.6609,5.6609,5.6609,5.6609,5.6406,5.625,5.5898,5.554,5.5111,5.4662,5.4271,5.3998,5.3998,5.3972,5.3972,5.3972,5.3972,5.3972,5.3972,5.3972,5.3972,5.3972,5.3972,5.3972,5.3972,5.3972,5.3972,5.3972,5.3972,5.3972,5.3972,5.3972]},{"header":{"parameterUnit":"m.s-1","parameterCategory":1,"la1":31.0,"la2":29.5877,"lo1":-88.7671,"lo2":-86.6584,"dy":0.0162,"dx":0.0185,"nx":115,"ny":88,"refTime":"2024-10-06T18:00:00:Z","depth":0,"parameterNumber":3,"parameterNumberName":"V-component_of_WINDS"},"data":[0.0,0.0,0.0,0.0,0.0,0.0,0.0,0.0,0.0,0.0,0.0,0.0,0.0,0.0,0.0,0.0,0.0,0.0,0.0,0.0,0.0,0.0,0.0,0.0,0.0,0.0,0.0,0.0,0.0,0.0,0.0,0.0,0.0,0.0,0.0,0.0,0.0,0.0,0.0,0.0,0.0,0.0,0.0,0.0,0.0,0.0,0.0,0.0,0.0,0.0,0.0,0.0,0.0,0.0,0.0,0.0,0.0,0.0,0.0,0.0,0.0,0.0,0.0,0.0,0.0,0.0,0.0,0.0,0.0,0.0,0.0,0.0,0.0,0.0,0.0,0.0,0.0,0.0,0.0,0.0,0.0,0.0,0.0,0.0,0.0,0.0,0.0,0.0,0.0,0.0,0.0,0.0,0.0,0.0,0.0,0.0,0.0,0.0,0.0,0.0,0.0,0.0,0.0,0.0,0.0,0.0,0.0,0.0,0.0,0.0,0.0,0.0,0.0,0.0,0.0,0.0,0.0,0.0,0.0,0.0,0.0,0.0,0.0,0.0,0.0,0.0,0.0,0.0,0.0,0.0,0.0,0.0,0.0,0.0,0.0,0.0,0.0,0.0,0.0,0.0,0.0,0.0,0.0,0.0,0.0,0.0,0.0,0.0,0.0,0.0,0.0,0.0,0.0,0.0,0.0,0.0,0.0,0.0,0.0,0.0,0.0,0.0,0.0,0.0,0.0,0.0,0.0,0.0,0.0,0.0,0.0,0.0,0.0,0.0,0.0,0.0,0.0,0.0,0.0,0.0,0.0,0.0,0.0,0.0,0.0,0.0,0.0,0.0,0.0,0.0,0.0,0.0,0.0,0.0,0.0,0.0,0.0,0.0,0.0,0.0,0.0,0.0,0.0,0.0,0.0,0.0,0.0,0.0,0.0,0.0,0.0,0.0,0.0,0.0,0.0,0.0,0.0,0.0,0.0,0.0,0.0,0.0,0.0,0.0,0.0,0.0,0.0,0.0,0.0,0.0,0.0,0.0,0.0,0.0,0.0,0.0,0.0,0.0,0.0,0.0,0.0,0.0,0.0,0.0,0.0,0.0,0.0,0.0,0.0,0.0,0.0,0.0,0.0,0.0,0.0,0.0,0.0,0.0,0.0,0.0,0.0,0.0,0.0,0.0,0.0,0.0,0.0,0.0,0.0,0.0,0.0,0.0,0.0,0.0,0.0,0.0,0.0,0.0,0.0,0.0,0.0,0.0,0.0,0.0,0.0,0.0,0.0,0.0,0.0,0.0,0.0,0.0,0.0,0.0,0.0,0.0,0.0,0.0,0.0,0.0,0.0,0.0,0.0,0.0,0.0,0.0,0.0,0.0,0.0,0.0,0.0,0.0,0.0,0.0,0.0,0.0,0.0,0.0,0.0,0.0,0.0,0.0,0.0,0.0,0.0,0.0,0.0,0.0,0.0,0.0,0.0,0.0,0.0,0.0,0.0,0.0,0.0,0.0,0.0,0.0,0.0,0.0,0.0,0.0,0.0,0.0,0.0,0.0,0.0,0.0,0.0,0.0,0.0,0.0,0.0,0.0,0.0,0.0,0.0,0.0,0.0,0.0,0.0,0.0,0.0,0.0,0.0,0.0,0.0,0.0,0.0,0.0,0.0,0.0,0.0,0.0,0.0,0.0,0.0,0.0,0.0,0.0,0.0,0.0,0.0,0.0,0.0,0.0,0.0,0.0,0.0,0.0,0.0,0.0,0.0,0.0,0.0,0.0,0.0,0.0,0.0,0.0,0.0,0.0,0.0,0.0,0.0,0.0,0.0,0.0,0.0,0.0,0.0,0.0,0.0,0.0,0.0,0.0,0.0,0.0,0.0,0.0,0.0,0.0,0.0,0.0,0.0,0.0,0.0,0.0,0.0,0.0,0.0,0.0,0.0,0.0,0.0,0.0,0.0,0.0,0.0,0.0,0.0,0.0,0.0,0.0,0.0,0.0,0.0,0.0,0.0,0.0,0.0,0.0,0.0,0.0,0.0,0.0,0.0,0.0,0.0,0.0,0.0,0.0,0.0,0.0,0.0,0.0,0.0,0.0,0.0,0.0,0.0,0.0,0.0,0.0,0.0,0.0,0.0,0.0,0.0,0.0,0.0,0.0,0.0,0.0,0.0,0.0,0.0,0.0,0.0,0.0,0.0,0.0,0.0,0.0,0.0,0.0,0.0,0.0,0.0,0.0,0.0,0.0,0.0,0.0,0.0,0.0,0.0,0.0,0.0,0.0,0.0,0.0,0.0,0.0,0.0,0.0,0.0,0.0,0.0,0.0,0.0,0.0,0.0,0.0,0.0,0.0,0.0,0.0,0.0,0.0,0.0,0.0,0.0,0.0,0.0,0.0,0.0,0.0,0.0,0.0,0.0,0.0,0.0,0.0,0.0,0.0,0.0,0.0,0.0,0.0,0.0,0.0,0.0,0.0,0.0,0.0,0.0,0.0,0.0,0.0,0.0,0.0,0.0,0.0,0.0,0.0,0.0,0.0,0.0,0.0,0.0,0.0,0.0,0.0,0.0,0.0,0.0,0.0,0.0,0.0,0.0,0.0,0.0,0.0,0.0,0.0,0.0,0.0,0.0,0.0,0.0,0.0,0.0,0.0,0.0,0.0,0.0,0.0,0.0,0.0,0.0,0.0,0.0,0.0,0.0,0.0,0.0,0.0,0.0,0.0,0.0,0.0,0.0,0.0,0.0,0.0,0.0,0.0,0.0,0.0,0.0,0.0,0.0,0.0,0.0,0.0,0.0,0.0,0.0,0.0,0.0,0.0,0.0,0.0,0.0,0.0,0.0,0.0,0.0,0.0,0.0,0.0,0.0,0.0,0.0,0.0,0.0,0.0,0.0,0.0,0.0,0.0,0.0,0.0,0.0,0.0,0.0,0.0,0.0,0.0,0.0,0.0,0.0,0.0,0.0,0.0,0.0,0.0,0.0,0.0,0.0,0.0,0.0,0.0,0.0,0.0,0.0,0.0,0.0,0.0,0.0,0.0,0.0,0.0,0.0,0.0,0.0,0.0,0.0,0.0,0.0,0.0,0.0,0.0,0.0,0.0,0.0,0.0,0.0,0.0,0.0,0.0,0.0,0.0,0.0,0.0,0.0,0.0,0.0,0.0,0.0,0.0,0.0,0.0,0.0,0.0,0.0,0.0,0.0,0.0,0.0,0.0,0.0,0.0,0.0,0.0,0.0,0.0,0.0,0.0,0.0,0.0,0.0,0.0,0.0,0.0,0.0,0.0,0.0,0.0,0.0,0.0,0.0,0.0,0.0,0.0,0.0,0.0,0.0,0.0,0.0,0.0,0.0,0.0,0.0,0.0,0.0,0.0,0.0,0.0,0.0,0.0,0.0,0.0,0.0,0.0,0.0,0.0,0.0,0.0,0.0,0.0,0.0,0.0,0.0,0.0,0.0,0.0,0.0,0.0,0.0,0.0,0.0,0.0,0.0,0.0,0.0,0.0,0.0,0.0,0.0,0.0,0.0,0.0,0.0,0.0,0.0,0.0,0.0,0.0,0.0,0.0,0.0,0.0,0.0,0.0,0.0,0.0,0.0,0.0,0.0,0.0,0.0,0.0,0.0,0.0,0.0,0.0,0.0,0.0,0.0,0.0,0.0,0.0,0.0,0.0,0.0,0.0,0.0,0.0,0.0,0.0,0.0,0.0,0.0,0.0,0.0,0.0,0.0,0.0,0.0,0.0,0.0,0.0,0.0,0.0,0.0,0.0,0.0,0.0,0.0,0.0,0.0,0.0,0.0,0.0,0.0,0.0,0.0,0.0,0.0,0.0,0.0,0.0,0.0,0.0,0.0,0.0,0.0,0.0,0.0,0.0,0.0,0.0,0.0,0.0,0.0,0.0,0.0,0.0,0.0,0.0,0.0,0.0,0.0,0.0,0.0,0.0,0.0,0.0,0.0,0.0,0.0,0.0,0.0,0.0,0.0,0.0,0.0,0.0,0.0,0.0,0.0,0.0,0.0,0.0,0.0,0.0,0.0,0.0,0.0,0.0,0.0,0.0,0.0,0.0,0.0,0.0,0.0,0.0,0.0,0.0,0.0,0.0,0.0,0.0,0.0,0.0,0.0,0.0,0.0,0.0,0.0,0.0,0.0,0.0,0.0,0.0,0.0,0.0,0.0,0.0,0.0,0.0,0.0,0.0,0.0,0.0,0.0,0.0,0.0,0.0,0.0,0.0,0.0,0.0,0.0,0.0,0.0,0.0,0.0,0.0,0.0,0.0,1.1671,0.0,0.0,0.0,0.0,0.0,0.0,0.0,0.0,0.0,0.0,0.0,0.0,0.0,0.0,0.0,0.0,0.0,0.0,0.0,0.0,0.0,0.0,0.0,0.0,0.0,0.0,0.0,0.0,0.0,0.0,0.0,0.0,0.0,0.0,0.0,0.0,0.0,0.0,0.0,0.0,0.0,0.0,0.0,0.0,0.0,0.0,0.0,0.0,0.0,0.0,0.0,0.0,0.0,0.0,0.0,0.0,0.0,0.0,0.0,0.0,0.0,0.0,0.0,0.0,0.0,0.0,0.0,0.0,0.0,0.0,0.0,0.0,0.0,0.0,0.0,0.0,0.0,0.0,0.0,0.0,0.0,0.0,0.0,0.0,0.0,0.0,0.0,0.0,0.0,0.0,0.0,0.0,0.0,0.0,0.0,0.0,0.0,0.0,0.0,0.0,0.0,0.0,0.0,0.0,0.0,0.0,0.0,0.0,0.0,0.0,1.354,1.254,1.2412,1.2184,1.1875,0.0,0.0,0.0,0.0,0.0,0.0,0.0,0.0,0.0,0.0,0.0,0.0,0.0,0.0,0.0,0.0,0.0,0.0,0.0,0.0,0.0,0.0,0.0,0.0,0.0,0.0,0.0,0.0,0.0,0.0,0.0,0.0,0.0,0.0,0.0,0.0,0.0,0.0,0.0,0.0,0.0,0.0,0.0,0.0,0.0,0.0,0.0,0.0,0.0,0.0,0.0,0.0,0.0,0.0,0.0,0.0,0.0,0.0,0.0,0.0,0.0,0.0,0.0,0.0,0.0,0.0,0.0,0.0,0.0,0.0,0.0,0.0,0.0,0.0,0.0,0.0,0.0,0.0,0.0,0.0,0.0,0.0,0.0,0.0,0.0,0.0,0.0,0.0,0.0,0.0,0.0,0.0,0.0,0.0,0.0,0.0,0.0,0.0,0.0,0.0,0.0,0.0,0.0,0.0,0.0,0.0,0.0,0.0,0.0,0.0,0.0,0.0,1.3608,1.3566,1.3183,0.0,0.0,0.0,0.0,0.0,0.0,0.0,0.0,0.0,0.0,0.0,0.0,0.0,0.0,0.0,0.0,0.0,0.0,0.0,0.0,0.0,0.0,0.0,0.0,0.0,0.0,0.0,0.0,0.0,0.0,0.0,0.0,0.0,0.0,0.0,0.0,0.0,0.0,0.0,0.0,0.0,0.0,0.0,0.0,0.0,0.0,0.0,0.0,0.0,0.0,0.0,0.0,0.0,0.0,0.0,0.0,0.0,0.0,0.0,0.0,0.0,0.0,0.0,0.0,0.0,0.0,0.0,0.0,0.0,0.0,0.0,0.0,0.0,0.0,0.0,0.0,0.0,0.0,0.0,0.0,0.0,0.0,0.0,0.0,0.0,0.0,0.0,0.0,0.0,0.0,0.0,0.0,0.0,0.0,0.0,0.0,0.0,0.0,0.0,0.0,0.0,0.0,0.0,0.0,0.0,0.0,0.0,0.0,0.0,0.0,1.4296,1.5729,1.578,0.0,1.6925,0.0,0.0,0.0,0.0,0.0,0.0,0.0,0.0,0.0,0.0,0.0,0.0,0.0,0.0,0.0,0.0,0.0,0.0,0.0,0.0,0.0,0.0,0.0,0.0,0.0,0.0,0.0,0.0,0.0,0.0,0.0,0.0,0.0,0.0,0.0,0.0,0.0,0.0,0.0,0.0,0.0,0.0,0.0,0.0,0.0,0.0,0.0,0.0,0.0,0.0,0.0,0.0,0.0,0.0,0.0,0.0,0.0,0.0,0.0,0.0,0.0,0.0,0.0,0.0,0.0,0.0,0.0,0.0,0.0,0.0,0.0,0.0,0.0,0.0,0.0,0.0,0.0,0.0,0.0,0.0,0.0,0.0,0.0,0.0,0.0,0.0,0.0,0.0,0.0,0.0,0.0,0.0,0.0,0.0,0.0,0.0,0.0,0.0,0.0,0.0,0.0,0.0,0.0,0.0,0.0,0.0,0.0,0.0,0.0,0.0,1.5256,1.5664,1.6055,1.6599,0.0,0.0,0.0,0.0,0.0,0.0,0.0,0.0,0.0,0.0,0.0,0.0,0.0,0.0,0.0,0.0,0.0,0.0,0.0,0.0,0.0,0.0,0.0,0.0,0.0,0.0,0.0,0.0,0.0,0.0,0.0,0.0,0.0,0.0,0.0,0.0,0.0,0.0,0.0,0.0,0.0,0.0,0.0,0.0,0.0,0.0,0.0,0.0,0.0,0.0,0.0,0.0,0.0,0.0,0.0,0.0,0.0,0.0,0.0,0.0,0.0,0.0,0.0,0.0,0.0,0.0,0.0,0.0,0.0,0.0,0.0,0.0,0.0,0.0,0.0,0.0,0.0,0.0,0.0,0.0,0.0,0.0,0.0,0.0,0.0,0.0,0.0,0.0,0.0,0.0,0.0,0.0,0.0,0.0,0.0,0.0,0.0,0.0,0.0,0.0,0.0,0.0,0.0,0.0,0.0,0.0,0.0,0.0,0.0,0.0,1.5515,1.5965,1.6151,1.7176,1.7615,1.7324,0.0,0.0,0.0,0.0,0.0,0.0,0.0,0.0,0.0,0.0,0.0,0.0,0.0,0.0,0.0,0.0,0.0,0.0,0.0,0.0,0.0,0.0,0.0,0.0,0.0,0.0,0.0,0.0,0.0,0.0,0.0,0.0,0.0,0.0,0.0,0.0,0.0,0.0,0.0,0.0,0.0,0.0,0.0,0.0,0.0,0.0,0.0,0.0,0.0,0.0,0.0,0.0,0.0,0.0,0.0,0.0,0.0,0.0,0.0,0.0,0.0,0.0,0.0,0.0,0.0,0.0,0.0,0.0,0.0,0.0,0.0,0.0,0.0,0.0,0.0,0.0,0.0,0.0,0.0,0.0,0.0,0.0,0.0,0.0,0.0,0.0,0.0,0.0,0.0,0.0,0.0,0.0,0.0,0.0,0.0,0.0,0.0,0.0,0.0,0.0,0.0,0.0,0.0,0.0,0.0,0.0,0.0,0.0,1.7511,1.6215,1.6223,1.7891,1.9951,1.9901,0.0,0.0,0.0,0.0,0.0,0.0,0.0,0.0,0.0,0.0,0.0,0.0,0.0,0.0,0.0,0.0,0.0,0.0,0.0,0.0,0.0,0.0,0.0,0.0,0.0,0.0,0.0,0.0,0.0,0.0,0.0,0.0,0.0,0.0,0.0,0.0,0.0,0.0,0.0,0.0,0.0,0.0,0.0,0.0,0.0,0.0,0.0,0.0,0.0,0.0,0.0,0.0,0.0,0.0,0.0,0.0,0.0,0.0,0.0,0.0,0.0,0.0,0.0,0.0,0.0,0.0,0.0,0.0,0.0,0.0,0.0,0.0,0.0,0.0,0.0,0.0,0.0,0.0,0.0,0.0,0.0,0.0,0.0,0.0,0.0,0.0,0.0,0.0,0.0,0.0,0.0,0.0,0.0,0.0,0.0,0.0,0.0,0.0,0.0,0.0,0.0,0.0,0.0,0.0,0.0,0.0,0.0,0.0,0.0,1.4682,1.5149,1.7105,2.0474,1.9449,1.9109,0.0,0.0,0.0,0.0,0.0,0.0,0.0,0.0,0.0,0.0,0.0,0.0,0.0,0.0,0.0,0.0,0.0,0.0,0.0,0.0,0.0,0.0,0.0,0.0,0.0,0.0,0.0,0.0,0.0,0.0,0.0,0.0,0.0,0.0,0.0,0.0,0.0,0.0,0.0,0.0,0.0,0.0,0.0,0.0,0.0,0.0,0.0,0.0,0.0,0.0,0.0,0.0,0.0,0.0,0.0,0.0,0.0,0.0,0.0,0.0,0.0,0.0,0.0,0.0,0.0,0.0,0.0,0.0,0.0,0.0,0.0,0.0,0.0,0.0,0.0,0.0,0.0,0.0,0.0,0.0,0.0,0.0,0.0,0.0,0.0,0.0,0.0,0.0,0.0,0.0,0.0,0.0,0.0,0.0,0.0,0.0,0.0,0.0,0.0,0.0,0.0,0.0,0.0,0.0,0.0,0.0,0.0,0.0,0.0,1.4538,0.0,1.8393,2.088,1.9342,1.8741,0.0,0.0,0.0,0.0,0.0,0.0,0.0,0.0,0.0,0.0,0.0,0.0,0.0,0.0,0.0,0.0,0.0,0.0,0.0,0.0,0.0,0.0,0.0,0.0,0.0,0.0,0.0,0.0,0.0,0.0,0.0,0.0,0.0,0.0,0.0,0.0,0.0,0.0,0.0,0.0,0.0,0.0,0.0,0.0,0.0,0.0,0.0,0.0,0.0,0.0,0.0,0.0,0.0,0.0,0.0,0.0,0.0,0.0,0.0,0.0,0.0,0.0,0.0,0.0,0.0,0.0,0.0,0.0,0.0,0.0,0.0,0.0,0.0,0.0,0.0,0.0,0.0,0.0,0.0,0.0,0.0,0.0,0.0,0.0,0.0,0.0,0.0,0.0,0.0,0.0,0.0,0.0,0.0,0.0,0.0,0.0,0.0,0.0,0.0,0.0,0.0,0.0,0.0,0.0,0.0,0.0,0.0,0.0,1.4645,1.7818,1.9622,2.0124,1.911,2.0055,1.9072,0.0,0.0,0.0,0.0,0.0,0.0,0.0,0.0,0.0,0.0,0.0,0.0,0.0,0.0,0.0,0.0,0.0,0.0,0.0,0.0,0.0,0.0,0.0,0.0,0.0,0.0,0.0,0.0,0.0,0.0,0.0,0.0,0.0,0.0,0.0,0.0,0.0,0.0,0.0,0.0,0.0,0.0,0.0,0.0,0.0,0.0,0.0,0.0,0.0,0.0,0.0,0.0,0.0,0.0,0.0,0.0,0.0,0.0,0.0,0.0,0.0,0.0,0.0,0.0,0.0,0.0,0.0,0.0,0.0,0.0,0.0,0.0,0.0,0.0,0.0,0.0,0.0,0.0,0.0,0.0,0.0,0.0,0.0,0.0,0.0,0.0,0.0,0.0,0.0,0.0,0.0,0.0,0.0,0.0,0.0,0.0,0.0,0.0,0.0,0.0,0.0,0.0,0.0,0.0,0.0,0.0,0.0,0.0,0.0,1.7842,2.0318,2.2596,2.4426,2.1604,2.0779,0.0,0.0,0.0,0.0,0.0,0.0,0.0,0.0,0.0,0.0,0.0,0.0,0.0,0.0,0.0,0.0,0.0,0.0,0.0,0.0,0.0,0.0,0.0,0.0,0.0,0.0,0.0,0.0,0.0,0.0,0.0,0.0,0.0,0.0,0.0,0.0,0.0,0.0,0.0,0.0,0.0,0.0,0.0,0.0,0.0,0.0,0.0,0.0,0.0,0.0,0.0,0.0,0.0,0.0,0.0,0.0,0.0,0.0,0.0,0.0,0.0,0.0,0.0,0.0,0.0,0.0,0.0,0.0,0.0,0.0,0.0,0.0,0.0,0.0,0.0,0.0,0.0,0.0,0.0,0.0,0.0,0.0,0.0,0.0,0.0,0.0,0.0,0.0,0.0,0.0,0.0,0.0,0.0,0.0,0.0,0.0,0.0,0.0,0.0,0.0,0.0,0.0,0.0,0.0,0.0,0.0,0.0,0.0,0.0,2.2588,2.3902,2.5368,2.6886,2.3725,2.2648,2.3971,0.0,0.0,0.0,0.0,0.0,0.0,0.0,0.0,0.0,0.0,0.0,0.0,0.0,0.0,0.0,0.0,0.0,0.0,0.0,0.0,0.0,0.0,0.0,0.0,0.0,0.0,0.0,0.0,0.0,0.0,0.0,0.0,0.0,0.0,0.0,0.0,0.0,0.0,0.0,0.0,0.0,0.0,0.0,0.0,0.0,0.0,0.0,0.0,0.0,0.0,0.0,0.0,0.0,0.0,0.0,0.0,0.0,0.0,0.0,0.0,0.0,0.0,0.0,0.0,0.0,0.0,0.0,0.0,0.0,0.0,0.0,0.0,0.0,0.0,0.0,0.0,0.0,0.0,0.0,0.0,0.0,0.0,0.0,0.0,0.0,0.0,0.0,0.0,0.0,0.0,0.0,0.0,0.0,0.0,0.0,0.0,0.0,0.0,0.0,0.0,0.0,0.0,0.0,0.0,0.0,0.0,0.0,0.0,3.0799,3.0033,2.8869,2.7325,2.6639,2.4946,0.0,0.0,0.0,0.0,0.0,0.0,0.0,0.0,0.0,0.0,0.0,0.0,0.0,0.0,0.0,0.0,0.0,0.0,0.0,0.0,0.0,0.0,0.0,0.0,0.0,0.0,0.0,0.0,0.0,0.0,0.0,0.0,0.0,0.0,0.0,0.0,0.0,0.0,0.0,0.0,0.0,0.0,0.0,0.0,0.0,0.0,0.0,0.0,0.0,0.0,0.0,0.0,0.0,0.0,0.0,0.0,0.0,0.0,0.0,0.0,0.0,0.0,0.0,0.0,0.0,0.0,0.0,0.0,0.0,0.0,0.0,0.0,0.0,0.0,0.0,0.0,0.0,0.0,0.0,0.0,0.0,0.0,0.0,0.0,0.0,0.0,0.0,0.0,0.0,0.0,0.0,0.0,0.0,0.0,0.0,0.0,0.0,0.0,0.0,0.0,0.0,0.0,0.0,0.0,0.0,0.0,0.0,0.0,0.0,3.3784,3.646,3.6978,3.515,3.2118,2.9591,0.0,0.0,0.0,0.0,0.0,0.0,0.0,0.0,0.0,0.0,0.0,0.0,0.0,0.0,0.0,0.0,0.0,0.0,0.0,0.0,0.0,0.0,0.0,0.0,0.0,0.0,0.0,0.0,0.0,0.0,0.0,0.0,0.0,0.0,0.0,0.0,0.0,0.0,0.0,0.0,0.0,0.0,0.0,0.0,0.0,0.0,0.0,0.0,0.0,0.0,0.0,0.0,0.0,0.0,0.0,0.0,0.0,0.0,0.0,0.0,0.0,0.0,0.0,0.0,0.0,0.0,0.0,0.0,0.0,0.0,0.0,0.0,0.0,0.0,0.0,0.0,0.0,0.0,0.0,0.0,0.0,0.0,0.0,0.0,0.0,0.0,0.0,0.0,0.0,0.0,0.0,0.0,0.0,0.0,0.0,0.0,0.0,0.0,0.0,0.0,0.0,0.0,0.0,0.0,0.0,0.0,0.0,0.0,3.3612,3.7844,4.093,4.2072,4.1224,3.7358,3.3686,0.0,0.0,0.0,0.0,0.0,0.0,0.0,0.0,0.0,0.0,0.0,0.0,0.0,0.0,0.0,0.0,0.0,0.0,0.0,0.0,0.0,0.0,0.0,0.0,0.0,0.0,0.0,0.0,0.0,0.0,0.0,0.0,0.0,0.0,0.0,0.0,0.0,0.0,0.0,0.0,0.0,0.0,0.0,0.0,0.0,0.0,0.0,0.0,0.0,0.0,0.0,0.0,0.0,0.0,0.0,0.0,0.0,0.0,0.0,0.0,0.0,0.0,0.0,0.0,0.0,0.0,0.0,0.0,0.0,0.0,0.0,0.0,0.0,0.0,0.0,0.0,0.0,0.0,0.0,0.0,0.0,0.0,0.0,0.0,0.0,0.0,0.0,0.0,0.0,0.0,0.0,0.0,0.0,0.0,0.0,0.0,0.0,0.0,0.0,0.0,0.0,0.0,0.0,0.0,0.0,0.0,0.0,0.0,3.702,4.1893,4.3907,4.505,4.5261,4.1748,3.7226,0.0,0.0,0.0,0.0,0.0,0.0,0.0,0.0,0.0,0.0,0.0,0.0,0.0,0.0,0.0,0.0,0.0,0.0,0.0,0.0,0.0,0.0,0.0,0.0,0.0,0.0,0.0,0.0,0.0,0.0,0.0,0.0,0.0,0.0,0.0,0.0,0.0,0.0,0.0,0.0,0.0,0.0,0.0,0.0,0.0,0.0,0.0,0.0,0.0,0.0,0.0,0.0,0.0,0.0,0.0,0.0,0.0,0.0,0.0,0.0,0.0,0.0,0.0,0.0,0.0,0.0,0.0,0.0,0.0,0.0,0.0,0.0,0.0,0.0,0.0,0.0,0.0,0.0,0.0,0.0,0.0,0.0,0.0,0.0,0.0,0.0,0.0,0.0,0.0,0.0,0.0,0.0,0.0,0.0,0.0,0.0,0.0,0.0,0.0,0.0,0.0,0.0,0.0,0.0,0.0,0.0,0.0,0.0,3.9657,4.2615,4.5352,4.6534,4.6091,4.2813,3.9012,0.0,0.0,0.0,0.0,0.0,0.0,0.0,0.0,0.0,0.0,0.0,0.0,0.0,0.0,0.0,0.0,0.0,0.0,0.0,0.0,0.0,0.0,0.0,0.0,0.0,0.0,0.0,0.0,0.0,0.0,0.0,0.0,0.0,0.0,0.0,0.0,0.0,0.0,0.0,0.0,0.0,0.0,0.0,0.0,0.0,0.0,0.0,0.0,2.1055,0.0,0.0,0.0,0.0,0.0,0.0,0.0,0.0,0.0,0.0,0.0,0.0,0.0,0.0,0.0,0.0,0.0,0.0,0.0,0.0,0.0,0.0,0.0,0.0,0.0,0.0,0.0,0.0,0.0,0.0,0.0,0.0,0.0,0.0,0.0,0.0,0.0,0.0,0.0,0.0,0.0,0.0,0.0,0.0,0.0,0.0,0.0,0.0,0.0,0.0,0.0,0.0,0.0,0.0,0.0,0.0,0.0,0.0,0.0,4.1815,4.4465,4.6315,4.713,4.67,4.4167,4.0756,0.0,0.0,0.0,0.0,0.0,0.0,0.0,0.0,0.0,0.0,0.0,0.0,0.0,0.0,0.0,0.0,0.0,0.0,0.0,0.0,0.0,0.0,0.0,0.0,0.0,0.0,0.0,0.0,0.0,0.0,0.0,0.0,0.0,0.0,0.0,0.0,0.0,0.0,0.0,0.0,0.0,0.0,0.0,0.0,0.0,0.0,0.0,0.0,0.0,0.0,0.0,0.0,0.0,0.0,0.0,0.0,0.0,0.0,0.0,0.0,0.0,0.0,0.0,0.0,0.0,0.0,0.0,0.0,0.0,0.0,0.0,0.0,0.0,0.0,0.0,0.0,0.0,0.0,0.0,0.0,0.0,0.0,0.0,0.0,0.0,0.0,0.0,0.0,0.0,0.0,0.0,0.0,0.0,0.0,0.0,0.0,0.0,0.0,0.0,0.0,0.0,0.0,0.0,0.0,0.0,0.0,0.0,4.0052,4.344,4.6328,4.7119,4.7399,4.7279,4.5443,4.2322,3.7883,0.0,0.0,0.0,0.0,0.0,0.0,0.0,0.0,0.0,0.0,0.0,0.0,0.0,0.0,0.0,0.0,0.0,0.0,0.0,0.0,0.0,0.0,0.0,0.0,0.0,0.0,0.0,0.0,0.0,0.0,0.0,0.0,0.0,0.0,0.0,0.0,0.0,0.0,2.0853,2.4588,0.0,0.0,0.0,0.0,0.0,0.0,0.0,0.0,2.5136,0.0,0.0,0.0,0.0,0.0,0.0,0.0,0.0,0.0,0.0,0.0,0.0,0.0,0.0,0.0,0.0,0.0,0.0,0.0,0.0,0.0,0.0,0.0,0.0,0.0,0.0,0.0,0.0,0.0,0.0,0.0,0.0,0.0,0.0,0.0,0.0,0.0,0.0,0.0,0.0,0.0,0.0,0.0,0.0,0.0,0.0,0.0,0.0,0.0,0.0,0.0,0.0,0.0,0.0,0.0,0.0,3.9639,4.144,4.3867,4.7059,4.7799,4.7889,4.7268,4.5903,4.323,3.9191,0.0,0.0,0.0,0.0,0.0,0.0,0.0,0.0,0.0,0.0,0.0,0.0,0.0,0.0,0.0,0.0,0.0,0.0,0.0,0.0,0.0,0.0,0.0,0.0,0.0,0.0,0.0,0.0,0.0,0.0,0.0,0.0,0.0,0.0,0.0,0.0,0.0,0.0,0.0,2.9636,3.1202,0.0,0.0,0.0,0.0,0.0,0.0,0.0,0.0,2.6172,0.0,0.0,0.0,0.0,0.0,0.0,0.0,0.0,0.0,0.0,0.0,0.0,0.0,0.0,0.0,0.0,0.0,0.0,0.0,0.0,0.0,0.0,0.0,0.0,0.0,0.0,0.0,0.0,0.0,0.0,0.0,0.0,0.0,0.0,0.0,0.0,0.0,0.0,0.0,0.0,0.0,0.0,0.0,0.0,0.0,0.0,0.0,0.0,0.0,0.0,0.0,0.0,0.0,0.0,0.0,4.0235,4.3408,4.5894,4.7769,4.8139,4.7978,4.7268,4.4686,4.1893,0.0,0.0,0.0,0.0,0.0,0.0,0.0,0.0,0.0,0.0,0.0,0.0,0.0,0.0,0.0,0.0,0.0,0.0,0.0,0.0,0.0,0.0,0.0,0.0,0.0,0.0,0.0,0.0,0.0,0.0,0.0,0.0,0.0,0.0,0.0,0.0,0.0,0.0,0.0,0.0,3.0933,3.243,3.3736,0.0,0.0,0.0,0.0,0.0,0.0,2.8918,2.8483,0.0,0.0,0.0,0.0,0.0,0.0,0.0,0.0,0.0,0.0,0.0,0.0,0.0,0.0,0.0,0.0,0.0,0.0,0.0,0.0,0.0,0.0,0.0,0.0,0.0,0.0,0.0,0.0,0.0,0.0,0.0,0.0,0.0,0.0,0.0,0.0,0.0,0.0,0.0,0.0,0.0,0.0,0.0,0.0,0.0,0.0,0.0,0.0,0.0,0.0,0.0,0.0,0.0,0.0,0.0,4.0537,4.4766,4.744,4.8427,4.8498,4.8177,4.7459,4.4068,4.1014,0.0,0.0,0.0,0.0,0.0,0.0,0.0,0.0,0.0,0.0,0.0,0.0,0.0,0.0,0.0,0.0,0.0,0.0,0.0,0.0,0.0,0.0,0.0,0.0,0.0,0.0,0.0,0.0,0.0,0.0,0.0,0.0,0.0,0.0,0.0,0.0,0.0,0.0,0.0,0.0,0.0,3.384,3.4846,3.4014,0.0,0.0,0.0,0.0,3.2221,3.225,0.0,0.0,0.0,0.0,0.0,0.0,0.0,0.0,0.0,0.0,0.0,0.0,0.0,0.0,0.0,0.0,0.0,0.0,0.0,0.0,0.0,0.0,0.0,0.0,0.0,0.0,0.0,0.0,0.0,0.0,0.0,0.0,0.0,0.0,0.0,0.0,0.0,0.0,0.0,0.0,0.0,0.0,0.0,0.0,0.0,0.0,0.0,0.0,0.0,0.0,0.0,0.0,0.0,0.0,0.0,0.0,4.1076,4.4077,4.6721,4.9048,4.9198,4.8858,4.8199,4.6003,4.283,0.0,0.0,0.0,0.0,0.0,0.0,0.0,0.0,0.0,0.0,0.0,0.0,0.0,0.0,0.0,0.0,0.0,0.0,0.0,0.0,0.0,0.0,0.0,0.0,0.0,0.0,0.0,0.0,0.0,0.0,0.0,0.0,0.0,0.0,0.0,0.0,0.0,0.0,0.0,0.0,0.0,3.7769,3.7146,3.639,3.5929,0.0,0.0,3.5253,3.7011,3.7861,0.0,0.0,0.0,0.0,0.0,0.0,0.0,0.0,0.0,0.0,0.0,0.0,0.0,0.0,0.0,0.0,0.0,0.0,0.0,0.0,0.0,0.0,0.0,0.0,0.0,0.0,0.0,0.0,0.0,0.0,0.0,0.0,0.0,0.0,0.0,0.0,0.0,0.0,0.0,0.0,0.0,0.0,0.0,0.0,0.0,0.0,0.0,0.0,0.0,0.0,0.0,0.0,0.0,0.0,0.0,3.6212,4.1852,4.5665,4.8308,4.9733,4.9475,4.8989,4.8308,4.4566,4.0885,0.0,0.0,0.0,0.0,0.0,0.0,0.0,0.0,0.0,0.0,0.0,0.0,0.0,0.0,0.0,0.0,0.0,0.0,0.0,0.0,0.0,0.0,0.0,0.0,0.0,0.0,0.0,0.0,0.0,0.0,0.0,0.0,0.0,0.0,0.0,0.0,0.0,0.0,0.0,0.0,0.0,0.0,3.9987,3.9659,0.0,0.0,0.0,3.8848,3.9121,0.0,0.0,0.0,0.0,0.0,0.0,0.0,0.0,0.0,0.0,0.0,0.0,0.0,0.0,0.0,0.0,0.0,0.0,0.0,0.0,0.0,0.0,0.0,0.0,0.0,0.0,0.0,0.0,0.0,0.0,0.0,0.0,0.0,0.0,0.0,0.0,0.0,0.0,0.0,0.0,0.0,0.0,0.0,0.0,0.0,0.0,0.0,0.0,0.0,0.0,0.0,0.0,0.0,0.0,0.0,0.0,0.0,4.261,4.7042,4.9684,5.0398,4.9714,4.9067,4.8487,4.3868,0.0,0.0,0.0,0.0,0.0,0.0,0.0,0.0,0.0,0.0,0.0,0.0,0.0,0.0,0.0,0.0,0.0,0.0,0.0,0.0,0.0,0.0,0.0,0.0,0.0,0.0,0.0,1.7362,0.0,0.0,0.0,0.0,0.0,0.0,0.0,0.0,0.0,0.0,0.0,0.0,0.0,0.0,3.9487,4.2254,4.2621,4.2594,0.0,0.0,4.2366,4.1663,4.2446,4.1543,0.0,0.0,0.0,0.0,0.0,0.0,0.0,0.0,0.0,0.0,0.0,0.0,0.0,0.0,0.0,0.0,0.0,0.0,0.0,0.0,0.0,0.0,0.0,0.0,0.0,0.0,0.0,0.0,0.0,0.0,0.0,0.0,0.0,0.0,0.0,0.0,0.0,0.0,0.0,0.0,0.0,0.0,0.0,0.0,0.0,0.0,0.0,0.0,0.0,0.0,0.0,0.0,0.0,0.0,3.8084,4.3249,4.7271,4.9894,5.1038,4.9924,4.9288,4.9168,4.5883,4.1913,0.0,0.0,0.0,0.0,0.0,0.0,0.0,0.0,0.0,0.0,0.0,0.0,0.0,0.0,0.0,0.0,0.0,0.0,0.0,0.0,0.0,0.0,0.0,0.0,0.0,0.0,0.0,0.0,0.0,0.0,0.0,0.0,0.0,0.0,0.0,0.0,0.0,0.0,0.0,0.0,0.0,4.2333,4.315,4.4795,4.619,0.0,4.6358,4.595,4.5857,4.6937,4.5654,3.9239,0.0,0.0,0.0,0.0,0.0,0.0,0.0,0.0,0.0,0.0,0.0,0.0,0.0,0.0,0.0,0.0,0.0,0.0,0.0,0.0,0.0,0.0,0.0,0.0,0.0,0.0,0.0,0.0,0.0,0.0,0.0,0.0,0.0,0.0,0.0,0.0,0.0,0.0,0.0,0.0,0.0,0.0,0.0,0.0,0.0,0.0,0.0,0.0,0.0,0.0,0.0,0.0,0.0,3.8084,4.328,4.726,4.9935,5.1086,4.9965,4.9288,4.9288,4.6052,4.2332,0.0,0.0,0.0,0.0,0.0,0.0,0.0,0.0,0.0,0.0,0.0,0.0,0.0,0.0,0.0,0.0,0.0,0.0,0.0,0.0,0.0,0.0,0.0,0.0,0.0,0.0,0.0,0.0,2.398,2.4922,2.4585,0.0,0.0,0.0,0.0,0.0,0.0,0.0,0.0,0.0,0.0,4.4876,4.6721,4.7649,0.0,0.0,4.8196,4.7668,4.8098,4.683,4.4556,4.0855,3.888,0.0,0.0,0.0,0.0,0.0,0.0,0.0,0.0,0.0,0.0,0.0,0.0,0.0,0.0,0.0,0.0,0.0,0.0,0.0,0.0,0.0,0.0,0.0,0.0,0.0,0.0,0.0,0.0,0.0,0.0,0.0,0.0,0.0,0.0,0.0,0.0,0.0,0.0,0.0,0.0,0.0,0.0,0.0,0.0,0.0,0.0,0.0,0.0,0.0,0.0,0.0,0.0,3.8285,4.324,4.726,4.9894,5.1187,5.0122,4.9486,4.9228,4.6441,4.315,0.0,0.0,0.0,0.0,0.0,0.0,0.0,0.0,0.0,0.0,0.0,0.0,0.0,0.0,0.0,0.0,0.0,0.0,0.0,0.0,0.0,0.0,0.0,0.0,0.0,0.0,0.0,0.0,2.6215,2.6356,2.4148,0.0,0.0,0.0,0.0,0.0,0.0,0.0,0.0,0.0,0.0,4.7331,4.9546,4.9864,5.0002,5.0428,4.9404,4.8708,4.8959,4.7339,4.5134,4.2402,0.0,0.0,0.0,0.0,0.0,0.0,0.0,0.0,0.0,0.0,0.0,0.0,0.0,0.0,0.0,0.0,0.0,0.0,0.0,0.0,0.0,0.0,0.0,0.0,0.0,0.0,0.0,1.8191,0.0,0.0,1.6583,0.0,0.0,0.0,0.0,0.0,0.0,0.0,0.0,0.0,0.0,0.0,0.0,0.0,0.0,0.0,0.0,0.0,0.0,0.0,0.0,0.0,0.0,3.8751,4.328,4.729,4.9924,5.1158,5.0548,4.9871,4.9288,4.7309,4.4696,4.1343,0.0,0.0,0.0,0.0,0.0,0.0,0.0,0.0,0.0,0.0,0.0,0.0,0.0,0.0,0.0,0.0,0.0,0.0,0.0,0.0,0.0,0.0,0.0,0.0,0.0,0.0,2.5322,2.6135,2.5676,0.0,0.0,0.0,0.0,0.0,0.0,0.0,0.0,0.0,4.2518,4.6628,4.9684,5.0978,5.1187,5.1187,5.1217,5.0133,4.9108,4.8547,4.9243,4.8533,0.0,0.0,0.0,0.0,0.0,0.0,0.0,0.0,0.0,0.0,0.0,0.0,0.0,0.0,0.0,0.0,0.0,0.0,0.0,0.0,0.0,0.0,0.0,0.0,0.0,0.0,0.0,2.6625,2.4722,0.0,0.0,0.0,0.0,0.0,0.0,0.0,0.0,0.0,0.0,0.0,3.5907,3.8496,0.0,0.0,0.0,0.0,0.0,0.0,0.0,0.0,0.0,0.0,0.0,0.0,3.958,4.4516,4.8106,5.0529,5.1786,5.0787,4.992,4.9318,4.7799,4.4785,4.0208,0.0,0.0,0.0,0.0,0.0,0.0,0.0,0.0,0.0,0.0,0.0,0.0,0.0,0.0,0.0,0.0,0.0,0.0,0.0,0.0,0.0,0.0,0.0,0.0,0.0,2.6466,0.0,0.0,0.0,0.0,0.0,0.0,0.0,0.0,0.0,0.0,3.7963,4.2329,4.6086,4.9268,5.154,5.2408,5.2516,5.2695,0.0,0.0,0.0,0.0,0.0,0.0,0.0,0.0,0.0,0.0,0.0,0.0,0.0,0.0,4.9811,4.2411,4.0167,3.9697,4.0565,0.0,0.0,0.0,0.0,0.0,0.0,0.0,0.0,0.0,0.0,0.0,0.0,0.0,0.0,3.2256,3.0915,2.9802,0.0,0.0,0.0,0.0,0.0,0.0,0.0,0.0,3.9188,4.2001,4.2216,4.4569,4.4596,4.2522,4.1863,3.815,0.0,0.0,0.0,0.0,0.0,0.0,0.0,0.0,4.0935,4.5873,4.9004,5.1086,5.2097,5.1325,5.0499,4.9613,4.8117,4.5443,4.1584,3.9379,3.7195,0.0,0.0,0.0,0.0,0.0,0.0,0.0,0.0,0.0,0.0,0.0,0.0,0.0,0.0,0.0,0.0,0.0,0.0,0.0,0.0,0.0,0.0,0.0,2.836,0.0,0.0,0.0,0.0,0.0,0.0,0.0,0.0,0.0,3.9281,4.2938,4.6985,5.0584,5.2306,5.3486,5.4144,0.0,0.0,0.0,0.0,0.0,0.0,0.0,4.9912,5.1355,4.986,4.8783,4.9834,5.2917,5.4892,5.3755,0.0,0.0,4.8566,4.6471,4.6123,4.7012,4.6636,4.679,4.8951,4.9435,4.9994,0.0,0.0,0.0,0.0,3.3855,0.0,0.0,0.0,3.6267,3.6416,0.0,3.4971,0.0,0.0,0.0,0.0,3.0419,3.4902,0.0,0.0,4.7031,4.9901,4.9355,4.992,4.9632,4.8487,4.8947,4.6901,4.2303,3.509,0.0,0.0,0.0,0.0,0.0,0.0,4.2821,4.7298,4.9961,5.1606,5.2247,5.2217,5.1546,5.0207,4.8375,4.6751,4.5394,4.4077,4.1654,3.7815,3.5677,0.0,0.0,0.0,0.0,0.0,0.0,0.0,0.0,0.0,0.0,0.0,0.0,0.0,0.0,0.0,0.0,0.0,0.0,0.0,0.0,2.8987,0.0,0.0,0.0,0.0,0.0,0.0,0.0,0.0,0.0,4.7427,4.5099,4.8052,5.1834,5.5641,0.0,0.0,0.0,0.0,5.4568,5.5281,5.4777,5.4598,5.5251,5.6226,5.6316,5.467,0.0,0.0,5.4024,5.6658,5.8201,5.5136,5.7261,5.9039,5.8218,5.5705,5.4521,5.5653,5.3927,5.3222,5.4892,5.5649,5.635,4.6723,0.0,0.0,0.0,0.0,4.1762,4.3932,4.7084,4.6802,4.5739,4.4122,4.2623,0.0,0.0,0.0,0.0,0.0,0.0,4.2227,4.511,4.8579,5.0619,5.1379,5.2049,5.1899,5.1121,5.1259,5.0212,4.7916,4.5291,4.0231,3.3032,0.0,0.0,0.0,0.0,4.5713,4.9262,5.1517,5.2935,5.3623,5.2695,5.1576,5.0237,4.9254,4.8308,4.748,4.6172,4.4526,4.2392,3.911,0.0,0.0,0.0,0.0,0.0,0.0,0.0,0.0,0.0,0.0,0.0,0.0,0.0,0.0,0.0,0.0,0.0,0.0,0.0,2.9797,3.0937,3.1878,0.0,0.0,0.0,0.0,0.0,0.0,0.0,0.0,0.0,5.3918,5.4694,5.5538,0.0,0.0,5.7154,5.6898,5.6915,5.7231,5.7872,5.7812,0.0,5.7962,5.7137,5.6911,5.8185,5.9817,6.0625,5.9711,6.0878,6.1657,6.0639,6.1311,6.1896,6.1597,5.9518,5.7962,5.8141,5.7962,5.8141,5.9159,5.9937,6.0579,5.4096,4.928,4.731,4.7172,4.8272,4.8811,5.0671,5.3334,5.2953,5.2187,5.1079,4.9523,4.6572,4.265,4.0816,0.0,0.0,0.0,4.7172,5.0194,5.1816,5.3132,5.4132,5.4551,5.4413,5.3815,5.3785,5.3234,5.2175,5.1558,4.7829,4.1304,0.0,4.1195,4.1813,4.5155,4.8368,5.1295,5.2845,5.3803,5.4179,5.3144,5.2067,5.1026,5.0391,4.9744,4.9075,4.8057,4.685,4.5533,4.2701,3.9388,0.0,0.0,0.0,0.0,0.0,0.0,0.0,0.0,0.0,0.0,0.0,2.2963,2.0309,0.0,0.0,0.0,2.8706,3.227,3.5723,3.657,0.0,0.0,0.0,0.0,0.0,0.0,0.0,5.0577,5.4106,5.6974,5.8667,5.9249,5.9382,5.9142,5.8756,5.8547,5.868,0.0,5.9129,5.9817,6.0116,6.0386,6.0625,5.9711,5.9485,6.1012,6.1912,6.2584,6.2839,6.3213,6.3542,6.3767,6.3857,6.3812,6.3664,6.2393,6.1387,6.1236,6.1431,6.1866,6.2526,6.2975,6.3393,5.998,5.9085,5.5491,5.4251,5.4718,5.5329,5.5957,5.6521,5.588,5.6209,5.7107,5.5329,5.3297,5.1007,4.7692,0.0,5.0681,5.0967,5.262,5.5359,5.597,5.6568,5.7107,5.7094,5.6808,5.6252,5.6282,5.594,5.5311,5.47,5.3491,5.1636,4.8663,4.7627,4.8528,4.9307,5.0905,5.3318,5.3982,5.4269,5.4179,5.3593,5.2947,5.2187,5.1606,5.0936,5.0237,4.9625,4.8708,4.7429,4.6112,4.3359,3.8999,0.0,0.0,0.0,0.0,0.0,0.0,0.0,0.0,0.0,0.0,0.0,0.0,0.0,0.0,3.1286,3.4805,0.0,4.331,4.4247,0.0,0.0,0.0,4.7636,4.7347,5.1696,5.4718,5.488,0.0,0.0,6.0579,6.2106,6.3033,6.2391,6.0669,5.9847,6.1014,6.0699,6.0535,6.118,6.1762,6.2375,6.2734,6.2838,6.2854,6.3003,6.3213,6.3468,6.3917,6.4066,6.4336,6.4829,6.4994,6.486,6.4502,6.4576,6.4904,6.4513,6.4244,6.4216,6.4665,6.4815,6.4815,6.2285,6.209,6.1118,5.9951,5.8723,5.8873,5.9308,5.9877,5.9232,5.88,5.856,5.759,5.6319,5.4858,5.3993,5.403,5.4777,5.5296,5.5947,5.6645,5.6808,5.6958,5.7094,5.7094,5.7004,5.6898,5.6898,5.6808,5.6645,5.6496,5.6166,5.5688,5.491,5.3192,5.0679,5.2187,5.3593,5.4713,5.4892,5.473,5.4209,5.4042,5.3426,5.2217,5.2037,5.1427,5.0267,4.9636,4.8917,4.8068,4.679,4.4865,4.2312,3.7502,0.0,0.0,0.0,0.0,0.0,0.0,0.0,0.0,0.0,3.2594,2.7351,0.0,3.7282,0.0,4.1328,4.461,4.6221,4.695,0.0,0.0,5.1792,5.3125,5.6394,5.7942,5.9292,6.0819,6.2361,6.3468,6.3782,6.4261,6.45,6.4276,6.3049,6.2076,6.1942,6.2195,6.2435,6.2614,6.2764,6.2928,6.3123,6.3512,6.3782,6.3797,6.4186,6.462,6.474,6.477,6.4829,6.4964,6.4994,6.4949,6.4964,6.4949,6.5413,6.6072,6.5532,6.48,6.4964,6.5054,6.5054,6.3108,6.3108,6.3108,6.2449,6.1417,6.1417,6.1657,6.1942,6.1297,6.0775,6.0386,5.9744,5.9056,5.8394,5.8381,5.8394,5.8424,5.874,5.889,5.889,5.889,5.871,5.8454,5.8454,5.8424,5.8411,5.8424,5.859,5.886,5.856,5.859,5.886,5.8291,5.7034,5.5269,5.5388,5.5688,5.603,5.579,5.5461,5.5102,5.4521,5.3563,5.2247,5.1917,5.1008,4.9422,4.9026,4.827,4.701,4.6262,4.5074,4.3409,3.9773,3.706,0.0,0.0,0.0,0.0,0.0,0.0,0.0,0.0,0.0,0.0,0.0,4.2279,4.3718,4.7189,5.0122,5.1935,5.3276,5.5119,5.7872,5.8364,5.9368,6.1613,6.2091,6.272,6.3827,6.4246,6.4575,6.4964,6.4994,6.4994,6.4994,6.4395,6.3827,6.3513,6.3723,6.3947,6.3947,6.3947,6.3947,6.3947,6.4216,6.4455,6.447,6.477,6.5084,6.5383,6.5458,6.5547,6.5817,6.5877,6.6358,6.7496,6.7266,6.7563,6.9404,6.8937,6.7705,6.7005,6.6859,6.7005,6.3333,6.3363,6.3333,6.3273,6.3227,6.3227,6.3153,6.3078,6.2495,6.2211,6.2181,6.1523,6.121,6.1239,6.1239,6.118,6.109,6.121,6.118,6.109,6.109,6.0805,6.0236,6.0236,6.022,6.025,6.022,6.0535,6.106,6.0505,6.0535,6.103,5.9937,5.9638,6.013,5.8411,5.7377,5.7107,5.6509,5.6205,5.6205,5.488,5.3563,5.2247,5.1487,5.017,4.8278,4.8248,4.748,4.5693,4.5723,4.5244,4.3997,4.2093,4.0717,0.0,3.8328,0.0,0.0,0.0,0.0,0.0,0.0,0.0,0.0,4.5474,4.7401,5.0094,5.2839,5.5628,5.8501,6.0416,6.1972,6.3213,6.45,6.5039,6.4485,6.5039,6.5518,6.5503,6.5503,6.5503,6.5488,6.5368,6.5398,6.5368,6.5308,6.5233,6.5203,6.5069,6.4904,6.4994,6.4994,6.4845,6.4904,6.5024,6.5218,6.5337,6.5665,6.5816,6.6745,6.6821,6.6958,6.7457,6.7683,6.8436,7.0989,7.0317,7.0746,7.3529,7.2673,7.111,6.9956,6.9581,7.0056,6.465,6.4635,6.465,6.4321,6.3827,6.3827,6.3542,6.3108,6.2944,6.2914,6.2854,6.2211,6.1912,6.1912,6.1912,6.1613,6.115,6.1672,6.1613,6.109,6.109,6.103,6.091,6.091,6.0924,6.091,6.091,6.097,6.109,6.097,6.097,6.109,6.0851,6.0805,6.0851,0.0,0.0,0.0,5.6521,5.6205,5.6175,5.488,5.3551,5.2247,5.1026,0.0,4.7638,4.7997,4.7878,4.701,4.7959,0.0,0.0,0.0,0.0,0.0,0.0,0.0,0.0,0.0,0.0,0.0,5.0027,4.8713,4.8391,5.3156,5.613,5.5765,5.9023,6.1477,6.2106,6.2929,6.3752,6.459,6.5817,6.655,6.6475,6.7478,6.824,6.824,6.8226,6.8032,6.7463,6.7433,6.724,6.6806,6.6625,6.661,6.6671,6.5817,6.5084,6.5009,6.5351,6.5113,6.4994,6.5592,6.6504,6.7251,6.8056,6.8858,6.9919,7.0245,7.0315,7.0466,7.056,7.0617,7.1396,7.1634,7.2648,7.5071,7.4296,7.2924,7.2056,7.1873,7.1957,6.4994,6.4994,6.4994,6.4785,0.0,6.45,6.4321,6.4006,6.3363,6.3108,6.3078,6.2734,6.2584,6.2584,6.2584,6.2405,6.2106,6.2465,6.2391,6.2106,6.2091,6.1912,6.1569,6.1569,6.1598,6.1583,6.1613,6.1748,6.2061,6.1762,6.1762,6.2076,6.1419,6.1269,6.1539,6.0924,5.9757,5.8082,5.7453,5.7137,5.7094,5.5538,5.4221,5.3204,5.1576,0.0,0.0,0.0,0.0,0.0,0.0,0.0,0.0,0.0,0.0,4.9613,4.9344,4.9744,5.1031,5.1738,5.3563,5.6825,5.7663,5.6915,5.4354,5.8394,6.0938,6.0595,6.269,6.4306,6.4949,6.5308,6.5892,6.6864,6.7582,6.8266,6.8956,6.9024,6.929,7.0006,7.0144,6.9745,6.8666,6.9914,7.0241,6.9365,6.9811,6.9928,6.9136,6.7935,6.7287,6.7993,6.8179,6.8164,6.8164,6.8412,6.8988,7.0077,7.0606,7.1077,7.1803,7.1941,7.1817,7.1516,7.1689,7.2206,7.3396,7.389,7.4807,7.6736,7.6551,7.5879,7.5641,7.4922,7.4361,6.5607,6.5697,6.5443,6.5353,6.5338,6.5248,6.5114,6.4934,6.3887,0.0,0.0,6.3303,6.3243,6.3257,6.3168,6.3108,6.3108,6.3108,6.3108,6.3108,6.3108,6.2794,6.2271,6.2285,6.2285,6.2285,6.2271,6.2555,6.3078,6.2555,6.2555,6.2958,6.1972,6.1672,6.2032,6.1553,6.0671,5.9488,5.8667,5.8218,5.8068,5.6316,5.5072,5.4389,5.2534,5.102,4.9845,4.9396,4.8667,4.7616,4.8386,4.9325,5.0295,5.1528,5.3222,5.5371,5.6628,5.7423,5.7782,5.8949,6.0027,6.0894,6.3034,6.3169,6.0342,6.2271,6.3871,6.4455,6.5129,6.6147,6.7592,6.7773,6.8332,6.9652,6.9911,7.0542,7.1595,7.0923,7.0848,7.1797,7.2127,7.1572,7.0404,7.2157,7.3271,7.2188,7.2538,7.3387,7.2161,7.0575,6.9933,7.1205,7.1126,7.1255,7.1685,7.1771,7.2211,7.2861,7.304,7.3154,7.3417,7.3453,7.3213,7.3052,7.3097,7.4277,7.5924,7.637,7.7058,7.8913,7.8822,7.8551,7.8971,7.7843,7.6965,6.7882,6.8345,6.7208,6.67,6.667,6.6086,6.5547,6.4994,6.4829,6.4725,6.4695,6.4126,6.3857,6.3857,6.3333,6.3108,6.3108,6.3108,6.3108,6.3108,6.3108,6.3048,6.2958,6.2958,6.2958,6.2974,6.2944,6.3003,6.3078,6.3018,6.3018,6.3078,6.2914,6.2584,6.2121,6.2002,6.1583,6.0821,5.9608,5.8697,5.8098,5.6778,5.573,5.5029,5.3695,5.2588,5.1828,5.2258,5.2438,5.2288,5.3964,5.4785,5.4443,5.5551,5.6436,5.6825,5.756,5.8683,6.0432,6.1253,6.245,6.4127,6.5188,6.5248,6.4321,6.5039,6.5892,6.652,6.7134,6.8454,7.0352,7.0594,7.1162,7.2665,7.3462,7.3924,7.411,7.4314,7.4514,7.4849,7.5003,7.4673,7.3802,7.4225,7.4426,7.3579,7.385,7.4052,7.4593,7.2775,7.1847,7.2719,7.218,7.2028,7.3164,7.3655,7.4289,7.5186,7.5332,7.5694,7.6708,7.6847,7.6781,7.694,7.6797,7.7376,7.8371,7.8648,7.8931,7.9803,7.9769,7.9837,7.9938,7.9563,7.9302,6.872,6.8914,6.8345,6.8076,6.8046,6.7747,6.7462,6.7133,6.6789,6.5996,6.4994,6.468,6.453,6.45,6.3857,6.3602,6.3572,6.3257,6.3108,6.3108,6.3108,6.3108,6.3108,6.3108,6.3108,6.3108,6.3108,6.3108,6.3108,6.3108,6.3108,6.3108,6.3108,6.2958,6.2644,6.2644,6.2301,6.1628,6.0671,6.0043,5.97,5.8813,5.8155,5.7869,5.6555,5.5705,5.5393,5.5329,5.5311,5.5311,5.6539,5.7244,5.7334,5.856,5.9608,6.031,6.0954,6.1868,6.3124,6.4186,6.5144,6.6041,6.7059,6.7508,6.7193,6.7119,6.7224,6.7523,6.8151,6.9452,7.1561,7.185,7.2584,7.4488,7.4982,7.5485,7.6136,7.5827,7.5938,7.6692,7.686,7.6422,7.5292,7.6579,7.7141,7.6205,7.5939,7.6511,7.7835,7.6303,7.509,7.5734,7.5193,7.5022,7.5832,7.6391,7.6923,7.7532,7.7571,7.7846,7.8523,7.8585,7.8428,7.8124,7.8293,7.8686,7.908,7.9452,7.9803,8.004,8.0209,8.0209,8.0209,8.0209,8.0073,6.9333,6.9423,6.9123,6.9194,6.9508,6.9524,6.968,6.996,6.9474,6.8287,6.6708,6.5726,6.5397,6.5648,6.5013,6.4741,6.465,6.4242,6.3844,6.3557,6.3512,6.3542,6.3542,6.3528,6.3452,6.3303,6.3303,6.3243,6.3108,6.3108,6.3108,6.3108,6.3108,6.3108,6.3108,6.3108,6.2824,6.2345,6.1822,6.1419,6.109,6.0595,6.0296,6.0236,5.9325,5.8773,5.8756,5.8278,5.7992,5.8035,5.8637,5.9235,5.9774,6.103,6.2211,6.3213,6.3887,6.459,6.5398,6.64,6.7134,6.7463,6.8749,6.9524,6.9509,6.9548,6.9336,6.9119,6.9678,7.1046,7.3231,7.3853,7.4634,7.6601,7.6891,7.7561,7.8533,7.7835,7.7446,7.8522,7.879,7.8411,7.7727,7.9109,7.997,7.895,7.8511,7.8967,7.9798,7.9111,7.8524,7.8388,7.8139,7.7932,7.845,7.8708,7.9,7.9329,7.93,7.9242,7.935,7.935,7.9181,7.8766,7.8991,7.9329,7.9418,7.9769,8.0107,8.0209,8.0209,8.0209,8.0209,8.0209,8.0209,7.0247,7.05,6.9622,6.982,7.1115,7.1144,7.1899,7.3023,7.3097,7.2616,7.1305,6.7672,6.6728,6.7709,6.7147,6.6767,6.675,6.6816,6.6006,6.4859,6.4815,6.4815,6.4755,6.48,6.45,6.3977,6.3917,6.3662,6.3168,6.3108,6.3108,6.3108,6.3108,6.3108,6.3108,6.3108,6.3078,6.3018,6.2958,6.2301,6.118,6.103,6.1,6.1,6.091,6.0821,6.0791,6.0761,6.0731,6.0791,6.1329,6.1732,6.1912,6.3019,6.3797,6.3977,6.459,6.5458,6.667,6.6909,6.7645,6.8754,7.0282,7.116,7.1235,7.2837,7.3371,7.24,7.258,7.411,7.6957,7.777,7.8598,7.9986,8.0455,8.1096,8.1537,8.1872,8.1589,8.1005,8.128,8.1628,8.0748,8.1384,8.1695,8.0754,8.0146,7.9899,8.0074,7.9998,7.9785,7.9862,7.9892,7.9824,7.987,7.9984,7.9963,8.0006,8.0073,8.0006,7.9972,8.0006,8.0006,7.9667,7.987,7.9972,8.0073,8.0175,8.0209,8.0344,8.031,8.0242,8.0209,8.0242,8.0276,7.1592,7.2283,7.2637,7.3431,7.4442,7.4467,7.4611,7.4758,7.4338,7.4018,7.3521,7.1409,6.989,6.8724,6.7194,6.6496,6.6466,6.6071,6.5569,6.5024,6.4994,6.4994,6.4994,6.4994,6.4859,6.459,6.459,6.4231,6.3692,6.3287,6.3108,6.3108,6.3108,6.3108,6.3108,6.3108,6.3108,6.3108,6.3108,6.2824,6.2375,6.2285,6.2271,6.2271,6.2271,6.2285,6.2271,6.2285,6.2285,6.2301,6.2869,6.3228,6.3228,6.4082,6.4964,6.5742,6.6789,6.7582,6.8151,6.9366,7.0373,7.0939,7.2717,7.3852,7.3866,7.4701,7.5249,7.5553,7.5072,7.5623,7.7662,7.8549,7.9627,8.0995,8.1663,8.2056,8.2327,8.2428,8.2259,8.2002,8.2192,8.2327,8.2069,8.2205,8.2056,8.1473,8.0999,8.075,8.031,8.0209,8.0209,8.0209,8.0209,8.0209,8.0209,8.0209,8.0209,8.0209,8.0209,8.0209,8.0209,8.0209,8.0209,8.0209,8.0209,8.039,8.0796,8.083,8.083,8.0864,8.083,8.0729,8.031,8.056,8.0661,7.3468,7.4542,7.5634,7.6657,7.7593,7.7428,7.7269,7.7116,7.6428,7.6037,7.5754,7.4905,7.3241,7.0992,6.9131,6.7922,6.6956,6.6781,6.629,6.5652,6.5547,6.5547,6.5547,6.5547,6.5458,6.5308,6.5263,6.4919,6.4291,6.3857,6.3617,6.3632,6.3632,6.3617,6.3602,6.3482,6.3422,6.3572,6.3303,6.3153,6.3303,6.3333,6.3287,6.3138,6.3108,6.3153,6.3333,6.3347,6.3422,6.3632,6.4066,6.4276,6.4306,6.5069,6.6161,6.7479,6.8842,6.9709,6.9906,7.181,7.3005,7.3375,7.5249,7.6528,7.6631,7.7104,7.7934,7.8839,7.8099,7.803,7.8656,7.9508,8.0488,8.175,8.2408,8.2733,8.3003,8.3003,8.297,8.2767,8.297,8.3003,8.297,8.2868,8.2543,8.2116,8.1778,8.1338,8.0695,8.0526,8.0526,8.0479,8.0357,8.0209,8.0209,8.0209,8.0209,8.0209,8.0209,8.0209,8.0209,8.0209,8.0209,8.0209,8.0209,8.0445,8.0966,8.1202,8.1473,8.1575,8.1575,8.1372,8.0716,8.1033,8.0999,7.6116,7.7521,7.7689,7.8643,7.9869,7.9257,7.9721,8.0671,8.0127,7.9517,7.8652,7.7331,7.624,7.5173,7.4081,7.2265,6.9535,7.0186,6.9277,6.7062,6.6879,6.6894,6.6924,6.6924,6.661,6.6146,6.6056,6.5667,6.4994,6.4889,6.4904,6.4889,6.4815,6.4845,6.474,6.4231,6.4261,6.462,6.3767,6.3422,6.3887,6.3947,6.3707,6.3287,6.3138,6.3452,6.3887,6.3977,6.4246,6.4874,6.4934,6.4994,6.5084,6.6266,6.7661,6.8988,7.0434,7.1559,7.2297,7.3774,7.4928,7.5631,7.7576,7.8862,7.8963,8.0435,8.148,8.207,8.1653,8.1443,8.119,8.1563,8.2342,8.3086,8.3355,8.3748,8.4356,8.4289,8.4153,8.3727,8.395,8.4221,8.4377,8.3883,8.3456,8.3152,8.2733,8.2103,8.1473,8.1236,8.1236,8.1135,8.0763,8.0242,8.0242,8.0209,8.0209,8.031,8.0344,8.0209,8.0209,8.0209,8.0209,8.0242,8.0344,8.0615,8.1101,8.1507,8.1832,8.2069,8.2306,8.2035,8.1393,8.1304,8.1338,7.8722,8.0656,8.1207,8.1809,8.2228,8.1986,8.1942,8.1989,8.1718,8.119,8.0318,7.8897,7.7053,7.5007,7.4711,7.3094,7.0694,7.0661,6.9806,6.8322,6.7852,6.7852,6.8256,6.8286,6.8166,6.7897,6.7478,6.67,6.5667,6.5233,6.4994,6.4994,6.4994,6.4994,6.4964,6.4755,6.477,6.4949,6.45,6.4425,6.462,6.465,6.453,6.4321,6.4291,6.4411,6.465,6.4635,6.477,6.4994,6.5802,6.6281,6.6537,6.8911,7.1056,7.2508,7.3928,7.487,7.53,7.7008,7.8201,7.8574,8.0131,8.1129,8.1268,8.1905,8.2395,8.2428,8.2428,8.2395,8.2746,8.2949,8.3186,8.3456,8.393,8.4289,8.4525,8.458,8.4492,8.4323,8.4492,8.4593,8.4546,8.4343,8.4018,8.3558,8.3253,8.2813,8.2238,8.2002,8.2002,8.1968,8.1786,8.1617,8.1596,8.0682,8.0276,8.0547,8.0648,8.0378,8.0276,8.0378,8.0412,8.0593,8.0648,8.1156,8.1799,8.2475,8.2712,8.2881,8.3105,8.2813,8.2137,8.2171,8.2205,8.1565,8.2935,8.3618,8.3862,8.3828,8.3592,8.3219,8.2699,8.2272,8.1778,8.1111,7.9933,7.7992,7.5964,7.563,7.4221,7.1984,7.1027,7.0021,6.9008,6.8541,6.8571,6.8944,6.9004,6.9004,6.8884,6.8317,6.7583,6.6939,6.6056,6.5787,6.6011,6.5757,6.5637,6.5637,6.5443,6.5383,6.5547,6.5248,6.5084,6.5263,6.5338,6.5338,6.5398,6.5727,6.5727,6.5353,6.5518,6.5757,6.6056,6.7029,6.8085,6.9199,7.1789,7.4067,7.5536,7.6994,7.7802,7.8006,7.969,8.0832,8.0892,8.1985,8.2746,8.2733,8.297,8.3105,8.3105,8.3105,8.3342,8.368,8.3862,8.3862,8.3883,8.4289,8.458,8.458,8.458,8.458,8.4546,8.4593,8.458,8.458,8.458,8.4356,8.3883,8.3862,8.3545,8.2949,8.278,8.2767,8.2699,8.2462,8.2631,8.2665,8.2035,8.1291,8.1426,8.1393,8.0974,8.075,8.0784,8.0818,8.0966,8.1325,8.1934,8.2598,8.3355,8.3659,8.3781,8.3815,8.3612,8.3274,8.3118,8.3016,8.45,8.4486,8.458,8.4512,8.4424,8.3849,8.3537,8.3287,8.215,8.171,8.1502,8.0461,7.8976,7.7847,7.7027,7.5827,7.3087,7.1672,7.048,6.9262,6.9064,6.9064,6.9183,6.9213,6.9153,6.9064,6.8391,6.8391,6.8645,6.7597,6.7284,6.7688,6.7238,6.6939,6.6984,6.649,6.643,6.6654,6.5966,6.5577,6.5936,6.6176,6.6206,6.6265,6.7238,6.7313,6.6176,6.67,6.7284,6.7898,6.865,7.0442,7.307,7.4954,7.6405,7.7883,7.9312,8.0023,8.0264,8.1538,8.2409,8.249,8.3112,8.3524,8.3592,8.4052,8.439,8.4309,8.4377,8.4492,8.4492,8.4492,8.4492,8.458,8.458,8.458,8.458,8.458,8.458,8.458,8.458,8.458,8.458,8.458,8.4512,8.4478,8.4444,8.4255,8.3659,8.3524,8.3524,8.3389,8.3206,8.3274,8.3443,8.3443,8.2868,8.2428,8.2225,8.1955,8.182,8.1786,8.1718,8.1832,8.2069,8.2678,8.3308,8.395,8.4187,8.4323,8.4343,8.4255,8.3984,8.3714,8.3659,8.458,8.458,8.458,8.458,8.458,8.4343,8.4255,8.4221,8.3714,8.3274,8.2452,8.0271,7.8433,7.6877,7.5301,7.3487,7.1725,7.1585,7.1192,7.0371,6.9887,6.9901,7.0231,7.029,7.0081,6.9692,6.9498,6.9199,6.8974,6.8555,6.8301,6.8062,6.8256,6.8106,6.7748,6.7942,6.8226,6.8286,6.7986,6.7897,6.8046,6.8046,6.8046,6.8106,6.8495,6.8435,6.8106,6.8256,6.8465,6.8783,7.0371,7.306,7.6536,7.8172,7.9423,8.0859,8.1866,8.2449,8.2543,8.3287,8.3836,8.3937,8.412,8.4255,8.4255,8.4458,8.458,8.458,8.458,8.458,8.458,8.458,8.458,8.458,8.458,8.458,8.458,8.458,8.458,8.458,8.458,8.458,8.458,8.458,8.458,8.458,8.458,8.4458,8.4289,8.4187,8.4255,8.4221,8.4005,8.3802,8.3984,8.4052,8.3781,8.3308,8.3037,8.2902,8.2767,8.2733,8.2665,8.2733,8.2983,8.3355,8.3984,8.4343,8.4512,8.458,8.4512,8.439,8.4289,8.4187,8.4086,8.458,8.458,8.458,8.458,8.458,8.458,8.458,8.4559,8.4289,8.393,8.2966,8.0499,7.843,7.6828,7.4741,7.3011,7.1776,7.2086,7.2026,7.1517,7.0696,7.0696,7.1218,7.1278,7.0949,7.0366,7.0097,6.9917,6.9692,6.9243,6.89,6.8856,6.893,6.8794,6.8421,6.878,6.9004,6.9004,6.8974,6.9004,6.9004,6.9004,6.9123,6.9428,7.019,7.0716,7.0991,7.1766,7.1751,7.1414,7.3477,7.6682,7.9605,8.076,8.1926,8.299,8.3599,8.3903,8.3964,8.4249,8.458,8.458,8.458,8.458,8.458,8.458,8.458,8.458,8.458,8.458,8.458,8.458,8.458,8.458,8.458,8.458,8.458,8.458,8.458,8.458,8.458,8.458,8.458,8.458,8.458,8.458,8.458,8.458,8.458,8.458,8.458,8.458,8.4444,8.4377,8.4512,8.4546,8.4546,8.4208,8.3836,8.368,8.3578,8.3565,8.3531,8.3612,8.3815,8.3883,8.4411,8.4478,8.458,8.458,8.458,8.4525,8.4458,8.4492,8.4424,8.458,8.458,8.458,8.458,8.458,8.458,8.458,8.4492,8.395,8.3554,8.2892,8.0874,7.8971,7.7459,7.5602,7.4092,7.3094,7.2924,7.2847,7.2458,7.1697,7.1427,7.1923,7.1936,7.1593,7.0979,7.0486,7.0426,7.062,6.9782,6.9393,6.9768,6.9528,6.9183,6.9273,6.9213,6.9512,6.9602,6.9482,6.9482,6.9482,6.9423,6.9807,7.0567,7.2318,7.3648,7.4514,7.6263,7.6406,7.4729,7.7633,7.9987,8.1359,8.2758,8.377,8.4343,8.458,8.4525,8.4559,8.4546,8.458,8.458,8.458,8.458,8.458,8.458,8.458,8.458,8.458,8.458,8.458,8.458,8.458,8.458,8.458,8.458,8.458,8.458,8.458,8.458,8.458,8.458,8.458,8.458,8.458,8.458,8.458,8.458,8.458,8.458,8.458,8.458,8.458,8.458,8.458,8.458,8.458,8.4478,8.4242,8.4174,8.4153,8.414,8.4174,8.4275,8.4356,8.4478,8.458,8.458,8.458,8.458,8.458,8.458,8.458,8.458,8.458,8.458,8.458,8.458,8.458,8.458,8.458,8.458,8.458,8.435,8.3516,8.2334,8.0651,7.8633,7.6666,7.5521,7.4208,7.3337,7.3432,7.3326,7.2907,7.2608,7.2475,7.2624,7.2654,7.2295,7.1667,7.1444,7.1218,7.0919,7.062,7.032,7.0037,7.0785,7.0829,7.0606,7.1308,7.1846,7.186,7.1846,7.1803,7.1822,7.1839,7.2562,7.3857,7.4546,7.5616,7.6946,7.9072,7.978,7.8641,7.9819,8.1539,8.2765,8.3738,8.4343,8.4512,8.458,8.458,8.458,8.458,8.458,8.458,8.458,8.458,8.458,8.458,8.458,8.458,8.458,8.458,8.458,8.4614,8.4614,8.458,8.4728,8.4681,8.458,8.458,8.458,8.458,8.458,8.458,8.458,8.458,8.458,8.458,8.458,8.458,8.458,8.458,8.458,8.458,8.458,8.458,8.458,8.458,8.458,8.458,8.4512,8.4478,8.4458,8.4444,8.4478,8.4546,8.4492,8.458,8.458,8.458,8.458,8.458,8.458,8.458,8.458,8.458,8.458,8.458,8.458,8.458,8.458,8.458,8.458,8.4224,8.3688,8.3545,8.2684,8.1092,7.9465,7.7983,7.6665,7.5446,7.4531,7.3868,7.4138,7.4108,7.3851,7.3762,7.3432,7.3133,7.3133,7.2984,7.2385,7.2325,7.2116,7.1846,7.174,7.1547,7.1457,7.1936,7.2086,7.1816,7.2428,7.2924,7.2864,7.2957,7.3177,7.3843,7.3908,7.5,7.6508,7.7385,7.8631,8.0559,8.1948,8.2296,8.1849,8.2237,8.3059,8.3831,8.4356,8.458,8.458,8.458,8.458,8.458,8.458,8.458,8.458,8.458,8.4796,8.4931,8.483,8.4647,8.5067,8.483,8.4614,8.4647,8.4898,8.5067,8.5168,8.5371,8.527,8.4715,8.458,8.458,8.458,8.458,8.458,8.458,8.458,8.458,8.458,8.458,8.458,8.458,8.458,8.458,8.458,8.458,8.458,8.458,8.458,8.458,8.458,8.458,8.458,8.458,8.458,8.458,8.458,8.458,8.458,8.458,8.458,8.458,8.458,8.458,8.458,8.458,8.458,8.458,8.4715,8.4728,8.4614,8.458,8.458,8.4566,8.392,8.2718,8.2444,8.1447,7.9849,7.8107,7.7243,7.6963,7.5442,7.4856,7.4826,7.4766,7.4796,7.4736,7.4646,7.4227,7.3462,7.3791,7.3612,7.3103,7.2997,7.2877,7.2698,7.2757,7.2817,7.2714,7.2847,7.2997,7.2954,7.3133,7.3203,7.369,7.3866,7.4676,7.5724,7.6103,7.7086,7.8987,8.0607,8.2025,8.353,8.4358,8.4101,8.3573,8.4255,8.4412,8.4546,8.458,8.458,8.458,8.458,8.458,8.458,8.458,8.4695,8.4762,8.4796,8.5067,8.5587,8.5439,8.5303,8.5858,8.5236,8.51,8.5134,8.5554,8.5824,8.596,8.6467,8.6115,8.527,8.4864,8.4817,8.4715,8.4728,8.4728,8.4614,8.458,8.458,8.458,8.458,8.458,8.458,8.458,8.458,8.458,8.458,8.458,8.458,8.458,8.458,8.458,8.458,8.458,8.458,8.458,8.458,8.458,8.458,8.458,8.458,8.458,8.458,8.458,8.458,8.458,8.458,8.458,8.458,8.5554,8.5486,8.4864,8.458,8.458,8.458,8.4352,8.3837,8.2619,8.1053,7.962,7.798,7.6601,7.5472,7.5095,7.4886,7.4886,7.4886,7.4886,7.4886,7.4886,7.4796,7.4437,7.4587,7.4287,7.3821,7.3672,7.3432,7.3103,7.3073,7.2924,7.3027,7.3522,7.3735,7.3833,7.4365,7.517,7.609,7.6322,7.7099,7.8355,7.8754,7.9546,8.1352,8.2893,8.3914,8.4405,8.458,8.4512,8.4458,8.4525,8.4695,8.4695,8.4661,8.4715,8.4783,8.4715,8.4647,8.4647,8.4783,8.4898,8.5452,8.5554,8.5858,8.6521,8.6487,8.642,8.667,8.6487,8.625,8.625,8.6501,8.667,8.6724,8.6859,8.6893,8.6521,8.6386,8.6061,8.5689,8.552,8.5317,8.4749,8.4728,8.4695,8.4614,8.4614,8.458,8.458,8.458,8.458,8.458,8.458,8.458,8.458,8.458,8.458,8.458,8.458,8.458,8.458,8.458,8.458,8.458,8.458,8.458,8.458,8.458,8.458,8.458,8.458,8.458,8.458,8.458,8.458,8.6332,8.6264,8.5845,8.52,8.4539,8.4422,8.3564,8.2121,8.0897,7.9462,7.7998,7.6667,7.5695,7.492,7.4886,7.4886,7.4886,7.4886,7.4886,7.4886,7.4886,7.4886,7.4886,7.4886,7.4676,7.4377,7.4377,7.4138,7.3911,7.3791,7.3911,7.3851,7.4231,7.4895,7.5399,7.585,7.6916,7.8092,7.8518,7.925,8.0647,8.0959,8.1676,8.304,8.4143,8.458,8.458,8.458,8.458,8.4681,8.4965,8.5148,8.5134,8.5182,8.5303,8.5642,8.5662,8.5675,8.5709,8.5696,8.5912,8.6264,8.6298,8.6738,8.7076,8.7144,8.711,8.7231,8.7096,8.6893,8.6927,8.7313,8.7367,8.7482,8.7753,8.7922,8.7854,8.7367,8.6792,8.6433,8.6332,8.6115,8.5777,8.5371,8.5182,8.5317,8.4762,8.4681,8.458,8.458,8.458,8.458,8.458,8.458,8.458,8.458,8.458,8.458,8.458,8.458,8.458,8.458,8.458,8.458,8.458,8.458,8.458,8.458,8.458,8.458,8.458,8.458,8.458,8.458,8.458,8.6697,8.6664,8.6563,8.5511,8.4059,8.3831,8.2407,7.9985,7.881,7.8105,7.6322,7.5434,7.5237,7.4916,7.4886,7.4886,7.4886,7.4886,7.4886,7.4886,7.4886,7.4886,7.4886,7.4886,7.4886,7.4886,7.4826,7.4766,7.4766,7.4937,7.4906,7.5188,7.529,7.6163,7.7323,7.7725,7.8487,7.994,8.0182,8.0929,8.2288,8.2586,8.3263,8.4116,8.4486,8.458,8.4661,8.4762,8.4864,8.4817,8.5554,8.5973,8.6108,8.6041,8.6196,8.6825,8.669,8.6623,8.6589,8.6724,8.6825,8.6995,8.7062,8.7448,8.782,8.7786,8.7786,8.7888,8.7888,8.7705,8.7502,8.8294,8.8598,8.87,8.9154,8.9357,8.9187,8.8192,8.7637,8.711,8.7042,8.6907,8.6602,8.623,8.6061,8.5872,8.5303,8.4918,8.485,8.4796,8.4931,8.4762,8.4762,8.4614,8.458,8.4681,8.4681,8.4695,8.4661,8.4614,8.4614,8.458,8.458,8.458,8.458,8.458,8.458,8.458,8.458,8.458,8.458,8.458,8.458,8.458,8.458,8.5633,8.5582,8.4987,8.3715,8.2271,8.2147,8.1837,8.1142,7.9571,7.8655,7.7706,7.6378,7.5425,7.5065,7.4916,7.4886,7.4916,7.4886,7.4886,7.4886,7.4886,7.4886,7.4886,7.4886,7.4937,7.4886,7.5023,7.5112,7.5074,7.4937,7.5829,7.6634,7.6898,7.7772,7.894,7.9465,8.0165,8.1578,8.1824,8.26,8.3605,8.4008,8.4076,8.4614,8.4681,8.4728,8.483,8.5249,8.5601,8.5689,8.6332,8.6974,8.7245,8.7008,8.6941,8.7028,8.713,8.7164,8.713,8.7028,8.7265,8.7617,8.782,8.8158,8.8646,8.8815,8.8781,8.897,8.9342,8.9545,8.9667,9.0019,9.056,9.0729,9.0642,9.0778,9.0594,8.9985,8.8956,8.8192,8.7922,8.7651,8.738,8.7076,8.6805,8.6636,8.6264,8.6014,8.6014,8.5777,8.5621,8.5351,8.4999,8.4796,8.458,8.4715,8.4783,8.483,8.4796,8.4715,8.4681,8.4614,8.458,8.458,8.458,8.458,8.458,8.458,8.458,8.458,8.458,8.458,8.458,8.458,8.458,8.4676,8.4644,8.4272,8.3145,8.1716,8.1553,8.0992,8.0105,7.9025,7.8342,7.7797,7.6868,7.6018,7.5557,7.5425,7.5245,7.4976,7.4886,7.4886,7.4886,7.4886,7.4886,7.5023,7.4988,7.5506,7.5916,7.6136,7.6136,7.6166,7.6199,7.7076,7.8234,7.8612,7.9419,8.0674,8.1062,8.1925,8.3054,8.3448,8.3756,8.4547,8.4614,8.4614,8.4681,8.5033,8.5215,8.5384,8.596,8.6332,8.6501,8.7076,8.7583,8.7888,8.8091,8.8023,8.8037,8.8023,8.8023,8.8023,8.8037,8.8274,8.8511,8.8578,8.8917,8.9424,8.9681,8.983,9.0121,8.9985,9.0391,9.0662,9.1135,9.1271,9.1305,9.1338,9.1372,9.1271,9.0966,9.0188,8.9275,8.8835,8.8545,8.824,8.7922,8.7583,8.7333,8.7144,8.7062,8.7062,8.6724,8.6366,8.6095,8.5743,8.5506,8.5337,8.5371,8.5324,8.5236,8.5134,8.5067,8.4796,8.4796,8.4661,8.458,8.458,8.458,8.458,8.458,8.458,8.458,8.458,8.458,8.458,8.458,8.458,8.3802,8.3478,8.3478,8.2491,8.1032,8.0877,8.0095,7.8867,7.831,7.7998,7.7724,7.7245,7.6676,7.6168,7.5886,7.5604,7.5117,7.5266,7.5614,7.5887,7.6141,7.603,7.5946,7.603,7.6683,7.7707,7.7804,7.782,7.782,7.7804,7.8785,7.9832,8.0288,8.1077,8.2359,8.267,8.3627,8.413,8.458,8.4614,8.4783,8.4952,8.5053,8.5087,8.5689,8.5993,8.6095,8.6738,8.7076,8.7313,8.7753,8.824,8.8342,8.8917,8.9289,8.9323,8.9323,8.939,8.9526,8.9526,8.956,8.9647,8.956,8.9898,9.0188,9.0459,9.0628,9.1068,9.1087,9.0952,9.1459,9.1711,9.1812,9.186,9.1894,9.1812,9.1846,9.1677,9.1372,9.0594,8.9932,8.9357,8.8951,8.8646,8.826,8.8192,8.7989,8.7922,8.7854,8.7414,8.7076,8.6825,8.6589,8.6399,8.6284,8.6318,8.6217,8.6014,8.5912,8.5777,8.5371,8.4965,8.4931,8.4999,8.458,8.458,8.458,8.458,8.458,8.458,8.458,8.458,8.458,8.458,8.458,8.3087,8.1717,8.1686,8.0687,7.9315,7.9207,7.9064,7.8813,7.8669,7.834,7.7873,7.7741,7.7322,7.6899,7.6299,7.599,7.6163,7.6785,7.7352,7.7715,7.8358,7.8691,7.9034,7.9251,7.8972,7.9451,7.9513,7.9496,7.9664,7.9664,8.0363,8.1607,8.2026,8.2642,8.3825,8.3933,8.4406,8.4566,8.4614,8.4965,8.5587,8.6149,8.642,8.6521,8.6656,8.6771,8.6873,8.7448,8.7854,8.7955,8.8545,8.8917,8.9086,8.9681,8.9985,9.0087,9.0154,9.0357,9.0763,9.0811,9.0778,9.0729,9.0845,9.1048,9.1135,9.1169,9.1237,9.1285,9.1677,9.2068,9.2339,9.2909,9.318,9.3248,9.318,9.318,9.3131,9.2745,9.2373,9.173,9.1,9.0121,8.9492,8.9221,8.8951,8.8917,8.8883,8.8781,8.8666,8.8328,8.7617,8.7333,8.7414,8.7245,8.711,8.7177,8.7076,8.6839,8.6704,8.6535,8.6014,8.5608,8.5655,8.5587,8.5168,8.4702,8.4594,8.4607,8.46,8.4762,8.4945,8.4796,8.458,8.4614,8.4884,8.3303,8.1309,8.0335,7.9516,7.8843,7.8789,7.8789,7.8789,7.8789,7.8639,7.84,7.837,7.8501,7.8598,7.8179,7.8249,7.8686,7.9131,7.9195,7.9243,7.9719,7.9927,7.9712,7.9879,8.0092,8.1077,8.1315,8.1882,8.1911,8.169,8.1968,8.3282,8.3531,8.377,8.4553,8.458,8.4566,8.4728,8.5033,8.5418,8.5905,8.6467,8.6927,8.6927,8.7333,8.7482,8.7685,8.8192,8.8612,8.868,8.8984,8.9323,8.9647,9.0087,9.0445,9.1459,9.1459,9.1406,9.1305,9.1372,9.1406,9.1372,9.1406,9.144,9.1744,9.1967,9.2184,9.2605,9.2455,9.2643,9.3131,9.3774,9.3774,9.3909,9.4229,9.406,9.3943,9.3943,9.3523,9.2812,9.2068,9.1203,9.0391,9.0053,8.9715,8.9323,8.9357,8.9357,8.9444,8.9498,8.8666,8.7719,8.7922,8.8139,8.8003,8.7955,8.7888,8.7719,8.7516,8.7245,8.669,8.642,8.6433,8.6433,8.6217,8.5669,8.4959,8.475,8.4918,8.5148,8.5364,8.5317,8.5303,8.5777,8.6014,8.3645,8.1869,7.988,7.8968,7.8789,7.8789,7.8789,7.8789,7.8789,7.9046,7.9534,7.9955,8.0583,8.0793,8.0595,8.0644,8.1325,8.1657,8.1438,8.1111,8.1135,8.136,8.1483,8.1344,8.1795,8.2788,8.2816,8.3277,8.3627,8.3572,8.3421,8.4553,8.4366,8.4513,8.4553,8.4614,8.4661,8.508,8.5723,8.6163,8.6582,8.7177,8.7448,8.7651,8.7922,8.8294,8.8375,8.8714,8.9066,8.939,8.941,8.9782,9.0357,9.0817,9.129,9.2102,9.2373,9.259,9.2387,9.2286,9.2015,9.2116,9.2286,9.2861,9.2609,9.2812,9.3117,9.374,9.3421,9.347,9.3842,9.4552,9.4518,9.462,9.489,9.4654,9.4451,9.4451,9.4334,9.3726,9.3015,9.2353,9.1609,9.1087,9.056,8.9898,8.9763,8.9898,9.0121,9.0377,8.9782,8.8801,8.8835,8.8984,8.868,8.8612,8.8564,8.8497,8.8294,8.7955,8.738,8.7164,8.7177,8.7177,8.7096,8.7036,8.6562,8.5905,8.5303,8.5567,8.5865,8.6007,8.623,8.669,8.6893,8.3963,8.3575,8.0884,7.9472,7.8933,7.8789,7.8915,7.9267,7.9046,7.9963,8.1343,8.2675,8.2951,8.294,8.2844,8.2842,8.3013,8.3762,8.391,8.4244,8.4762,8.4458,8.4129,8.3962,8.4135,8.4372,8.4426,8.4527,8.4581,8.4602,8.444,8.4614,8.4864,8.4695,8.4762,8.4965,8.5148,8.5655,8.6366,8.711,8.7651,8.8294,8.8714,8.8815,8.8917,8.9032,8.9052,8.9255,8.9593,9.0087,9.0121,9.0493,9.1121,9.1628,9.2155,9.2745,9.3252,9.3605,9.3842,9.3605,9.3774,9.4349,9.4687,9.4466,9.3842,9.4214,9.4518,9.447,9.4165,9.4301,9.4687,9.5127,9.5296,9.5229,9.5466,9.5601,9.533,9.506,9.489,9.4503,9.3909,9.3199,9.2692,9.215,9.1324,9.0676,9.0763,9.0932,9.0865,9.1,9.0729,9.0188,9.0019,8.9816,8.9255,8.9154,8.9173,8.9038,8.8883,8.8511,8.8057,8.7955,8.7922,8.782,8.7786,8.8018,8.8094,8.73,8.665,8.6352,8.6386,8.6765,8.6907,8.7177,8.7279,8.5319,8.393,8.3182,8.1932,8.0461,8.1565,8.2006,8.1975,8.2023,8.2308,8.3038,8.3689,8.4439,8.493,8.5203,8.5522,8.6041,8.6388,8.6263,8.6091,8.6207,8.6271,8.6014,8.5912,8.6007,8.5933,8.598,8.6014,8.6034,8.554,8.5709,8.5777,8.5554,8.5384,8.5418,8.5655,8.5926,8.6108,8.6907,8.7753,8.8037,8.868,8.9134,8.9134,8.9647,8.9748,8.985,9.0256,9.056,9.0797,9.0865,9.1324,9.1831,9.2305,9.2865,9.3556,9.4045,9.4586,9.5093,9.4789,9.4654,9.5195,9.5567,9.5548,9.4838,9.489,9.4755,9.4687,9.4789,9.489,9.4842,9.5669,9.6259,9.5939,9.6007,9.6345,9.6244,9.5872,9.5466,9.5127,9.4586,9.3977,9.3537,9.3131,9.2286,9.1508,9.1744,9.1913,9.1812,9.1711,9.1474,9.1169,9.0932,9.0763,9.0222,8.9985,8.9782,8.9593,8.939,8.8984,8.8612,8.8714,8.8646,8.8545,8.8361,8.8417,8.8431,8.8335,8.7997,8.751,8.7483,8.7732,8.782,8.7753,8.7786,8.6255,8.4854,8.521,8.4152,8.2458,8.3478,8.3995,8.3995,8.3899,8.4378,8.4773,8.5242,8.612,8.7054,8.7271,8.7532,8.7961,8.8087,8.7751,8.7441,8.7176,8.7096,8.6961,8.6825,8.669,8.6893,8.6893,8.6825,8.669,8.6332,8.6399,8.6555,8.6636,8.6447,8.623,8.6569,8.6738,8.6853,8.7326,8.8192,8.8375,8.8815,8.91,8.9221,8.9748,9.0087,9.029,9.0696,9.1271,9.1508,9.1696,9.2049,9.2474,9.2948,9.3489,9.4199,9.4823,9.5161,9.5702,9.5804,9.5499,9.5702,9.6379,9.6244,9.5838,9.5499,9.5601,9.5499,9.5432,9.533,9.5349,9.648,9.6834,9.6514,9.704,9.736,9.6988,9.6616,9.6142,9.5736,9.5195,9.4755,9.4112,9.3673,9.3146,9.2503,9.2605,9.2692,9.2605,9.2489,9.2319,9.1981,9.1643,9.1474,9.1271,9.0913,9.0507,8.9951,8.9715,8.939,8.9154,8.9235,8.9168,8.8883,8.8781,8.8781,8.8748,8.8714,8.8668,8.8568,8.8513,8.8443,8.8497,8.8463,8.8545,8.6576,8.6435,8.6468,8.5554,8.4203,8.4043,8.4235,8.4568,8.4505,8.5211,8.6573,8.7882,8.8586,8.8799,8.8643,8.8726,8.8838,8.8917,8.8612,8.8091,8.7955,8.7583,8.7299,8.7198,8.7367,8.7008,8.7177,8.7299,8.7096,8.6961,8.6995,8.7265,8.755,8.7482,8.6961,8.6927,8.7279,8.782,8.7955,8.8463,8.8951,8.9154,8.912,8.9627,9.0053,9.0425,9.0783,9.1372,9.1947,9.2305,9.2406,9.2759,9.3281,9.3503,9.4011,9.4706,9.4857,9.5533,9.6665,9.6766,9.6563,9.6311,9.7022,9.7123,9.6394,9.6293,9.6563,9.6326,9.6496,9.6631,9.7003,9.7326,9.724,9.7326,9.7834,9.792,9.7529,9.7292,9.6819,9.6311,9.5939,9.5499,9.4755,9.4146,9.3823,9.3518,9.3552,9.3451,9.3248,9.3146,9.2928,9.2759,9.2387,9.2252,9.2063,9.1672,9.1198,9.0594,9.0106,8.9816,8.9593,8.9526,8.939,8.9235,8.9255,8.9275,8.9221,8.912,8.9297,8.9495,8.9074,8.8917,8.9052,8.9052,8.8984,8.8219,8.8219,8.8219,8.7897,8.7397,8.7382,8.7367,8.7367,8.7411,8.7708,8.8204,8.894,8.91,8.9134,8.9134,8.9134,8.9134,8.91,8.8815,8.8748,8.868,8.8612,8.8375,8.8192,8.826,8.8342,8.8375,8.824,8.8409,8.7888,8.8023,8.8342,8.8375,8.8274,8.7955,8.7955,8.8375,8.8172,8.8477,8.9038,8.9647,8.941,8.9492,9.0324,9.0696,9.1068,9.1527,9.2218,9.2774,9.303,9.3098,9.3281,9.3687,9.389,9.462,9.5364,9.5736,9.6597,9.7375,9.7597,9.7529,9.7495,9.7514,9.7717,9.736,9.6935,9.6935,9.6935,9.7037,9.7003,9.7003,9.7563,9.7664,9.7732,9.8003,9.7987,9.7784,9.7732,9.7461,9.6935,9.6496,9.6123,9.5499,9.4823,9.4398,9.406,9.3958,9.3687,9.3451,9.3451,9.3349,9.3349,9.3165,9.3078,9.2841,9.2465,9.2078,9.1527,9.0884,9.0343,9.0121,8.9966,8.9918,8.9918,8.985,8.9816,8.9782,8.9816,9.029,9.0372,8.9864,8.9357,8.9255,8.9187,8.91,8.9134,8.9134,8.9134,8.9134,8.9134,8.9134,8.9134,8.9134,8.9134,8.9134,8.9072,8.9086,8.9134,8.9134,8.9134,8.9134,8.9134,8.9134,8.9134,8.9134,8.91,8.8998,8.9032,8.9134,8.8917,8.9134,8.9134,8.9066,8.8951,8.8612,8.8646,8.8883,8.91,8.8781,8.8612,8.8748,8.8815,8.8612,8.8917,8.9187,8.9458,8.9492,8.9681,9.0527,9.1135,9.1575,9.2373,9.3064,9.3601,9.3601,9.3601,9.3601,9.3823,9.4315,9.5026,9.577,9.6751,9.7394,9.7834,9.7969,9.7852,9.7886,9.7987,9.7987,9.7953,9.7578,9.7646,9.7612,9.7443,9.7698,9.7969,9.851,9.8341,9.8409,9.8341,9.8375,9.8021,9.7969,9.7867,9.736,9.7157,9.6751,9.6293,9.5601,9.4992,9.462,9.4315,9.3977,9.3687,9.362,9.3601,9.3586,9.3552,9.3417,9.3364,9.334,9.2905,9.244,9.1749,9.1053,9.0797,9.0676,9.0628,9.0512,9.0309,9.0208,9.0309,9.056,9.0966,9.0966,9.0575,9.0067,8.9593,8.9492,8.9492,8.9134,8.9134,8.9134,8.9134,8.9134,8.9134,8.9134,8.9134,8.9134,8.9134,8.9154,8.9168,8.9201,8.9187,8.9154,8.9134,8.9134,8.9134,8.9134,8.9134,8.9134,8.9134,8.9134,8.9134,8.9134,8.9134,8.9134,8.91,8.9086,8.8951,8.8984,8.9086,8.91,8.8984,8.8984,8.9154,8.912,8.9052,8.9221,8.9526,8.9763,8.9593,9.0154,9.0899,9.144,9.1913,9.259,9.3233,9.3518,9.3601,9.3601,9.3601,9.3823,9.4315,9.506,9.6041,9.7326,9.7751,9.7953,9.7987,9.8156,9.8206,9.8172,9.8055,9.8123,9.824,9.8544,9.8645,9.8612,9.9171,9.9712,9.9424,9.9119,9.9085,9.8999,9.8713,9.8273,9.8089,9.7987,9.7818,9.7818,9.7495,9.6954,9.6311,9.5669,9.5296,9.489,9.4315,9.3992,9.362,9.362,9.3601,9.3586,9.3586,9.3615,9.3611,9.3412,9.288,9.2474,9.1865,9.1643,9.144,9.1372,9.1189,9.0715,9.0648,9.0986,9.1271,9.1541,9.1454,9.1522,9.0696,9.0236,9.0222,9.0188,8.9134,8.9134,8.9134,8.9134,8.9134,8.9134,8.9134,8.9134,8.9134,8.9357,8.985,8.9323,8.939,8.9802,8.9357,8.9154,8.9134,8.9134,8.9134,8.9134,8.9134,8.9134,8.9134,8.9134,8.9134,8.912,8.9154,8.9221,8.9187,8.9154,8.9168,8.91,8.9134,8.9134,8.9323,8.9613,8.9478,8.9492,8.9695,8.9985,9.0357,9.0425,9.1169,9.1962,9.1947,9.2489,9.3064,9.3383,9.3601,9.3601,9.3601,9.3586,9.3654,9.4755,9.5905,9.7225,9.7818,9.7987,9.7987,9.7987,9.819,9.8645,9.8781,9.8781,9.8916,9.9187,9.9543,9.9627,9.9559,9.9915,10.0253,10.0168,9.9965,9.9863,9.9627,9.9085,9.8612,9.819,9.8089,9.7987,9.7987,9.7886,9.7428,9.7037,9.6428,9.6041,9.5533,9.4924,9.4282,9.3924,9.362,9.3586,9.3601,9.3601,9.3601,9.3615,9.3499,9.33,9.2895,9.2677,9.2658,9.2489,9.2203,9.1933,9.1628,9.1662,9.1885,9.2136,9.2402,9.2808,9.2808,9.1793,9.0966,9.0966,9.0865,8.9134,8.9134,8.9134,8.9134,8.9134,8.9134,8.9134,8.9154,8.9376,8.9681,8.9715,8.9613,8.9613,8.9579,8.9289,8.9134,8.9134,8.9134,8.9134,8.9134,8.9134,8.9134,8.9134,8.9154,8.9323,8.939,8.9579,8.9782,8.9763,8.9593,8.9526,8.9134,8.9134,8.9323,8.9593,8.9918,9.0121,9.0188,9.0391,9.0696,9.0932,9.1237,9.2116,9.2827,9.2575,9.2962,9.3484,9.3586,9.3586,9.3601,9.3601,9.3789,9.4161,9.5432,9.6616,9.7732,9.7953,9.7987,9.8021,9.8375,9.8679,9.9119,9.9642,10.0014,9.9965,10.01,10.0371,10.0506,10.0355,10.0355,10.0659,10.0896,10.0761,10.0659,10.0066,9.9457,9.8916,9.8409,9.819,9.8021,9.7987,9.7987,9.7766,9.7461,9.7138,9.6665,9.621,9.577,9.4924,9.4127,9.3789,9.3601,9.3601,9.3601,9.3601,9.3601,9.3552,9.3484,9.33,9.3199,9.3451,9.3281,9.2827,9.2677,9.2609,9.2575,9.2474,9.2996,9.3349,9.3601,9.3518,9.2672,9.188,9.1696,9.1527,8.9134,8.9134,8.9134,8.9154,8.9187,8.9221,8.9289,8.9357,9.0154,9.0019,8.9627,8.9951,8.9884,8.9763,8.9458,8.9221,8.9168,8.9134,8.9134,8.9134,8.9134,8.9134,8.912,8.9221,8.9613,9.0019,9.0324,9.0459,9.0865,9.0628,8.9985,8.9303,8.9424,8.9796,9.0256,9.058,9.0797,9.0932,9.1237,9.1541,9.1053,9.1203,9.1778,9.2474,9.2677,9.288,9.3417,9.362,9.362,9.3654,9.3687,9.3958,9.4958,9.5988,9.7089,9.7698,9.7953,9.8156,9.8292,9.8645,9.9119,9.9728,10.0556,10.1029,10.1081,10.098,10.1216,10.1318,10.1201,10.1302,10.1573,10.1589,10.1487,10.1284,10.0811,10.0303,9.9829,9.9119,9.8341,9.8156,9.7987,9.7987,9.7953,9.7664,9.7563,9.7157,9.6732,9.6345,9.5702,9.4669,9.4127,9.3789,9.362,9.362,9.3601,9.3601,9.3601,9.3552,9.3484,9.3484,9.3518,9.3451,9.3349,9.3199,9.3064,9.2948,9.2948,9.3383,9.3601,9.3601,9.3484,9.3233,9.2861,9.2508,9.217,8.9134,8.9134,8.9134,8.9424,8.9918,8.9937,9.0256,9.0831,9.1561,9.1392,9.0797,9.0425,9.0425,9.056,9.0101,8.9729,8.9255,8.9255,8.9134,8.9134,8.9134,8.9187,8.9255,8.9613,9.0019,9.0324,9.0696,9.1217,9.1271,9.1135,9.0966,9.0744,9.0642,9.0729,9.1034,9.1358,9.1662,9.1691,9.2286,9.2387,9.2,9.2522,9.3214,9.3281,9.3315,9.3281,9.3601,9.3601,9.3958,9.4248,9.3808,9.4349,9.5466,9.6428,9.7206,9.7834,9.7987,9.8224,9.8612,9.9018,9.9559,10.042,10.1199,10.1672,10.1927,10.1961,10.1961,10.2028,10.213,10.2231,10.2283,10.2231,10.213,10.1825,10.1487,10.1081,10.0691,9.966,9.8612,9.8273,9.8055,9.7987,9.7987,9.7953,9.7901,9.7563,9.7105,9.6665,9.6259,9.5481,9.4721,9.4315,9.3755,9.3654,9.362,9.3601,9.3601,9.3601,9.3552,9.3552,9.3601,9.3518,9.3451,9.3484,9.3402,9.3267,9.3233,9.3451,9.3601,9.3601,9.3552,9.3383,9.3383,9.3146,9.2827,8.9134,8.9134,8.9134,8.9512,9.0121,9.0222,9.0628,9.1305,9.1744,9.1865,9.1764,9.1392,9.1271,9.1372,9.0831,9.029,8.9695,8.9613,8.939,8.9221,8.9255,8.939,8.9647,9.0087,9.0715,9.1121,9.188,9.2266,9.188,9.1744,9.1744,9.144,9.1372,9.1508,9.1778,9.2203,9.2406,9.2402,9.3248,9.3233,9.2895,9.3349,9.3601,9.3601,9.3601,9.3601,9.3601,9.362,9.4045,9.4755,9.489,9.5413,9.6326,9.7037,9.7563,9.7852,9.8055,9.819,9.8679,9.9356,9.9999,10.0811,10.1758,10.2198,10.2265,10.2249,10.2249,10.2333,10.2333,10.2418,10.2418,10.2367,10.2367,10.2198,10.1555,10.0996,10.0285,9.9372,9.8578,9.8123,9.7987,9.7987,9.7987,9.7987,9.792,9.792,9.7461,9.7105,9.6699,9.6157,9.5432,9.4755,9.4161,9.3721,9.3634,9.3601,9.3601,9.3601,9.3601,9.3601,9.3601,9.3601,9.3586,9.3586,9.3552,9.3552,9.3552,9.3601,9.3601,9.3601,9.3601,9.3552,9.3601,9.3601,9.3315,8.9134,8.9134,8.9134,8.9593,9.0242,9.0208,9.0763,9.1556,9.1541,9.1899,9.2508,9.2542,9.2116,9.1643,9.1406,9.0899,9.0527,9.0391,8.9966,8.9526,8.9526,8.9748,9.0087,9.0512,9.1425,9.2252,9.3011,9.2895,9.2575,9.2522,9.2286,9.1677,9.1711,9.1913,9.2373,9.2643,9.2778,9.3146,9.3552,9.3586,9.3552,9.3601,9.3601,9.3601,9.3601,9.3601,9.3601,9.3721,9.4011,9.489,9.5804,9.6394,9.6868,9.7409,9.7732,9.8021,9.8224,9.8359,9.8765,9.978,10.0287,10.093,10.1945,10.2418,10.2486,10.252,10.252,10.252,10.252,10.252,10.252,10.252,10.252,10.2418,10.169,10.1063,10.0217,9.9372,9.8781,9.8224,9.8055,9.8055,9.7987,9.7987,9.7987,9.7987,9.7852,9.7529,9.7123,9.6496,9.5853,9.506,9.4364,9.3992,9.3654,9.3601,9.3601,9.3601,9.3601,9.3601,9.3601,9.3601,9.3601,9.3601,9.3601,9.3601,9.3601,9.3601,9.3601,9.3601,9.3601,9.3601,9.3601,9.3601,9.3601,8.9134,8.9134,8.9134,8.9864,9.0865,9.0459,9.1305,9.2875,9.2421,9.2658,9.3131,9.3281,9.2928,9.2203,9.2189,9.173,9.1,9.0966,9.0594,9.0121,9.0372,9.0425,9.0715,9.1459,9.2455,9.3098,9.3484,9.3417,9.3131,9.3199,9.3281,9.3011,9.3045,9.3146,9.3214,9.3349,9.3349,9.3601,9.3601,9.3601,9.3601,9.3601,9.3601,9.3601,9.3601,9.3601,9.3601,9.3601,9.4045,9.489,9.6074,9.6766,9.7206,9.7597,9.7886,9.8156,9.8375,9.8901,9.9476,10.022,10.0743,10.1555,10.2299,10.2351,10.2418,10.252,10.252,10.252,10.252,10.252,10.252,10.252,10.2486,10.2468,10.2028,10.1521,10.0894,10.01,9.939,9.8765,9.8224,9.8123,9.7987,9.7987,9.7987,9.7987,9.7987,9.7698,9.7428,9.6819,9.6259,9.5514,9.4736,9.406,9.3586,9.3586,9.3601,9.3601,9.3601,9.3601,9.3601,9.3601,9.3601,9.3601,9.3601,9.3601,9.3601,9.3601,9.3601,9.3601,9.3601,9.3601,9.3601,9.3601,9.3601]}]]